[[{"header":{"parameterUnit":"m.s-1","parameterCategory":1,"la1":30.6,"la2":29.2853,"lo1":-89.7004,"lo2":-87.6739,"dy":0.0162,"dx":0.0183,"nx":112,"ny":82,"refTime":"2023-08-23T12:00:00:Z","depth":0,"parameterNumber":2,"parameterNumberName":"U-component_of_WINDS"},"data":[0.0,0.0,0.0,0.0,0.0,0.0,0.0,0.0,0.0,0.0,0.0,0.0,0.0,0.0,0.0,0.0,0.0,0.0,0.0,0.0,0.0,0.0,0.0,0.0,0.0,0.0,0.0,0.0,0.0,0.0,0.0,0.0,0.0,0.0,0.0,0.0,0.0,0.0,0.0,0.0,0.0,0.0,0.0,0.0,0.0,0.0,0.0,0.0,0.0,0.0,0.0,0.0,0.0,0.0,0.0,0.0,0.0,0.0,0.0,0.0,0.0,0.0,0.0,0.0,0.0,0.0,0.0,0.0,0.0,0.0,0.0,0.0,0.0,0.0,0.0,0.0,0.0,0.0,0.0,0.0,0.0,0.0,0.0,0.0,0.0,0.0,0.0,0.0,0.0,0.0,-0.5893,-0.6305,-0.7126,-0.7662,-0.7759,-0.7933,-0.7523,-0.6213,0.0,0.0,0.0,0.0,0.0,0.0,0.0,0.0,0.0,0.0,0.0,0.0,0.0,0.0,0.0,0.0,0.0,0.0,0.0,0.0,0.0,0.0,0.0,0.0,0.0,0.0,0.0,0.0,0.0,0.0,0.0,0.0,0.0,0.0,0.0,0.0,0.0,0.0,0.0,0.0,0.0,0.0,0.0,0.0,0.0,0.0,0.0,0.0,0.0,0.0,0.0,0.0,0.0,0.0,0.0,0.0,0.0,0.0,0.0,0.0,0.0,0.0,0.0,0.0,0.0,0.0,0.0,0.0,0.0,0.0,0.0,0.0,0.0,0.0,0.0,0.0,0.0,0.0,0.0,0.0,0.0,0.0,0.0,0.0,0.0,0.0,0.0,0.0,0.0,0.0,0.0,0.0,0.0,0.0,0.0,0.0,0.0,0.0,0.0,0.0,0.0,0.0,0.0,0.0,-0.5896,-0.7308,-0.7827,-0.8097,-0.8149,-0.7973,-0.7417,-0.6403,0.0,0.0,0.0,0.0,0.0,0.0,0.0,0.0,0.0,0.0,0.0,0.0,0.0,0.0,0.0,0.0,0.0,0.0,0.0,0.0,0.0,0.0,0.0,0.0,0.0,0.0,0.0,0.0,0.0,0.0,0.0,0.0,0.0,0.0,0.0,0.0,0.0,0.0,0.0,0.0,0.0,0.0,0.0,0.0,0.0,0.0,0.0,0.0,0.0,0.0,0.0,0.0,0.0,0.0,0.0,0.0,0.0,0.0,0.0,0.0,0.0,0.0,0.0,0.0,0.0,0.0,0.0,0.0,0.0,0.0,0.0,0.0,0.0,0.0,0.0,0.0,0.0,0.0,0.0,0.0,0.0,0.0,0.0,0.0,0.0,0.0,0.0,0.0,0.0,0.0,0.0,0.0,0.0,0.0,0.0,0.0,0.0,0.0,0.0,0.0,0.0,0.0,0.0,-0.5509,-0.6319,-0.7572,-0.7876,-0.8062,-0.8168,-0.8109,-0.7567,-0.649,-0.6022,0.0,0.0,0.0,0.0,0.0,0.0,0.0,0.0,0.0,0.0,0.0,0.0,0.0,0.0,0.0,0.0,0.0,0.0,0.0,0.0,0.0,0.0,0.0,0.0,0.0,0.0,0.0,0.0,0.0,0.0,0.0,0.0,0.0,0.0,0.0,0.0,0.0,0.0,0.0,0.0,0.0,0.0,0.0,0.0,0.0,0.0,0.0,0.0,0.0,0.0,0.0,0.0,0.0,0.0,0.0,0.0,0.0,0.0,0.0,0.0,0.0,0.0,0.0,0.0,0.0,0.0,0.0,0.0,0.0,0.0,0.0,0.0,0.0,0.0,0.0,0.0,0.0,0.0,0.0,0.0,0.0,0.0,0.0,0.0,0.0,0.0,0.0,0.0,0.0,0.0,0.0,0.0,0.0,0.0,0.0,0.0,0.0,0.0,0.0,0.0,0.0,0.0,-0.6128,-0.6719,-0.7576,-0.7735,-0.7848,-0.8055,-0.7875,-0.7321,-0.6392,-0.5454,0.0,0.0,0.0,0.0,0.0,0.0,0.0,0.0,0.0,0.0,0.0,0.0,0.0,0.0,0.0,0.0,0.0,0.0,0.0,0.0,0.0,0.0,0.0,0.0,0.0,0.0,0.0,0.0,0.0,0.0,0.0,0.0,0.0,0.0,0.0,0.0,0.0,0.0,0.0,0.0,0.0,0.0,0.0,0.0,0.0,0.0,0.0,0.0,0.0,0.0,0.0,0.0,0.0,0.0,0.0,0.0,0.0,0.0,0.0,0.0,0.0,0.0,0.0,0.0,0.0,0.0,0.0,0.0,0.0,0.0,0.0,0.0,0.0,0.0,0.0,0.0,0.0,0.0,0.0,0.0,0.0,0.0,0.0,0.0,0.0,0.0,0.0,0.0,0.0,0.0,0.0,0.0,0.0,0.0,0.0,0.0,0.0,0.0,0.0,0.0,0.0,0.0,-0.6078,-0.691,-0.7458,-0.7419,-0.7467,-0.7723,-0.6836,-0.6206,-0.6136,-0.4382,0.0,0.0,0.0,0.0,0.0,0.0,0.0,0.0,0.0,0.0,0.0,0.0,0.0,0.0,0.0,0.0,0.0,0.0,0.0,0.0,0.0,0.0,0.0,0.0,0.0,0.0,0.0,0.0,0.0,0.0,0.0,0.0,0.0,0.0,0.0,0.0,0.0,0.0,0.0,0.0,0.0,0.0,0.0,0.0,0.0,0.0,0.0,0.0,0.0,0.0,0.0,0.0,0.0,0.0,0.0,0.0,0.0,0.0,0.0,0.0,0.0,0.0,0.0,0.0,0.0,0.0,0.0,0.0,0.0,0.0,0.0,0.0,0.0,0.0,0.0,0.0,0.0,0.0,0.0,0.0,0.0,0.0,0.0,0.0,0.0,0.0,0.0,0.0,0.0,0.0,0.0,0.0,0.0,0.0,0.0,0.0,0.0,0.0,0.0,0.0,0.0,0.0,-0.5786,-0.6613,0.0,-0.7521,-0.7622,-0.7788,-0.7479,-0.6854,-0.5949,0.0,0.0,0.0,0.0,0.0,0.0,0.0,0.0,0.0,0.0,0.0,0.0,0.0,0.0,0.0,0.0,0.0,0.0,0.0,0.0,0.0,0.0,0.0,0.0,0.0,0.0,0.0,0.0,0.0,0.0,0.0,0.0,0.0,0.0,0.0,0.0,0.0,0.0,0.0,0.0,0.0,0.0,0.0,0.0,0.0,0.0,0.0,0.0,0.0,0.0,0.0,0.0,0.0,0.0,0.0,0.0,0.0,0.0,0.0,0.0,0.0,0.0,0.0,0.0,0.0,0.0,0.0,0.0,0.0,0.0,0.0,0.0,0.0,0.0,0.0,0.0,0.0,0.0,0.0,0.0,0.0,0.0,0.0,0.0,0.0,0.0,0.0,0.0,0.0,0.0,0.0,0.0,0.0,0.0,0.0,0.0,0.0,0.0,0.0,0.0,0.0,0.0,-0.4819,-0.5717,-0.6631,0.0,-0.7568,-0.7729,-0.7901,-0.7564,-0.6871,-0.5867,0.0,0.0,0.0,0.0,0.0,0.0,0.0,0.0,0.0,0.0,0.0,0.0,0.0,0.0,0.0,0.0,0.0,0.0,0.0,0.0,0.0,0.0,0.0,0.0,0.0,0.0,0.0,0.0,0.0,0.0,0.0,0.0,0.0,0.0,0.0,0.0,0.0,0.0,0.0,0.0,0.0,0.0,0.0,0.0,0.0,0.0,0.0,0.0,0.0,0.0,0.0,0.0,0.0,0.0,0.0,0.0,0.0,0.0,0.0,0.0,0.0,0.0,0.0,0.0,0.0,0.0,0.0,0.0,0.0,0.0,0.0,0.0,0.0,0.0,0.0,0.0,0.0,0.0,0.0,0.0,0.0,0.0,0.0,0.0,0.0,0.0,0.0,0.0,0.0,0.0,0.0,0.0,0.0,0.0,0.0,0.0,0.0,0.0,0.0,0.0,0.0,0.0,-0.4862,-0.6007,-0.7005,-0.7463,-0.7521,-0.7628,-0.7901,-0.6787,-0.6013,0.0,0.0,0.0,0.0,0.0,0.0,0.0,0.0,0.0,0.0,0.0,0.0,0.0,0.0,0.0,0.0,0.0,0.0,0.0,0.0,0.0,0.0,0.0,0.0,0.0,0.0,0.0,0.0,0.0,0.0,0.0,0.0,0.0,0.0,0.0,0.0,0.0,0.0,0.0,0.0,0.0,0.0,0.0,0.0,0.0,0.0,0.0,0.0,0.0,0.0,0.0,0.0,0.0,0.0,0.0,0.0,0.0,0.0,0.0,0.0,0.0,0.0,0.0,0.0,0.0,0.0,0.0,0.0,0.0,0.0,0.0,0.0,0.0,0.0,0.0,0.0,0.0,0.0,0.0,0.0,0.0,0.0,0.0,0.0,0.0,0.0,0.0,0.0,0.0,0.0,0.0,0.0,0.0,0.0,0.0,0.0,0.0,0.0,0.0,0.0,0.0,0.0,0.0,-0.4792,-0.6013,-0.7011,-0.7463,-0.7568,-0.7729,-0.7901,-0.7321,-0.6605,-0.578,0.0,0.0,0.0,0.0,0.0,0.0,0.0,0.0,0.0,0.0,0.0,0.0,0.0,0.0,0.0,0.0,0.0,0.0,0.0,0.0,0.0,0.0,0.0,0.0,0.0,0.0,0.0,0.0,0.0,0.0,0.0,0.0,0.0,0.0,0.0,0.0,0.0,0.0,0.0,0.0,0.0,0.0,0.0,0.0,0.0,0.0,0.0,0.0,0.0,0.0,0.0,0.0,0.0,0.0,0.0,0.0,0.0,0.0,0.0,0.0,0.0,0.0,0.0,0.0,0.0,0.0,0.0,0.0,0.0,0.0,0.0,0.0,0.0,0.0,0.0,0.0,0.0,0.0,0.0,0.0,0.0,0.0,0.0,0.0,0.0,0.0,0.0,0.0,0.0,0.0,0.0,0.0,0.0,0.0,0.0,0.0,0.0,0.0,0.0,0.0,0.0,0.0,-0.4968,-0.6113,-0.7075,-0.7475,-0.7568,-0.7676,-0.7735,-0.7419,-0.6829,-0.5859,0.0,0.0,0.0,0.0,0.0,0.0,0.0,0.0,0.0,0.0,0.0,0.0,0.0,0.0,0.0,0.0,0.0,0.0,0.0,0.0,0.0,0.0,0.0,0.0,0.0,0.0,0.0,0.0,0.0,0.0,0.0,0.0,0.0,0.0,0.0,0.0,0.0,0.0,0.0,0.0,0.0,0.0,0.0,0.0,0.0,0.0,0.0,0.0,0.0,0.0,0.0,0.0,0.0,0.0,0.0,0.0,0.0,0.0,0.0,0.0,0.0,0.0,0.0,0.0,0.0,0.0,0.0,0.0,0.0,0.0,0.0,0.0,0.0,0.0,0.0,0.0,0.0,0.0,0.0,0.0,0.0,0.0,0.0,0.0,0.0,0.0,0.0,0.0,0.0,0.0,0.0,0.0,0.0,0.0,0.0,0.0,0.0,0.0,0.0,0.0,0.0,0.0,-0.5204,-0.6299,-0.7171,-0.7473,-0.7524,-0.7524,-0.7555,-0.7279,-0.6815,-0.6072,0.0,0.0,0.0,0.0,0.0,0.0,0.0,0.0,0.0,0.0,0.0,0.0,0.0,0.0,0.0,0.0,0.0,0.0,0.0,0.0,0.0,0.0,0.0,0.0,0.0,0.0,0.0,0.0,0.0,0.0,0.0,0.0,0.0,0.0,0.0,0.0,0.0,0.0,0.0,0.0,0.0,0.0,0.0,0.0,0.0,0.0,0.0,0.0,0.0,0.0,0.0,0.0,0.0,0.0,0.0,0.0,0.0,0.0,0.0,0.0,-0.3619,-0.3229,0.0,0.0,0.0,0.0,0.0,0.0,0.0,0.0,0.0,0.0,0.0,0.0,0.0,0.0,0.0,0.0,0.0,0.0,0.0,0.0,0.0,0.0,0.0,0.0,0.0,0.0,0.0,0.0,0.0,0.0,0.0,0.0,0.0,0.0,0.0,0.0,0.0,0.0,0.0,0.0,-0.5094,-0.6453,-0.7484,-0.7622,-0.7818,-0.7851,-0.7823,-0.7415,-0.685,-0.6105,-0.5417,0.0,0.0,0.0,0.0,0.0,0.0,0.0,0.0,0.0,0.0,0.0,0.0,0.0,0.0,0.0,0.0,0.0,0.0,0.0,0.0,0.0,0.0,0.0,0.0,0.0,0.0,0.0,0.0,0.0,0.0,0.0,0.0,0.0,0.0,0.0,0.0,0.0,0.0,0.0,0.0,0.0,0.0,0.0,0.0,0.0,0.0,0.0,0.0,0.0,0.0,0.0,0.0,0.0,0.0,0.0,0.0,0.0,0.0,0.0,-0.4412,-0.424,0.0,0.0,0.0,0.0,0.0,0.0,0.0,0.0,0.0,0.0,0.0,0.0,0.0,0.0,0.0,0.0,0.0,0.0,0.0,0.0,0.0,0.0,0.0,0.0,0.0,0.0,0.0,0.0,0.0,0.0,0.0,0.0,0.0,0.0,0.0,0.0,0.0,0.0,0.0,0.0,-0.5624,-0.6721,-0.7577,-0.7816,-0.7779,-0.7757,-0.7688,-0.7383,-0.6965,-0.6412,-0.5775,0.0,0.0,0.0,0.0,0.0,0.0,0.0,0.0,0.0,0.0,0.0,0.0,0.0,0.0,0.0,0.0,0.0,0.0,0.0,0.0,0.0,0.0,0.0,0.0,0.0,0.0,0.0,0.0,0.0,0.0,0.0,0.0,0.0,0.0,0.0,0.0,0.0,0.0,0.0,0.0,0.0,0.0,0.0,0.0,0.0,0.0,0.0,0.0,0.0,0.0,0.0,0.0,0.0,-0.496,-0.5055,-0.5008,-0.5429,-0.5498,-0.5312,-0.528,-0.5348,-0.5437,-0.4911,0.0,0.0,0.0,0.0,0.0,0.0,0.0,0.0,0.0,0.0,0.0,0.0,0.0,0.0,0.0,0.0,0.0,0.0,0.0,0.0,0.0,0.0,-0.6502,-0.6606,-0.6816,-0.6728,-0.5784,0.0,0.0,0.0,0.0,0.0,0.0,0.0,0.0,0.0,0.0,0.0,-0.6213,-0.6966,-0.7602,-0.7947,-0.7717,-0.7519,-0.7422,-0.7276,-0.7057,-0.6716,-0.6186,-0.5626,0.0,0.0,0.0,0.0,0.0,0.0,0.0,0.0,0.0,0.0,0.0,0.0,0.0,0.0,0.0,0.0,0.0,0.0,0.0,0.0,0.0,0.0,0.0,0.0,0.0,0.0,0.0,0.0,0.0,0.0,0.0,0.0,-0.298,-0.3396,0.0,0.0,0.0,0.0,0.0,0.0,0.0,0.0,0.0,0.0,0.0,0.0,0.0,-0.4719,-0.4672,-0.525,-0.5535,-0.5445,-0.5931,-0.6192,-0.625,-0.6485,-0.6555,-0.6609,-0.6615,0.0,-0.5775,-0.5641,0.0,0.0,0.0,0.0,0.0,0.0,0.0,0.0,0.0,0.0,0.0,0.0,0.0,0.0,0.0,0.0,0.0,0.0,0.0,0.0,0.0,0.0,-0.7574,-0.764,-0.7745,-0.7736,-0.7507,-0.6573,-0.5634,-0.5212,-0.5029,-0.47,0.0,0.0,0.0,0.0,0.0,0.0,-0.6298,-0.7093,-0.767,-0.7896,-0.7911,-0.7792,-0.7498,-0.7333,-0.7115,-0.6726,-0.6598,-0.6293,-0.5615,-0.5203,0.0,0.0,0.0,0.0,0.0,0.0,0.0,0.0,0.0,0.0,0.0,0.0,0.0,0.0,0.0,0.0,0.0,0.0,0.0,0.0,0.0,0.0,0.0,0.0,0.0,0.0,0.0,0.0,0.0,-0.3042,-0.3566,-0.3711,-0.4048,-0.4106,0.0,0.0,0.0,0.0,0.0,0.0,0.0,0.0,0.0,-0.5681,-0.5777,-0.5854,-0.6,-0.6399,-0.6531,-0.6476,-0.69,-0.6989,-0.6926,-0.7084,-0.7148,-0.7118,-0.7392,-0.733,-0.6953,-0.6458,-0.6088,-0.588,0.0,0.0,0.0,0.0,-0.6535,-0.6507,-0.6952,-0.7135,-0.7066,-0.69,0.0,0.0,0.0,0.0,0.0,0.0,0.0,-0.7078,-0.7314,-0.7659,-0.7981,-0.8103,-0.8127,-0.8061,-0.8132,-0.7469,-0.6754,-0.6124,-0.6091,-0.5805,-0.4843,-0.4785,0.0,0.0,0.0,-0.6087,-0.6859,-0.7431,-0.7907,-0.8207,-0.8184,-0.7995,-0.7724,-0.7504,-0.7265,-0.6966,-0.6701,-0.6381,-0.5996,-0.5368,-0.4759,0.0,0.0,0.0,0.0,0.0,0.0,0.0,0.0,0.0,0.0,0.0,0.0,0.0,0.0,0.0,0.0,0.0,0.0,0.0,0.0,0.0,0.0,0.0,0.0,0.0,0.0,0.0,0.0,-0.3656,-0.4176,-0.424,-0.4788,-0.4979,0.0,0.0,0.0,0.0,0.0,0.0,-0.5391,-0.5703,-0.6159,-0.6692,-0.6763,-0.6915,-0.7247,-0.7256,-0.7308,-0.7402,-0.7503,-0.7503,-0.7402,-0.7594,-0.7597,-0.7496,-0.7969,-0.8063,-0.8016,-0.7336,-0.6998,-0.6914,-0.6991,-0.7099,-0.7167,-0.7737,-0.7832,-0.7778,-0.818,-0.8317,-0.8334,-0.8085,-0.7647,-0.7124,-0.6662,0.0,0.0,0.0,0.0,-0.7644,-0.8018,-0.8207,-0.8349,-0.8453,-0.8333,-0.8259,-0.8481,-0.8208,-0.7803,-0.7044,-0.6974,-0.6719,-0.5784,-0.5642,0.0,-0.581,-0.6135,-0.6614,-0.7449,-0.7737,-0.8054,-0.842,-0.8306,-0.8112,-0.7838,-0.7623,-0.7365,-0.7117,-0.6755,-0.6432,-0.6152,-0.5492,-0.4914,-0.4471,0.0,0.0,0.0,0.0,0.0,0.0,0.0,0.0,0.0,0.0,0.0,0.0,0.0,0.0,0.0,0.0,0.0,0.0,0.0,0.0,0.0,0.0,0.0,0.0,0.0,0.0,0.0,0.0,0.0,-0.5393,-0.5712,0.0,0.0,0.0,0.0,-0.5293,-0.5659,-0.6007,-0.643,-0.6703,-0.7021,-0.7316,-0.7346,-0.7523,-0.7959,-0.7688,-0.7691,-0.7969,-0.7691,-0.7691,-0.7973,-0.7973,-0.8157,-0.834,-0.834,-0.834,-0.8337,-0.8296,-0.8272,-0.8117,-0.8645,-0.8625,-0.8558,-0.9018,-0.9196,-0.9191,-0.9222,-0.9231,-0.9226,-0.9196,-0.8595,-0.7715,-0.7586,-0.7381,0.0,0.0,-0.8241,-0.8705,-0.888,-0.8968,-0.8926,-0.8732,-0.8685,-0.8685,-0.8685,-0.868,-0.8486,-0.7853,-0.7437,-0.7099,-0.6791,0.0,-0.6464,-0.669,-0.6884,-0.7186,-0.7762,-0.7897,-0.7991,-0.821,-0.8236,-0.8112,-0.7838,-0.7623,-0.7365,-0.7117,-0.6853,-0.6493,-0.6021,-0.558,-0.5139,-0.47,-0.3965,0.0,0.0,0.0,0.0,0.0,0.0,0.0,0.0,0.0,0.0,0.0,0.0,0.0,0.0,0.0,0.0,0.0,0.0,0.0,0.0,0.0,0.0,0.0,0.0,0.0,0.0,0.0,0.0,-0.5873,-0.6423,0.0,-0.6303,-0.6238,-0.6247,-0.637,-0.6582,-0.6827,-0.7171,-0.7417,-0.759,-0.7794,-0.799,-0.8018,-0.7976,-0.8073,-0.8073,-0.7979,-0.8073,-0.8171,-0.8268,-0.8459,-0.8556,-0.8653,-0.8851,-0.8952,-0.8952,-0.9146,-0.8878,-0.8344,-0.8814,-0.8954,-0.8993,-0.9574,-0.9732,-0.9648,-0.9679,-0.9557,-0.9487,-0.9234,-0.8963,-0.8706,-0.8431,-0.8234,-0.8169,-0.8236,-0.8438,-0.8686,-0.8627,-0.8686,-0.8816,-0.8755,-0.8703,-0.8703,-0.8703,-0.8703,-0.8637,-0.8415,-0.8136,-0.7784,-0.71,-0.7026,-0.7097,-0.6944,-0.7026,-0.7343,-0.7894,-0.7935,-0.8089,-0.8366,-0.8376,-0.8313,-0.8048,-0.7772,-0.737,-0.7014,-0.6579,-0.6141,-0.5798,-0.5353,-0.4956,-0.4654,-0.402,-0.3456,0.0,0.0,0.0,0.0,0.0,0.0,0.0,0.0,0.0,0.0,0.0,0.0,0.0,0.0,0.0,0.0,0.0,0.0,0.0,0.0,0.0,0.0,0.0,0.0,0.0,0.0,-0.612,-0.6404,-0.6919,-0.7288,-0.7001,-0.7072,-0.7151,-0.7327,-0.7411,-0.7584,-0.7832,-0.8028,-0.8227,-0.823,-0.8432,-0.8531,-0.8439,-0.8531,-0.8432,-0.8233,-0.8432,-0.8531,-0.8528,-0.8829,-0.9027,-0.9126,-0.9232,-0.9335,-0.9331,-0.9529,-0.9291,-0.8985,-0.9366,-0.9556,-0.9733,-1.0112,-1.022,-1.0111,-0.9921,-0.9839,-0.9664,-0.9402,-0.9361,-0.9288,-0.8989,-0.881,-0.8653,-0.8564,-0.8644,-0.8763,-0.8563,-0.8613,-0.8737,-0.8674,-0.8627,-0.8627,-0.8699,-0.8703,-0.8703,-0.8703,-0.8468,-0.8131,-0.7508,-0.7446,-0.7423,-0.7273,-0.7333,-0.7494,-0.7956,-0.8032,-0.8068,-0.8322,-0.8376,-0.8281,-0.8105,-0.7759,-0.7406,-0.6965,-0.6406,-0.6022,-0.5803,-0.5286,-0.4925,-0.4723,-0.4176,-0.3629,-0.3134,0.0,0.0,0.0,0.0,0.0,0.0,0.0,0.0,0.0,0.0,0.0,0.0,0.0,0.0,0.0,0.0,0.0,0.0,0.0,0.0,0.0,0.0,0.0,-0.5456,-0.6069,-0.6592,-0.6858,-0.7466,-0.7808,-0.7788,-0.7844,-0.7928,-0.8229,-0.8225,-0.829,-0.8432,-0.8634,-0.8832,-0.8832,-0.8836,-0.8943,-0.9252,-0.8943,-0.884,-0.884,-0.884,-0.884,-0.884,-0.9149,-0.9343,-0.9636,-0.9636,-0.9632,-0.9628,-0.9628,-0.9727,-1.0019,-1.0314,-1.0609,-1.0756,-1.0646,-1.0589,-1.0527,-1.0112,-1.0052,-0.996,-1.0043,-0.9733,-0.9324,-0.9315,-0.9002,-0.8682,-0.8673,-0.8832,-0.895,-0.8754,-0.8709,-0.8658,-0.8674,-0.8556,-0.8484,-0.8627,-0.8708,-0.8713,-0.8703,-0.8398,-0.813,-0.8127,-0.7815,-0.754,-0.7678,-0.7674,0.0,-0.8001,-0.7972,-0.7961,-0.8007,-0.8107,-0.8084,-0.7804,-0.7638,-0.7415,-0.7006,-0.6507,-0.6075,-0.5916,-0.5467,-0.5074,-0.4883,-0.438,-0.3935,-0.3598,0.0,0.0,0.0,0.0,0.0,0.0,0.0,0.0,0.0,0.0,0.0,0.0,0.0,0.0,0.0,0.0,0.0,0.0,0.0,0.0,0.0,0.0,-0.641,-0.6368,-0.685,-0.7506,-0.7941,-0.8294,-0.841,-0.8421,-0.8592,-0.8686,-0.8699,-0.8809,-0.8866,-0.8906,-0.9008,-0.9008,-0.9008,-0.9332,-0.9503,-0.9301,-0.9503,-0.9396,-0.9194,-0.9396,-0.9499,-0.9499,-0.9808,-0.9843,-0.9815,-0.9815,-0.9842,-0.992,-0.992,-1.0117,-1.0507,-1.0216,-1.0413,-1.0788,-1.0775,-1.0646,-1.0485,-1.0499,-1.0215,-0.9892,-1.0003,-0.9913,-0.9756,-0.9606,-0.9331,-0.905,-0.8582,-0.8626,-0.8666,-0.8389,-0.836,-0.8492,-0.8674,-0.8508,-0.842,-0.8655,-0.8672,-0.8737,-0.8732,-0.8585,-0.8482,-0.8349,-0.8243,-0.8101,-0.7822,-0.7765,-0.7799,-0.7801,-0.7773,-0.7827,-0.8012,-0.8047,-0.7957,-0.7772,-0.7424,-0.7052,-0.6659,-0.6145,-0.5768,-0.5708,-0.5262,-0.4939,-0.4694,-0.4254,-0.3968,0.0,0.0,0.0,0.0,0.0,0.0,0.0,0.0,0.0,0.0,0.0,0.0,0.0,0.0,0.0,0.0,0.0,0.0,0.0,0.0,0.0,0.0,-0.6816,-0.7364,-0.7431,-0.7657,-0.799,-0.8592,-0.871,-0.8873,-0.898,-0.9038,-0.919,-0.9317,-0.9235,-0.9286,-0.9389,-0.9422,-0.9482,-0.9482,-0.9686,-0.9737,-0.9637,-0.9815,-0.9851,-0.9541,-0.9851,-0.9955,-0.9851,-1.006,-1.0103,-1.0002,-1.01,-1.0205,-1.0141,-1.0237,-1.0487,-1.0806,0.0,0.0,0.0,0.0,-1.0747,-1.0543,-1.0518,-1.0281,-1.006,-1.0022,-1.0038,-0.9927,-0.9809,-0.9625,-0.9349,-0.8905,-0.8896,-0.8884,-0.8532,-0.8502,-0.8635,-0.8913,-0.8598,-0.8352,-0.8782,-0.8714,-0.8627,-0.8651,-0.8703,0.0,-0.8548,-0.8454,-0.8236,-0.7884,-0.7784,-0.7766,-0.7778,-0.7678,-0.7692,-0.7888,-0.7912,-0.7792,-0.7531,-0.7288,0.0,0.0,0.0,-0.5885,-0.5634,-0.5396,0.0,0.0,0.0,-0.4504,-0.4645,-0.4353,0.0,0.0,-0.3969,-0.3847,0.0,0.0,0.0,0.0,0.0,0.0,0.0,0.0,0.0,0.0,0.0,0.0,0.0,0.0,0.0,0.0,-0.771,-0.8434,-0.8614,-0.8324,-0.8407,-0.8971,-0.9017,-0.9032,-0.9354,-0.9378,-0.9411,-0.9817,-0.9575,-0.9556,-0.9855,0.0,0.0,0.0,0.0,-0.9977,-0.9977,-1.014,-1.0116,-0.991,-1.0116,-1.0116,-0.991,-1.0221,-1.0314,-1.0297,-1.0606,-1.0608,-1.0438,-1.0619,-1.0793,-1.0801,-1.0779,-1.0965,-1.1137,-1.0934,-1.0726,-1.0513,-1.0338,0.0,0.0,-1.01,-1.0038,-1.0033,-0.9923,-0.979,-0.9555,-0.9367,-0.9308,-0.9246,-0.9082,-0.8828,-0.8728,-0.9127,-0.8671,-0.8224,-0.8834,-0.8627,-0.843,-0.8632,-0.8703,-0.8703,-0.8703,-0.8551,-0.8263,-0.7934,-0.7841,-0.7808,-0.7829,-0.7658,-0.7615,-0.7806,-0.7745,0.0,-0.7204,-0.7213,-0.7028,-0.6647,-0.6432,-0.6134,-0.5711,-0.568,-0.5611,-0.5517,-0.5261,-0.5277,-0.5638,-0.5461,-0.529,-0.5165,-0.4505,-0.4342,0.0,0.0,0.0,0.0,0.0,0.0,0.0,0.0,0.0,0.0,0.0,0.0,0.0,0.0,0.0,-0.7946,-0.85,-0.9071,-0.9796,-0.9614,-0.9399,-0.9541,-0.9436,-0.9514,-0.9834,-0.9865,-0.9931,-1.0151,-1.0023,-0.9989,-1.0068,-1.0266,-1.0262,-1.0111,-1.0387,-1.0538,-1.0538,-1.057,-1.059,-1.0482,-1.059,0.0,-1.0804,-1.0912,-1.0837,-1.0809,-1.1022,-1.1015,-1.0819,-1.0977,-1.1093,-1.1082,-1.0918,-1.0761,-1.0642,-1.0623,-1.0504,-1.0324,-1.0286,-1.0159,-1.0095,-1.0052,-1.0038,-0.9923,-0.9757,-0.9677,0.0,-0.9193,-0.9196,-0.9246,-0.9082,-0.872,-0.852,-0.8768,-0.8343,-0.7953,-0.8422,-0.8476,-0.8434,-0.866,-0.8703,-0.8703,-0.8703,-0.8551,-0.8389,-0.8273,-0.8152,-0.8107,-0.8282,-0.8075,-0.7987,-0.802,-0.788,-0.765,-0.7218,-0.7213,-0.7028,-0.6647,-0.6492,-0.6207,-0.5903,-0.5998,-0.5937,-0.5588,-0.5441,-0.5277,-0.5211,-0.5097,-0.4979,-0.4965,-0.4939,-0.4859,0.0,0.0,0.0,0.0,0.0,0.0,0.0,0.0,0.0,0.0,0.0,-0.6329,0.0,0.0,-0.7749,-0.8578,-0.8967,-0.947,-0.9988,-0.9965,-0.9985,-1.0011,-0.9888,-0.9812,-1.0112,-1.0124,-1.0159,-1.0249,-1.0175,-1.0193,-1.0218,-1.0325,-1.0391,-1.0302,-1.0469,-1.0562,-1.0562,-1.0647,-1.0692,-1.0692,-1.0692,-1.0802,-1.0911,-1.0911,-1.0971,-1.0995,-1.132,-1.1367,-1.1173,-1.118,-1.1194,-1.1175,-1.0972,-1.0861,-1.084,-1.0924,-1.0848,-1.075,-1.0553,-1.0376,-1.0269,-1.0071,-1.0038,-1.0019,-0.9828,-0.98,-0.9776,-0.9583,-0.9555,-0.9555,-0.9386,-0.8984,-0.8755,-0.8841,-0.829,-0.789,-0.8338,-0.832,-0.8289,-0.8498,-0.8627,-0.8703,-0.8703,-0.8551,-0.8403,-0.8403,-0.8327,-0.8295,-0.8416,-0.8319,-0.821,-0.8101,-0.8044,-0.776,-0.7222,-0.7044,-0.6797,-0.654,-0.6411,-0.631,-0.6089,-0.6148,-0.6081,-0.5769,-0.556,-0.5538,-0.5571,-0.5304,-0.5216,-0.5355,-0.5077,-0.4919,0.0,0.0,0.0,0.0,0.0,0.0,0.0,0.0,-0.6227,-0.679,-0.7007,-0.7275,-0.7875,-0.8085,-0.8357,-0.8944,-0.9419,-0.9678,-0.9969,-1.0189,-1.0366,-1.0366,-1.0237,-1.0097,-1.0351,-1.0366,-1.0366,-1.0366,-1.0366,-1.0351,-1.0319,-1.0434,-1.0469,-1.0436,-1.0469,-1.0485,-1.0485,-1.0623,-1.0692,-1.0692,-1.0802,-1.0802,-1.0802,-1.0802,-1.0911,-1.1131,-1.1459,-1.1585,-1.1544,-1.1419,-1.1331,-1.1241,-1.108,-1.109,-1.1184,-1.1104,-1.1163,-1.108,-1.0681,-1.0591,-1.0592,-1.0109,-1.0038,-1.0038,-1.0038,-1.0038,-1.0038,-1.0038,-1.0038,-0.9951,-0.9689,-0.928,-0.8958,-0.8963,-0.837,-0.7969,-0.836,-0.8291,-0.8231,-0.8462,-0.8579,-0.8703,-0.8703,-0.8551,-0.8479,-0.8479,-0.8403,-0.8403,-0.8479,-0.8491,-0.8377,-0.8308,-0.8166,-0.787,-0.7288,-0.6937,-0.6679,-0.6486,-0.6416,-0.6366,-0.6332,-0.623,-0.6153,-0.5937,-0.5773,-0.5756,-0.5956,-0.5557,-0.5504,-0.5714,-0.5119,-0.4913,-0.6088,-0.5605,0.0,-0.66,-0.6537,-0.6577,0.0,0.0,-0.7896,-0.8364,-0.8476,-0.8509,-0.8594,-0.8625,-0.8904,-0.9621,-0.9775,-0.9998,-1.0526,-1.0668,-1.0692,-1.0692,-1.0457,-1.0343,-1.0582,-1.0476,-1.0366,-1.0692,-1.0476,-1.03,-1.0365,-1.059,-1.0595,-1.044,-1.0582,-1.0664,-1.0664,-1.0684,-1.0692,-1.0692,-1.0911,-1.1017,-1.1017,-1.135,-1.135,-1.1131,-1.1459,-1.1774,-1.1995,-1.2054,-1.1817,-1.1482,-1.1458,-1.1345,-1.1151,-1.0778,-1.0812,-1.0949,-1.0467,-1.0471,-1.0597,-1.0109,-1.0038,-1.0038,-1.0038,-1.0038,-1.0038,-1.0038,-1.0038,-0.9951,-0.9689,-0.928,-0.8963,-0.8704,-0.8296,-0.8069,-0.8565,-0.8493,-0.851,-0.883,-0.8831,-0.8703,-0.8703,-0.8703,-0.8703,-0.8703,-0.8475,-0.8556,-0.887,-0.8765,-0.874,-0.889,-0.8455,-0.7955,-0.7489,-0.7073,-0.6881,-0.6815,-0.6552,-0.6493,-0.6656,-0.6485,-0.6344,-0.618,-0.5948,-0.5749,-0.5452,-0.5435,-0.5369,-0.5375,-0.5287,-0.5219,-0.6877,0.0,0.0,0.0,-0.7332,-0.7471,-0.8368,-0.84,-0.8378,-0.8849,-0.8817,-0.8845,-0.9261,-0.917,-0.93,0.0,-1.0036,-1.0257,-1.0692,-1.0711,-1.065,-1.0542,-1.0448,-1.0531,-1.0534,-1.0526,-1.0433,-1.0325,-1.0413,-1.0445,-1.0373,-1.0546,-1.066,-1.0586,-1.0655,-1.0692,-1.0692,-1.0692,-1.0692,-1.0692,-1.0802,-1.0911,-1.0911,-1.1021,-1.124,-1.145,-1.1562,-1.1791,-1.2129,-1.2002,-1.185,-1.168,-1.1562,-1.1463,-1.1345,-1.1047,-1.1143,-1.1313,-1.0851,-1.0828,-1.098,-1.0524,-1.031,-1.0291,-1.0173,-1.014,-1.0112,-1.0071,-1.0038,-0.9951,-0.9689,-0.937,-0.9052,-0.8709,-0.8484,-0.8431,-0.8522,-0.8616,-0.876,-0.8811,-0.8876,-0.885,-0.8722,-0.8703,-0.8703,-0.8703,-0.8627,-0.8627,-0.8784,-0.8861,-0.8784,-0.8641,-0.814,-0.7663,-0.75,-0.7242,-0.7046,-0.6979,-0.6777,-0.6679,-0.6692,-0.6717,-0.67,-0.6495,-0.6282,-0.601,-0.5749,-0.5579,-0.55,-0.5425,-0.5124,-0.495,-0.7314,0.0,0.0,-0.7848,-0.8196,-0.8487,-0.867,-0.8779,-0.9008,-0.9406,-0.93,-0.9184,-0.9585,-0.9527,-0.9465,-1.0008,-1.0151,-1.0292,-1.0623,-1.0621,-1.0646,-1.0539,-1.0485,-1.0506,-1.0489,-1.0551,-1.0489,-1.0142,-1.0409,-1.0514,-1.0296,-1.0558,-1.0692,-1.0692,-1.0692,-1.0692,-1.0692,-1.0745,-1.0745,-1.0692,-1.0851,-1.0851,-1.0692,-1.0692,-1.1021,-1.1559,-1.1639,-1.1903,-1.2209,-1.2054,-1.1954,-1.1893,-1.1746,-1.1619,-1.1496,-1.134,-1.1444,-1.1542,-1.1106,-1.1075,-1.1208,-1.0779,-1.0575,-1.0546,-1.04,-1.0357,-1.031,-1.0102,-1.0041,-1.0027,-0.9708,-0.9411,-0.9226,-0.879,-0.8687,-0.8761,-0.8681,-0.8883,-0.9046,-0.9066,-0.9148,-0.9118,-0.8904,-0.8865,-0.8846,-0.8708,-0.8703,-0.8703,-0.8703,-0.8861,-0.8784,-0.8351,-0.7907,-0.7655,-0.7531,-0.739,-0.7242,-0.7034,-0.7034,-0.699,-0.6838,-0.6915,-0.6905,-0.6813,-0.6546,-0.6219,-0.5966,-0.5711,-0.5614,-0.557,-0.504,-0.487,0.0,0.0,-0.7597,-0.8432,-0.9019,-0.9399,-0.9716,-1.0159,-1.0347,-1.0312,-1.0045,-0.9894,-0.9518,-0.9344,-0.9343,-0.9343,-0.9682,-1.0111,-1.0333,-1.0436,-1.0539,-1.0753,-1.0485,-1.0302,0.0,-1.0385,-1.0281,-1.0585,-1.0445,-1.0444,-1.0444,-1.0603,-1.0692,-1.0692,-1.0692,-1.0692,-1.0692,-1.0871,-1.0871,-1.0696,-1.1205,-1.1085,-1.0692,-1.0692,-1.1021,-1.1568,-1.1559,-1.1887,-1.2427,-1.2422,-1.2304,-1.2129,-1.2124,-1.1874,-1.152,-1.151,-1.1572,-1.1551,-1.1058,-1.1082,-1.1233,-1.0734,-1.0575,-1.0575,-1.0565,-1.0565,-1.0523,-1.0319,-1.0263,-1.0216,-0.9745,-0.9428,-0.9253,-0.899,-0.8899,-0.8982,-0.9244,-0.9271,-0.9386,-0.9882,-0.979,-0.9656,-0.9444,-0.9409,-0.9257,-0.8732,-0.8703,-0.8703,-0.8703,-0.8703,-0.8552,-0.8134,-0.8107,-0.7952,-0.7544,-0.7522,-0.7442,-0.7216,-0.722,-0.7233,-0.7204,-0.7045,-0.6961,-0.6986,-0.6603,-0.6237,-0.581,-0.5661,-0.5664,-0.5706,-0.5083,-0.4968,0.0,0.0,-0.844,-0.9225,-0.945,-0.9544,-0.9548,-0.9835,-1.0047,-0.9991,-0.9764,-0.9526,-0.9669,-0.9457,-0.9307,-0.9509,-0.9848,-1.0188,-1.0416,-1.0539,-1.0707,-1.0687,-1.0613,0.0,0.0,0.0,0.0,-1.0612,-1.0687,-1.0753,-1.0971,-1.0816,-1.0802,-1.0911,-1.0802,-1.0802,-1.0907,-1.1209,-1.1209,-1.1021,-1.0974,-1.0974,-1.1017,-1.1017,-1.1236,-1.1896,-1.1896,-1.2114,-1.2441,-1.2441,-1.2398,-1.2313,-1.2035,-1.1931,-1.1879,-1.1458,-1.1449,-1.1477,-1.1165,-1.1288,-1.1472,-1.1106,-1.0986,-1.0962,-1.0825,-1.0787,-1.0745,-1.0532,-1.0285,-0.9989,-0.9826,-0.9531,-0.9262,-0.9174,-0.9257,-0.9432,-0.9519,-0.9639,-0.9809,-1.001,-0.9839,-0.9639,-0.9585,-0.9354,-0.9027,-0.8737,-0.8703,-0.8627,-0.8551,-0.8403,-0.8228,-0.7942,-0.7778,-0.7677,-0.7693,-0.7573,-0.7423,-0.7204,-0.7204,-0.7086,-0.6849,-0.6899,-0.6878,-0.671,-0.6579,-0.6252,-0.5651,-0.5706,-0.5689,-0.5498,-0.5246,-0.5269,-0.8902,-0.9091,-0.9142,-0.9784,-0.9964,-0.9899,-0.9794,-0.9975,-1.0185,-0.9783,-0.9591,-0.9368,-0.9367,-0.9068,-0.8836,-0.9116,-0.9541,-0.9981,-1.0294,-1.0498,-1.0711,-1.0796,-1.0785,-1.0918,0.0,0.0,0.0,-1.0928,-1.1002,-1.1078,-1.1291,-1.1142,-1.1131,-1.124,-1.1131,-1.1131,-1.1236,-1.1496,-1.156,-1.1436,-1.119,-1.1131,-1.1236,-1.1236,-1.1564,-1.2005,-1.2005,-1.2114,-1.2441,-1.2441,-1.2441,-1.2413,-1.2143,-1.2035,-1.1983,-1.1657,-1.1524,-1.1487,-1.1269,-1.1292,-1.1389,-1.1296,-1.1194,-1.117,-1.1042,-1.1005,-1.0957,-1.0745,-1.0501,-1.0186,-0.9953,-0.9638,-0.9341,-0.9187,-0.9345,-0.9519,-0.9519,-0.9777,-1.0,-1.0118,-1.0008,-0.9856,-0.9805,-0.9428,-0.9086,-0.8944,-0.8787,-0.8639,-0.8412,-0.8178,-0.7953,-0.7804,-0.7642,-0.7561,-0.7646,-0.761,-0.7388,-0.7246,-0.7167,-0.7017,-0.6712,-0.6809,-0.6865,-0.6714,-0.6641,-0.6304,-0.5717,-0.5831,-0.5689,-0.543,-0.5396,-0.5361,-0.914,-0.9405,-0.9795,-1.0318,-1.057,-1.0582,-1.0355,-1.0588,-1.0663,-0.9801,-0.9613,-0.9292,0.0,0.0,-0.8086,-0.8329,-0.8913,-0.9543,-1.0087,-1.0318,-1.065,0.0,0.0,0.0,0.0,0.0,0.0,-1.1463,0.0,-1.1291,-1.1291,-1.1467,-1.1568,-1.1568,-1.1568,-1.1568,-1.1568,-1.1929,-1.2122,-1.2135,-1.1753,-1.1568,-1.1568,-1.1568,-1.1787,-1.2001,-1.2001,-1.2114,-1.2441,-1.2441,-1.2441,-1.2441,-1.2427,-1.2186,-1.1869,-1.2054,-1.1879,-1.152,-1.1302,-1.1227,-1.1227,-1.1217,-1.1212,-1.1208,-1.1198,-1.1194,-1.1156,-1.0967,-1.0901,-1.0712,-1.0045,-0.9741,-0.9494,-0.9054,-0.9178,-0.9349,-0.9349,-0.9689,-1.0038,-1.0294,-1.0294,-1.0225,-1.002,-0.9561,-0.9255,-0.9246,-0.8926,-0.8654,-0.8444,-0.8034,-0.7804,-0.7804,-0.7642,-0.7484,-0.7484,-0.7484,-0.7407,-0.7184,-0.718,-0.7099,-0.6861,-0.6865,-0.6861,-0.6865,-0.6714,-0.6412,-0.5966,-0.5959,-0.5815,-0.5545,-0.5535,-0.5391,-0.9721,-1.0054,-1.0294,-1.0558,-1.066,-1.0546,-1.0193,-1.0214,-1.018,-0.912,-0.879,-0.8385,0.0,0.0,0.0,-0.7926,-0.8775,0.0,-1.0087,-1.0318,0.0,-1.1185,0.0,-1.1398,-1.2032,-1.2168,0.0,0.0,-1.1962,-1.1713,-1.1926,-1.1684,-1.1678,-1.1896,-1.1678,-1.1678,-1.1896,-1.1995,-1.2194,-1.2483,-1.1864,-1.1678,-1.1896,-1.1896,-1.2005,-1.2332,-1.2332,-1.2332,-1.2441,-1.2441,-1.2441,-1.2422,-1.2276,-1.2243,-1.2252,-1.1992,-1.1935,-1.195,-1.1732,-1.1657,-1.1633,-1.1482,-1.1435,-1.1406,-1.1246,-1.1194,-1.1184,-1.1132,-1.0913,-1.0487,-1.0189,-0.9846,-0.953,-0.94,-0.9628,-0.9864,-1.0038,-1.012,-1.0294,-1.0554,-1.0299,-0.9971,-0.9517,-0.9354,-0.9183,-0.8859,-0.8878,-0.8774,-0.8413,-0.8039,-0.7723,-0.7565,-0.7561,-0.7484,-0.7484,-0.7334,-0.7257,-0.7184,-0.7022,-0.6865,-0.6714,-0.6788,-0.6633,-0.617,-0.6483,-0.6311,-0.5739,-0.5934,-0.5917,-0.5831,-0.5874,-0.5806,-1.0152,-1.0412,-1.057,-1.0668,-1.0635,-1.0381,-0.9839,-0.9673,-0.9348,-0.822,-0.78,0.0,0.0,0.0,0.0,0.0,0.0,0.0,-0.9839,-1.0221,-1.0543,0.0,-1.1333,0.0,-1.2195,-1.2487,-1.2767,0.0,-1.2571,-1.2288,-1.2422,-1.2192,-1.2101,-1.2223,-1.2005,-1.2092,-1.2492,-1.2311,-1.2427,-1.2831,-1.2197,-1.2005,-1.2223,-1.2223,-1.2223,-1.2441,-1.2441,-1.2441,-1.2441,-1.2441,-1.2441,-1.2427,-1.2313,-1.2285,-1.229,-1.2143,-1.211,-1.2134,-1.2101,-1.2035,-1.1912,-1.1411,-1.1353,-1.1354,-1.1133,-1.1096,-1.1194,-1.1194,-1.0919,-1.0619,-1.0336,-0.9894,-0.9579,-0.9496,-0.9643,-0.9805,-1.0069,-1.0187,-1.0207,-1.0386,-1.0212,-0.9918,-0.9461,-0.9443,-0.9316,-0.895,-0.8857,-0.8761,-0.8487,-0.8162,-0.7811,-0.7569,-0.7484,-0.7484,-0.7484,-0.7334,-0.718,-0.7099,-0.6942,-0.6788,-0.6641,-0.6791,-0.671,-0.6251,-0.6483,-0.6297,-0.5778,-0.5987,-0.5954,-0.5757,-0.6033,-0.5987,-1.0351,-1.0526,-1.066,-1.066,-1.0546,-1.018,-0.9422,-0.9088,-0.8589,-0.718,0.0,-0.6384,-0.5843,-0.6006,-0.6404,-0.7041,0.0,-0.8751,-0.9486,-1.0034,-1.0486,-1.086,-1.1393,-1.1939,-1.2274,-1.2706,-1.3055,-1.3032,-1.3102,-1.3036,-1.2781,-1.2767,-1.2668,-1.2446,-1.2441,-1.2639,-1.306,-1.2649,-1.2649,-1.306,-1.2639,-1.2441,-1.2441,-1.2441,-1.2441,-1.2441,-1.2441,-1.2441,-1.2441,-1.2441,-1.2441,-1.2441,-1.2441,-1.2332,-1.22,-1.2375,-1.222,-1.2098,-1.238,-1.2182,-1.1934,-1.1369,-1.1211,-1.1231,-1.0909,-1.1002,-1.1194,-1.1194,-1.0998,-1.0765,-1.05,-1.0004,-0.9567,-0.9592,-0.947,-0.9486,-0.9871,-1.0014,-1.0038,-1.0038,-0.9951,-0.9864,-0.9602,-0.9492,-0.9401,-0.9257,-0.8918,-0.8624,-0.8539,-0.8302,-0.794,-0.7565,-0.7533,-0.7529,-0.7549,-0.7402,-0.7157,-0.6976,-0.6972,-0.6887,-0.6641,-0.681,-0.681,-0.6563,-0.6585,-0.644,-0.6061,-0.6193,-0.5974,-0.5583,-0.5987,-0.588,-1.0264,-1.0343,-1.0481,-1.0481,-1.0456,-1.0253,-0.9563,-0.8897,0.0,0.0,0.0,-0.5636,-0.5092,-0.5506,0.0,-0.668,0.0,0.0,0.0,0.0,-1.0199,0.0,0.0,0.0,0.0,0.0,0.0,0.0,0.0,-1.3343,-1.2795,-1.2767,-1.2668,-1.2446,-1.2441,-1.2639,-1.306,-1.2649,-1.2649,-1.306,-1.2639,-1.2441,-1.2441,-1.2441,-1.2441,-1.2441,-1.2441,-1.2441,-1.2441,-1.2441,-1.2441,-1.2441,-1.2441,-1.2417,-1.2394,-1.2427,-1.22,-1.2068,-1.2318,-1.1977,-1.1548,-1.1686,-1.1527,-1.143,-1.125,-1.1194,-1.1194,-1.1194,-1.0998,-1.0699,-1.0471,-1.0101,-0.9783,-0.9949,-0.9931,-1.0012,-1.0404,-1.0362,-1.0207,-1.0038,-0.9694,-0.9432,-0.9345,-0.9035,-0.8729,-0.8719,-0.8832,-0.8704,-0.8373,-0.8061,-0.7881,-0.791,-0.7797,-0.7768,-0.791,-0.7764,-0.7539,-0.7311,-0.73,-0.7085,-0.6644,-0.7085,-0.7014,-0.6338,-0.6616,-0.6606,-0.622,-0.6086,-0.5915,-0.579,-0.5767,-0.5544,-1.0422,-1.04,-1.0412,-1.0318,-1.0221,-0.9884,-0.8885,0.0,0.0,0.0,-0.5368,-0.495,-0.4593,0.0,0.0,0.0,0.0,0.0,0.0,0.0,0.0,0.0,0.0,0.0,0.0,0.0,0.0,0.0,0.0,-1.3419,-1.28,-1.2658,-1.244,-1.2223,-1.2332,-1.2529,-1.2831,-1.2651,-1.2651,-1.2831,-1.2749,-1.271,-1.2611,-1.272,-1.2767,-1.2767,-1.2767,-1.2706,-1.2611,-1.2611,-1.2545,-1.2441,-1.2441,-1.2441,-1.2441,-1.2441,-1.2267,-1.2084,-1.2295,-1.1954,-1.1421,-1.1845,-1.1699,-1.1231,-1.0932,-1.1002,-1.1096,-1.09,-1.0708,-1.0605,-1.0609,-1.0197,-0.9936,-1.0325,-1.0458,-1.0409,-1.0296,-1.0281,-1.0171,-0.9712,-0.9432,-0.9257,-0.899,-0.874,-0.8537,-0.8285,-0.8309,-0.834,-0.8084,-0.7858,-0.7698,-0.7851,-0.7702,-0.7605,-0.76,-0.7525,-0.7375,-0.7126,-0.7274,-0.724,-0.6845,-0.7152,-0.7074,-0.6688,-0.6681,-0.6482,-0.6099,-0.5941,-0.5786,-0.5553,-0.5559,-0.5559,-1.0348,-1.0356,-1.029,-1.0188,-0.9994,-0.9522,-0.8341,-0.746,0.0,0.0,-0.4763,-0.4455,-0.4353,0.0,0.0,0.0,0.0,0.0,0.0,0.0,0.0,0.0,0.0,0.0,0.0,0.0,0.0,0.0,0.0,-1.3343,-1.2857,-1.2668,-1.2445,-1.2183,-1.233,-1.2506,-1.2717,-1.2796,-1.2683,-1.2721,-1.295,-1.2984,-1.2838,-1.2994,-1.3065,-1.3065,-1.3065,-1.2951,-1.2767,-1.2655,-1.2524,-1.2327,-1.2327,-1.2327,-1.2327,-1.2327,-1.2229,-1.2121,-1.2167,-1.1875,-1.139,-1.1769,-1.1639,-1.1067,-1.0672,-1.0838,-1.0998,-1.0511,-1.0314,-1.0413,-1.0609,-1.0263,-0.9957,-1.055,-1.0651,-1.0533,-0.999,-0.997,-0.9887,-0.9376,-0.9257,-0.8995,-0.8636,-0.8548,-0.8288,-0.794,-0.7944,-0.7852,-0.7852,-0.765,-0.7606,-0.756,-0.7405,-0.7296,-0.7329,-0.7303,-0.7133,-0.6812,-0.7122,-0.7183,-0.6907,-0.7055,-0.7047,-0.6821,-0.6659,-0.6285,-0.5864,-0.5786,-0.5631,-0.5321,-0.5479,-0.5559,-0.9573,-0.9677,-0.9973,-1.0123,-0.9904,-0.9409,-0.8479,0.0,0.0,-0.5303,-0.4666,-0.4345,-0.4449,-0.4529,-0.4787,0.0,0.0,0.0,0.0,0.0,0.0,0.0,0.0,0.0,0.0,0.0,0.0,0.0,0.0,-1.3098,-1.3041,-1.3017,-1.2928,-1.2743,-1.2683,-1.268,-1.3065,-1.2817,-1.2817,-1.3065,-1.3065,-1.3055,-1.3041,-1.306,-1.3065,-1.3065,-1.2836,-1.2725,-1.2767,-1.2091,-1.1966,-1.2005,-1.2005,-1.2005,-1.2005,-1.2005,-1.1991,-1.1978,-1.1778,-1.1544,-1.1372,-1.1389,-1.1223,-1.1084,-1.1089,-1.0952,-1.0806,-1.0511,-1.0216,-1.0117,-1.0413,-1.0074,-0.9888,-1.0202,-1.0245,-1.0172,-0.9962,-0.9589,-0.9367,-0.9349,-0.899,-0.8636,-0.8636,-0.8288,-0.7944,-0.7944,-0.7944,-0.7852,-0.7577,-0.7485,-0.7386,-0.719,-0.7285,-0.7427,-0.7565,-0.745,-0.7215,-0.6812,-0.7038,-0.6893,-0.6362,-0.6634,-0.6558,-0.6038,-0.6159,-0.6076,-0.5637,-0.5476,-0.5321,-0.5321,-0.5321,-0.5321,-0.9495,-0.9633,-0.988,-0.9847,-0.9571,-0.9043,-0.8036,0.0,0.0,-0.5113,-0.4572,-0.4296,-0.4369,-0.4429,-0.4626,-0.5064,0.0,0.0,0.0,0.0,0.0,0.0,0.0,0.0,0.0,0.0,0.0,0.0,0.0,-1.3096,-1.2845,-1.295,-1.2861,-1.2208,-1.2502,-1.2602,-1.2488,-1.2373,-1.2488,-1.2836,-1.2966,-1.3142,-1.3263,-1.3386,-1.3325,-1.3198,-1.3077,-1.291,-1.2597,-1.2248,-1.2192,-1.2219,-1.211,-1.2005,-1.2005,-1.2219,-1.1928,-1.1635,-1.1746,-1.1445,-1.1074,-1.118,-1.1103,-1.0754,-1.0645,-1.0571,-1.0511,-1.0019,-0.992,-1.0019,-1.0117,-1.016,-1.0179,-1.0294,-1.0187,-0.9857,-0.949,-0.9121,-0.8775,-0.8488,-0.8292,-0.8113,-0.794,-0.7672,-0.7408,-0.7234,-0.7143,-0.6962,-0.6871,-0.6874,-0.6789,-0.6697,-0.6959,-0.7116,-0.7175,-0.7042,-0.6805,-0.6488,-0.6635,-0.661,-0.6235,-0.628,-0.6198,-0.607,-0.589,-0.5689,-0.5401,-0.5321,-0.5243,-0.5093,-0.5093,-0.5168,-0.9118,-0.9337,-0.9533,-0.9563,-0.9107,-0.8528,0.0,0.0,0.0,-0.4931,-0.4524,-0.4316,-0.4316,-0.4378,-0.454,-0.4767,-0.5068,-0.5486,0.0,0.0,0.0,0.0,0.0,0.0,0.0,0.0,0.0,0.0,-1.3016,-1.2908,-1.2625,-1.2832,-1.2666,-1.2068,-1.236,-1.2431,-1.2259,-1.2144,-1.2373,-1.2721,-1.2817,-1.3067,-1.348,-1.3622,-1.3569,-1.3315,-1.324,-1.3031,-1.2589,-1.228,-1.2192,-1.2114,-1.2005,-1.2005,-1.1896,-1.2114,-1.181,-1.1388,-1.152,-1.1229,-1.0864,-1.0971,-1.0695,-1.0364,-1.0238,-1.0271,-1.0216,-0.9727,-0.9821,-1.0019,-1.0019,-1.0216,-1.0395,-1.024,-0.9891,-0.9514,-0.9056,-0.8603,-0.8263,-0.7967,-0.7764,-0.7588,-0.7415,-0.7143,-0.6877,-0.67,-0.652,-0.6343,-0.6343,-0.6343,-0.6343,-0.6343,-0.6579,-0.6652,-0.661,-0.6595,-0.6456,-0.6105,-0.6291,-0.6298,-0.6096,-0.5956,-0.5874,-0.5934,-0.5762,-0.5574,-0.5297,-0.5297,-0.5221,-0.5067,-0.511,-0.5168,-0.8287,-0.8508,-0.8851,-0.9311,-0.8643,-0.7823,0.0,0.0,-0.5627,-0.4758,-0.4435,-0.4316,-0.4316,-0.432,-0.4394,-0.4747,-0.4962,-0.5397,-0.6294,0.0,0.0,0.0,0.0,0.0,0.0,0.0,0.0,0.0,-1.2504,0.0,-1.2625,-1.2627,-1.2658,-1.2611,-1.2454,-1.2463,-1.2607,-1.2259,-1.2488,-1.3069,-1.2933,-1.3136,-1.3688,-1.3688,-1.3688,-1.3679,-1.3117,-1.2794,-1.2589,-1.2055,-1.1744,-1.1678,-1.1896,-1.1787,-1.1568,-1.1568,-1.1564,-1.1455,-1.0911,-1.0795,-1.0864,-1.0543,-1.0188,-0.9888,-0.9884,-0.9962,-0.992,-0.9628,-0.9821,-1.0019,-1.0019,-1.0216,-1.0266,-0.9878,-0.9415,-0.8959,-0.8595,-0.8154,-0.7944,-0.7944,-0.7496,-0.7139,-0.7139,-0.6697,-0.6428,-0.6428,-0.6428,-0.6343,-0.6171,-0.6254,-0.6343,-0.6083,-0.6144,-0.6184,-0.6047,-0.6204,-0.6169,-0.5883,-0.608,-0.6093,-0.5948,-0.5836,-0.5607,-0.5323,-0.5731,-0.5715,-0.5184,-0.5431,-0.5431,-0.5181,-0.53,-0.5321,-0.7346,-0.7496,-0.7717,-0.7728,-0.7456,-0.6917,-0.6455,0.0,-0.5297,-0.4605,-0.431,-0.4148,-0.4148,-0.4148,-0.4387,-0.5032,-0.5177,-0.5494,0.0,0.0,0.0,0.0,0.0,0.0,0.0,0.0,0.0,0.0,-1.246,-1.2434,-1.2046,-1.239,-1.2544,-1.2267,-1.2337,-1.2229,-1.2029,-1.1789,-1.2016,-1.2721,-1.2556,-1.2881,-1.3688,-1.3688,-1.3494,-1.3113,-1.2789,-1.2474,-1.205,-1.1518,-1.1511,-1.1787,-1.1455,-1.1564,-1.1896,-1.1678,-1.1459,-1.1223,-1.0883,-1.0696,-1.0502,-1.014,-0.9981,-0.9864,-0.9746,-0.9673,-0.9727,-0.9628,-0.9529,-0.9529,-0.9727,-0.9525,-0.9276,-0.93,-0.8748,-0.8299,-0.804,-0.7699,-0.7319,-0.7146,-0.6969,-0.6877,-0.6697,-0.6343,-0.6169,-0.6169,-0.5902,-0.5727,-0.5822,-0.5727,-0.5727,-0.5822,-0.5874,-0.5973,-0.6351,-0.6344,-0.621,-0.5937,-0.5968,-0.5775,-0.5329,-0.5286,-0.521,-0.5093,-0.5246,-0.5266,-0.5069,-0.5228,-0.5311,-0.5306,-0.5187,-0.5134,0.0,-0.6716,-0.6754,-0.6781,-0.6503,0.0,0.0,0.0,-0.4809,-0.4256,-0.4035,-0.4011,-0.4011,-0.4054,-0.4284,-0.4903,-0.5052,-0.5381,0.0,0.0,0.0,0.0,0.0,0.0,0.0,0.0,0.0,0.0,-1.2115,-1.2094,-1.1604,-1.1983,-1.2008,-1.1819,-1.1996,-1.2005,-1.1697,-1.1513,-1.1885,-1.2602,-1.2373,-1.2817,-1.3569,-1.3688,-1.3498,-1.3008,-1.2725,-1.242,0.0,-1.1457,-1.1455,-1.1787,-1.1564,-1.1564,-1.1678,-1.1568,-1.135,-1.0895,-1.0895,-1.0659,-1.0294,-1.0063,-0.9896,-0.9766,-0.9661,-0.9628,-0.9628,-0.9628,-0.943,-0.943,-0.9529,-0.9229,-0.889,-0.8821,-0.8368,-0.7927,-0.7675,-0.7341,-0.6966,-0.6792,-0.6615,-0.6526,-0.6346,-0.608,-0.5816,-0.5816,-0.5458,-0.528,-0.546,-0.5371,-0.5463,-0.5552,-0.5644,-0.5877,-0.6405,-0.6408,-0.6192,-0.584,-0.5958,-0.5846,-0.5317,-0.5231,-0.5148,-0.5148,-0.5231,-0.5256,-0.5219,-0.529,-0.5339,-0.5366,-0.5219,-0.5165,0.0,0.0,0.0,0.0,0.0,0.0,0.0,0.0,0.0,-0.3773,-0.3722,-0.3802,-0.3936,-0.3957,-0.4116,-0.4546,-0.4747,-0.5202,0.0,0.0,0.0,0.0,0.0,0.0,0.0,0.0,0.0,-1.1318,-1.1413,-1.1462,-1.1322,-1.1257,-1.1265,-1.1401,-1.1583,-1.171,-1.175,-1.1669,-1.1868,-1.2584,-1.2598,-1.2808,-1.3186,-1.3545,-1.3545,-1.3163,-1.2757,-1.2584,-1.2438,-1.1833,-1.1568,-1.1568,-1.1787,-1.1564,-1.1131,-1.1459,-1.124,-1.0692,-1.0676,-1.0448,-1.016,-1.0132,-0.99,-0.9529,-0.9529,-0.9628,-0.9628,-0.9628,-0.9529,-0.9529,-0.9529,-0.9331,-0.8996,-0.8631,-0.8189,-0.7847,-0.7407,-0.7082,-0.6808,-0.6795,-0.6349,-0.6083,-0.6083,-0.5638,-0.5371,-0.5371,-0.5191,-0.501,-0.501,-0.5191,-0.5371,-0.5371,-0.5552,-0.573,-0.5994,-0.6257,-0.6147,-0.5736,-0.6087,-0.6096,-0.5713,-0.5538,-0.5368,-0.5368,-0.5624,-0.5602,-0.5464,-0.5456,-0.5488,-0.5396,-0.5368,-0.5303,-0.4559,0.0,-0.4455,-0.4311,-0.4274,0.0,0.0,0.0,0.0,0.0,0.0,0.0,0.0,-0.4112,-0.4217,-0.5412,-0.5747,-0.6051,0.0,0.0,0.0,0.0,0.0,0.0,0.0,0.0,0.0,-1.1093,-1.1533,-1.1695,-1.1101,-1.1496,-1.1569,-1.1211,-1.1284,-1.1253,-1.1193,-1.1449,-1.1802,-1.205,-1.242,-1.2855,-1.3339,-1.3462,-1.3339,-1.2963,-1.2557,-1.2158,-1.1686,-1.1338,-1.124,-1.1236,-1.1021,-1.124,-1.1459,-1.1021,-1.0911,-1.0887,-1.0313,-1.0024,-0.9808,-0.933,-0.9195,-0.9335,-0.9335,-0.943,-0.9628,-0.9628,-0.9327,-0.9027,-0.9232,-0.8638,-0.8004,-0.7945,-0.7598,-0.7124,-0.6872,-0.6703,-0.656,-0.6281,-0.5991,-0.5725,-0.5549,-0.528,-0.5099,-0.5099,-0.4924,-0.4837,-0.501,-0.4924,-0.4926,-0.5102,-0.5282,-0.5371,-0.5277,-0.5813,-0.6101,-0.5855,-0.5961,-0.5834,-0.5457,-0.5452,-0.5368,-0.5368,-0.5455,-0.5515,-0.5464,-0.5458,-0.5494,-0.564,-0.536,-0.5314,-0.3885,-0.4024,-0.4109,-0.3967,-0.3999,-0.4061,0.0,0.0,0.0,0.0,0.0,0.0,0.0,0.0,0.0,0.0,-0.5933,0.0,0.0,0.0,0.0,0.0,0.0,0.0,0.0,0.0,0.0,-1.0854,-1.1326,-1.1363,-1.0858,-1.1251,-1.1218,-1.092,-1.099,-1.0936,-1.1065,-1.1291,-1.1444,-1.1643,-1.2081,-1.2346,-1.266,-1.2776,-1.266,-1.2289,-1.1994,-1.1755,-1.1625,-1.1096,-1.1021,-1.1126,-1.0911,-1.1021,-1.1131,-1.0911,-1.0911,-1.0785,-1.0361,-0.9846,-0.948,-0.9137,-0.9034,-0.9236,-0.9236,-0.9331,-0.943,-0.943,-0.9229,-0.9031,-0.9031,-0.8439,-0.7822,-0.7838,-0.7479,-0.6988,-0.6777,-0.659,-0.6327,-0.6014,-0.5722,-0.5458,-0.528,-0.5013,-0.4835,-0.4835,-0.4659,-0.4569,-0.4654,-0.4659,-0.475,-0.4835,-0.5102,-0.5191,-0.501,-0.5366,-0.5606,-0.5632,-0.5629,-0.5602,-0.554,-0.5395,-0.5341,-0.5371,-0.548,-0.5542,-0.5464,-0.5542,-0.5605,-0.573,-0.5529,-0.5562,-0.3601,-0.3963,-0.4288,-0.4179,-0.4135,-0.4149,0.0,0.0,0.0,0.0,0.0,0.0,0.0,0.0,0.0,0.0,0.0,0.0,0.0,0.0,0.0,0.0,0.0,0.0,0.0,0.0,-1.0891,-1.0708,-1.0867,-1.0887,-1.0704,-1.072,-1.072,-1.0692,-1.072,-1.083,-1.1021,-1.1131,-1.1211,-1.1372,-1.1742,-1.1838,-1.1757,-1.199,-1.2003,-1.1672,-1.1465,-1.1612,-1.1742,-1.099,-1.0911,-1.1021,-1.1021,-1.0911,-1.0692,-1.0911,-1.0911,-1.0574,-1.0194,-0.9666,-0.9168,-0.9145,-0.9153,-0.9168,-0.9141,-0.9153,-0.9267,-0.9141,-0.9034,-0.9034,-0.8829,-0.8333,-0.7942,-0.7839,-0.7454,-0.6943,-0.6712,-0.6488,-0.6173,-0.5773,-0.5468,-0.528,-0.501,-0.4746,-0.4661,-0.4661,-0.4478,-0.43,-0.43,-0.448,-0.4661,-0.4661,-0.4835,-0.4921,-0.4921,-0.4921,-0.5013,-0.5282,-0.5371,-0.5463,-0.5733,-0.5439,-0.5328,-0.5398,-0.5581,-0.5547,-0.5464,-0.5566,-0.5716,-0.5733,-0.5714,-0.5744,-0.3809,-0.4211,-0.4316,-0.3637,-0.3731,-0.3971,-0.3795,0.0,0.0,0.0,0.0,0.0,0.0,0.0,0.0,0.0,0.0,0.0,0.0,0.0,0.0,0.0,0.0,0.0,0.0,-1.0858,-1.0891,-1.0708,-1.0867,-1.0887,-1.0704,-1.0842,-1.0854,-1.0696,-1.0846,-1.085,-1.0802,-1.1021,-1.1143,-1.1173,-1.1677,-1.1885,-1.1911,-1.1911,-1.1881,-1.1663,-1.1659,-1.1377,-1.1181,-1.1096,-1.0907,-1.0802,-1.0802,-1.0692,-1.0692,-1.0802,-1.0582,-1.0214,-0.9385,-0.8941,-0.8643,-0.8535,-0.8825,-0.9116,-0.887,-0.9126,-0.9314,-0.867,-0.8531,-0.8531,-0.8432,-0.8038,-0.7643,-0.7338,-0.7027,-0.6781,-0.646,-0.6241,-0.6024,-0.5721,-0.5345,-0.5013,-0.4748,-0.4567,-0.4389,-0.4389,-0.43,-0.43,-0.43,-0.43,-0.4389,-0.4389,-0.4569,-0.4659,-0.4387,-0.4656,-0.4748,-0.4837,-0.5193,-0.5463,-0.5733,-0.5529,-0.5368,-0.5261,-0.5373,-0.5381,-0.5287,-0.548,-0.5632,-0.573,-0.5627,-0.5709,-0.3577,-0.387,-0.4069,-0.3886,-0.4307,-0.4735,-0.463,0.0,0.0,0.0,0.0,0.0,0.0,0.0,0.0,0.0,0.0,0.0,0.0,0.0,0.0,0.0,0.0,0.0,0.0,-1.0769,-1.0785,-1.07,-1.0769,-1.0781,-1.0696,-1.0773,-1.0892,-1.0911,-1.0884,-1.0888,-1.0911,-1.0911,-1.0907,-1.0911,-1.1109,-1.1262,-1.1262,-1.1262,-1.1197,-1.1152,-1.1096,-1.0961,-1.0814,-1.0835,-1.0802,-1.0692,-1.0692,-1.0692,-1.0692,-1.0582,-1.0257,-0.9998,-0.943,-0.9133,-0.8885,-0.9072,-0.9191,-0.9267,-0.8985,-0.9116,-0.9142,-0.8378,-0.8396,-0.8463,-0.8157,-0.7857,-0.7456,-0.7149,-0.679,-0.6509,-0.6293,-0.6125,-0.586,-0.5467,-0.5172,-0.4736,-0.4464,-0.4242,-0.4034,-0.3942,-0.3942,-0.3942,-0.3942,-0.3942,-0.3942,-0.4034,-0.4214,-0.4304,-0.43,-0.4389,-0.448,-0.448,-0.4924,-0.5166,-0.5022,-0.5147,-0.5175,-0.5109,-0.5204,-0.532,-0.5376,-0.5529,-0.5678,-0.5908,-0.5849,-0.6028,-0.3415,-0.3651,-0.3895,-0.42,0.0,-0.5214,-0.5455,0.0,0.0,0.0,0.0,0.0,0.0,0.0,0.0,0.0,0.0,0.0,0.0,0.0,0.0,0.0,0.0,0.0,-1.0692,-1.0692,-1.0692,-1.0692,-1.0692,-1.0692,-1.0692,-1.0692,-1.0802,-1.1021,-1.0802,-1.0802,-1.1017,-1.0802,-1.0692,-1.0692,-1.0692,-1.0692,-1.0692,-1.0692,-1.0692,-1.0692,-1.0692,-1.0692,-1.0692,-1.0692,-1.0692,-1.0692,-1.0692,-1.0692,-1.0582,-1.0257,-0.9926,-0.9684,-0.9518,-0.9352,-0.9108,-0.9545,-0.9519,-0.932,-0.9041,-0.8947,-0.8849,-0.8123,-0.8201,-0.8409,-0.7958,-0.7645,-0.7446,-0.7035,-0.6628,-0.6313,-0.6129,-0.5992,-0.5654,-0.5284,-0.5,-0.4648,-0.4254,-0.4015,-0.3789,-0.368,-0.3678,-0.3678,-0.3587,-0.3676,-0.3678,-0.3857,-0.3859,-0.4036,-0.43,-0.43,-0.43,-0.43,-0.4654,-0.4877,-0.4688,-0.4837,-0.4954,-0.5116,-0.5175,-0.532,-0.5551,-0.5643,-0.5877,-0.6171,-0.6171,-0.6438,-0.3747,-0.3937,-0.4001,-0.4104,-0.4184,0.0,-0.5646,-0.5378,0.0,0.0,0.0,0.0,0.0,0.0,0.0,0.0,0.0,0.0,0.0,0.0,0.0,0.0,0.0,-1.0692,-1.0692,-1.0692,-1.0692,-1.0692,-1.0692,-1.0692,-1.0692,-1.0692,-1.0692,-1.0692,-1.0692,-1.0692,-1.0692,-1.0692,-1.0692,-1.0692,-1.0692,-1.0692,-1.0692,-1.0692,-1.0692,-1.0692,-1.0692,-1.0692,-1.0692,-1.0692,-1.0692,-1.0692,-1.0692,-1.0582,-1.0257,-0.9926,-0.971,-0.9357,-0.9305,-0.9033,-0.8769,-0.9094,-0.9083,-0.8931,-0.8539,-0.8553,-0.8568,-0.7939,-0.7936,-0.8017,-0.7882,-0.7849,-0.7645,-0.6824,-0.6524,-0.6234,-0.5727,-0.5553,-0.5486,-0.5183,-0.4814,-0.4534,-0.4356,-0.397,-0.376,-0.387,-0.3859,-0.3767,-0.3587,-0.3767,-0.3767,-0.3676,-0.3767,-0.4036,-0.43,-0.43,-0.43,-0.43,-0.4569,-0.4879,-0.5119,-0.5022,-0.5045,-0.5113,-0.5183,-0.5325,-0.5553,-0.5815,-0.6048,-0.6343,-0.6343,-0.652,-0.3275,-0.3523,-0.3836,-0.4016,0.0,0.0,0.0,0.0,0.0,0.0,0.0,0.0,0.0,0.0,0.0,0.0,0.0,0.0,0.0,0.0,0.0,0.0,-1.0692,-1.0692,-1.0692,-1.0692,-1.0692,-1.0692,-1.0692,-1.0692,-1.0692,-1.0692,-1.0802,-1.0911,-1.0802,-1.0802,-1.0911,-1.0802,-1.0692,-1.0692,-1.0692,-1.0692,-1.0692,-1.0692,-1.0692,-1.0692,-1.0692,-1.0692,-1.0692,-1.0692,-1.0692,-1.0692,-1.0692,-1.0582,-1.0257,-0.9926,-0.9596,-0.9368,-0.9308,-0.929,-0.9159,-0.947,-0.9334,-0.9089,-0.8759,-0.8767,-0.8698,-0.7975,-0.8078,-0.8183,-0.7724,-0.7419,-0.7046,-0.6626,-0.6169,-0.5837,-0.5634,-0.5409,-0.5286,-0.5185,-0.4669,-0.4275,-0.4152,-0.369,-0.3348,-0.3326,-0.3321,-0.3232,-0.3142,-0.3232,-0.3321,-0.3317,-0.3678,-0.4036,-0.43,-0.43,-0.4387,-0.4743,-0.4748,-0.4705,-0.4774,-0.4908,-0.5024,-0.5116,-0.5142,-0.5371,-0.5806,-0.597,-0.621,-0.6612,-0.6612,-0.6881,-0.3097,-0.3303,-0.364,0.0,0.0,0.0,0.0,0.0,0.0,0.0,0.0,0.0,0.0,0.0,0.0,0.0,0.0,0.0,0.0,0.0,0.0,-1.0692,-1.0692,-1.0672,-1.0615,-1.0611,-1.0586,-1.053,-1.0578,-1.0611,-1.0611,-1.0664,-1.0802,-1.1017,-1.0802,-1.0802,-1.1017,-1.0911,-1.0802,-1.0692,-1.0802,-1.0802,-1.0692,-1.0692,-1.0692,-1.0692,-1.0692,-1.0664,-1.0615,-1.0672,-1.0692,-1.0582,-1.0582,-1.0366,-1.0036,-0.9816,-0.9599,-0.9268,-0.9489,-0.9379,-0.9261,-0.9537,-0.9337,-0.8999,-0.8633,-0.8619,-0.8404,-0.7827,-0.784,-0.8078,-0.7483,-0.7025,-0.6695,-0.6376,-0.5894,-0.5436,-0.5336,-0.5238,-0.5037,-0.5037,-0.4616,-0.4221,-0.4007,-0.3613,-0.3162,-0.3054,-0.3053,-0.306,-0.2988,-0.3064,-0.3141,-0.3317,-0.3587,-0.3944,-0.43,-0.4389,-0.4567,-0.4921,-0.4835,-0.4791,-0.4688,-0.4858,-0.5082,-0.5254,-0.5248,-0.5564,-0.6034,-0.6125,-0.6435,-0.6881,-0.6972,-0.7149,-0.3321,-0.3316,0.0,0.0,0.0,0.0,0.0,0.0,0.0,0.0,0.0,0.0,0.0,0.0,0.0,0.0,0.0,0.0,0.0,0.0,0.0,-1.0688,-1.0688,-1.0619,-1.0448,-1.0432,-1.0359,-1.0176,-1.0331,-1.0436,-1.0436,-1.0599,-1.0692,-1.0692,-1.0692,-1.0692,-1.0692,-1.0907,-1.0907,-1.0692,-1.1017,-1.0911,-1.0692,-1.0692,-1.0692,-1.0692,-1.0692,-1.0595,-1.0448,-1.0619,-1.0582,-1.0257,-1.0257,-0.9926,-0.9379,-0.9706,-0.9375,-0.8937,-0.9596,-0.9379,-0.8913,-0.9085,-0.8927,-0.8455,-0.7997,-0.7849,-0.7673,-0.7287,-0.7313,-0.7334,-0.7235,-0.698,-0.6695,-0.6167,-0.559,-0.514,-0.4834,-0.4834,-0.4834,-0.4834,-0.4565,-0.4285,-0.4203,-0.3653,-0.3305,-0.3238,-0.3408,-0.3434,-0.3043,-0.3361,-0.3588,-0.3588,-0.3588,-0.3765,-0.43,-0.4569,-0.4661,-0.475,-0.4924,-0.5051,-0.5206,-0.5201,-0.5289,-0.5464,-0.5464,-0.5782,-0.6428,-0.6428,-0.6605,-0.7139,-0.7415,-0.7507,-0.299,0.0,0.0,0.0,0.0,0.0,0.0,0.0,0.0,0.0,0.0,0.0,0.0,0.0,0.0,0.0,0.0,0.0,0.0,0.0,-0.9941,-1.0389,-1.0396,-1.0298,-1.0249,-1.0245,-1.0221,-1.0164,-1.0331,-1.0436,-1.0436,-1.0599,-1.0692,-1.0692,-1.0692,-1.0802,-1.1021,-1.0911,-1.0911,-1.1021,-1.0911,-1.0802,-1.0692,-1.0692,-1.0692,-1.0692,-1.0692,-1.0554,-1.0296,-1.0123,-1.0033,-0.9926,-0.9926,-0.9706,-0.9379,-0.9706,-0.9375,-0.894,-0.9379,-0.9268,-0.893,-0.8996,-0.8876,-0.8615,-0.8151,-0.8001,-0.7906,-0.7314,-0.7313,-0.7334,-0.7235,-0.6761,-0.6167,-0.6061,-0.5485,-0.4937,-0.4834,-0.4834,-0.4834,-0.4834,-0.442,-0.4032,-0.4007,-0.3655,-0.3322,-0.3118,-0.3298,-0.3307,-0.3049,-0.3403,-0.3575,-0.3391,-0.3755,-0.4097,-0.4576,-0.4661,-0.4839,-0.5193,-0.5282,-0.5265,-0.5323,-0.532,-0.5411,-0.5678,-0.5852,-0.6042,-0.6428,-0.6697,-0.7054,-0.7415,-0.768,-0.794,-0.3131,0.0,0.0,0.0,0.0,0.0,0.0,0.0,0.0,0.0,0.0,0.0,0.0,0.0,0.0,0.0,0.0,-0.8936,-0.9514,-0.9594,-0.9754,-1.0216,-1.0294,-1.0213,-1.0067,-1.005,-1.0022,-0.9953,-1.0115,-1.0217,-1.0217,-1.0452,-1.0554,-1.0485,-1.0619,-1.0769,-1.0808,-1.0874,-1.0911,-1.0911,-1.0802,-1.0692,-1.0582,-1.0692,-1.0692,-1.0688,-1.0619,-1.0369,-1.0043,-0.9934,-0.9757,-0.9596,-0.9596,-0.9489,-0.9268,-0.9706,-0.9375,-0.894,-0.9379,-0.9268,-0.894,-0.894,-0.8835,-0.8575,-0.8114,-0.7963,-0.774,-0.716,-0.7026,-0.7138,-0.6885,-0.6445,-0.5903,-0.5946,-0.5379,-0.4834,-0.4834,-0.4834,-0.4834,-0.4834,-0.4526,-0.4148,-0.4051,-0.377,-0.3422,-0.3236,-0.3351,-0.3463,-0.3462,-0.3675,-0.3764,-0.361,-0.388,-0.4215,-0.4486,-0.4748,-0.4942,-0.5255,-0.544,-0.553,-0.5711,-0.5576,-0.5641,-0.5819,-0.5997,-0.6257,-0.6697,-0.6962,-0.7319,-0.768,-0.8028,-0.8288,0.0,0.0,0.0,0.0,0.0,0.0,0.0,0.0,0.0,0.0,0.0,0.0,0.0,0.0,0.0,0.0,-0.8653,-0.8812,-0.9179,-0.9625,-0.9977,-1.0156,-1.027,-1.0229,-0.9892,-0.986,-0.9799,-0.964,-0.9786,-0.9884,-0.9884,-1.0221,-1.0335,-1.0168,-1.0477,-1.0578,-1.0436,-1.0804,-1.0895,-1.0692,-1.0692,-1.0582,-1.0366,-1.0582,-1.0692,-1.0684,-1.0401,-1.0,-0.9567,-0.9777,-0.9656,-0.9357,-0.9375,-0.9158,-0.8937,-0.9596,-0.9375,-0.8937,-0.9596,-0.9379,-0.8937,-0.8826,-0.8732,-0.8595,-0.7921,-0.766,-0.741,-0.6771,-0.6709,-0.6682,-0.6476,-0.6081,-0.582,-0.5917,-0.5373,-0.4834,-0.4834,-0.4834,-0.4834,-0.4834,-0.4759,-0.46,-0.4313,-0.3994,-0.3713,-0.3532,-0.3495,-0.3726,-0.4106,-0.4066,-0.3953,-0.4092,-0.4162,-0.4213,-0.4395,-0.4743,-0.5051,-0.524,-0.5527,-0.5802,-0.6259,-0.5891,-0.583,-0.6171,-0.6171,-0.6523,-0.7139,-0.7228,-0.7496,-0.794,-0.846,-0.8723,0.0,0.0,0.0,0.0,0.0,0.0,0.0,0.0,0.0,0.0,0.0,0.0,0.0,0.0,0.0,0.0,-0.8189,-0.8341,-0.8805,-0.8947,-0.9221,-0.9631,-0.9758,-0.977,-0.9689,-0.9685,-0.9669,-0.9628,-0.9786,-0.9884,-0.9884,-1.0099,-1.0201,-1.0164,-1.0237,-1.0432,-1.0757,-1.058,-1.0666,-1.1017,-1.0802,-1.0692,-1.0582,-1.0472,-1.0472,-1.0684,-1.007,-0.9674,-0.9567,-0.9137,-0.8942,-0.8879,-0.8999,-0.894,-0.8937,-0.9596,-0.9375,-0.8937,-0.9596,-0.9379,-0.8826,-0.8598,-0.8575,-0.8414,-0.7735,-0.7408,-0.7214,-0.6873,-0.6711,-0.6681,-0.6671,-0.6292,-0.5801,-0.5824,-0.5322,-0.4834,-0.4834,-0.4834,-0.4834,-0.4834,-0.451,-0.4236,-0.4008,-0.4037,-0.4091,-0.4059,-0.4082,-0.4093,-0.3994,-0.4246,-0.4395,-0.4165,-0.4479,-0.4673,-0.4842,-0.5102,-0.5292,-0.5318,-0.5765,-0.5944,-0.5849,-0.5828,-0.6093,-0.6618,-0.6789,-0.7051,-0.7401,-0.8021,-0.8372,-0.846,-0.9078,-0.951,0.0,0.0,0.0,0.0,0.0,0.0,0.0,0.0,0.0,0.0,0.0,0.0,0.0,0.0,0.0,0.0,-0.8137,-0.8364,-0.8646,-0.8851,-0.9048,-0.9461,-0.9658,-0.9717,-0.9636,-0.9628,-0.9628,-0.9628,-0.9709,-0.9762,-0.9762,-0.9933,-0.9989,-0.9908,-1.0071,-1.0268,-1.0381,-1.0363,-1.0498,-1.0783,-1.0454,-1.0389,-1.0468,-1.0389,-1.0349,-1.0333,-0.9842,-0.9557,-0.9231,-0.8917,-0.8707,-0.8615,-0.8771,-0.8828,-0.8838,-0.9567,-0.9375,-0.8937,-0.9596,-0.9379,-0.8826,-0.8598,-0.8484,-0.8336,-0.7591,-0.7272,-0.7089,-0.6763,-0.6581,-0.6444,-0.6408,-0.607,-0.572,-0.5519,-0.5174,-0.4834,-0.4834,-0.4834,-0.4834,-0.4834,-0.466,-0.4417,-0.4362,-0.4268,-0.4218,-0.4302,-0.4246,-0.4223,-0.4304,-0.4434,-0.4555,-0.4512,-0.4652,-0.4858,-0.502,-0.5366,-0.5594,-0.5707,-0.6116,-0.6379,-0.6533,-0.6539,-0.6663,-0.6969,-0.7139,-0.7577,-0.8017,-0.8368,-0.8723,-0.9074,-0.9602,-0.9951,0.0,0.0,0.0,0.0,0.0,0.0,0.0,0.0,0.0,0.0,0.0,0.0,0.0,0.0,0.0,0.0,-0.8333,-0.8432,-0.8726,-0.8948,-0.9187,-0.9446,-0.965,-0.9782,-0.964,-0.9628,-0.9628,-0.9628,-0.9628,-0.9628,-0.9628,-0.9762,-0.9774,-0.9632,-0.9916,-1.001,-0.9888,-1.0038,-1.0205,-1.0387,-1.0198,-1.0193,-1.0359,-1.0373,-1.0186,-0.998,-0.9785,-0.9384,-0.8859,-0.8859,-0.865,-0.8462,-0.8611,-0.8672,-0.8797,-0.9494,-0.9336,-0.8903,-0.9478,-0.9379,-0.8826,-0.8488,-0.8374,-0.8216,-0.7428,-0.7132,-0.7066,-0.6529,-0.6453,-0.6337,-0.6139,-0.5837,-0.5536,-0.5338,-0.5037,-0.4834,-0.4834,-0.4834,-0.4834,-0.4834,-0.4734,-0.4726,-0.4794,-0.4499,-0.4246,-0.4384,-0.4282,-0.434,-0.4665,-0.4699,-0.4708,-0.4908,-0.4975,-0.502,-0.5107,-0.5542,-0.5896,-0.6103,-0.648,-0.6926,-0.7419,-0.7488,-0.7448,-0.7408,-0.7577,-0.8017,-0.8811,-0.8811,-0.9161,-0.9689,-1.0033,-1.0381,0.0,0.0,0.0,0.0,0.0,0.0,0.0,0.0,0.0,0.0,0.0,0.0,0.0,0.0,0.0,-0.8605,-0.8531,-0.8432,-0.8432,-0.8855,-0.9157,-0.8928,-0.9347,-0.9652,-0.9628,-0.9628,-0.9628,-0.9628,-0.9628,-0.9628,-0.9628,-0.9648,-0.9652,-0.9628,-0.9673,-0.9758,-0.9884,-0.9908,-1.0014,-1.0201,-1.0359,-1.0417,-1.068,-1.0351,-1.0172,-0.9972,-0.945,-0.901,-0.8702,-0.8501,-0.8402,-0.8313,-0.8459,-0.8513,-0.8635,-0.9112,-0.9064,-0.876,-0.9329,-0.9158,-0.8826,-0.8269,-0.8045,-0.7907,-0.7217,-0.6992,-0.6771,-0.6632,-0.6518,-0.6437,-0.6337,-0.5937,-0.5634,-0.5536,-0.5135,-0.4834,-0.4834,-0.4834,-0.4834,-0.4834,-0.4638,-0.4493,-0.4634,-0.452,-0.4459,-0.4516,-0.4827,-0.4936,-0.4877,-0.4975,-0.5094,-0.5361,-0.5541,-0.556,-0.5633,-0.6074,-0.6269,-0.6132,-0.6649,-0.7091,-0.7111,-0.7978,-0.8488,-0.8644,-0.8552,-0.8811,-0.9428,-0.9689,-0.9946,-1.0207,-1.0809,-1.1154,0.0,0.0,0.0,0.0,0.0,0.0,0.0,0.0,0.0,0.0,0.0,0.0,0.0,0.0,0.0,-0.8286,-0.847,-0.8627,-0.8627,-0.8829,-0.9031,-0.9225,-0.9426,-0.9628,-0.9628,-0.9628,-0.9628,-0.9628,-0.9628,-0.9628,-0.9628,-0.9628,-0.9628,-0.9628,-0.9628,-0.9665,-0.9738,-0.9742,-0.9884,-1.016,-1.0245,-1.0375,-1.0538,-1.0172,-1.0108,-1.0325,-0.9366,-0.8943,-0.9002,-0.8414,-0.814,-0.8157,-0.8306,-0.8364,-0.8495,-0.9051,-0.9033,-0.8733,-0.9212,-0.9158,-0.8826,-0.8159,-0.7993,-0.7798,-0.7133,-0.6796,-0.6673,-0.6551,-0.638,-0.6139,-0.6139,-0.5739,-0.5338,-0.5338,-0.5037,-0.4834,-0.4834,-0.4834,-0.4834,-0.4834,-0.4736,-0.4612,-0.4732,-0.4646,-0.4658,-0.4922,-0.4831,-0.4858,-0.5138,-0.5182,-0.5353,-0.5623,-0.5665,-0.5808,-0.6074,-0.6517,-0.6821,-0.6815,-0.7364,-0.7797,-0.8068,-0.8693,-0.9165,-0.9519,-0.9253,-0.951,-1.012,-1.0294,-1.0549,-1.1068,-1.1499,-1.1843,0.0,0.0,0.0,0.0,0.0,0.0,0.0,0.0,0.0,0.0,0.0,0.0,0.0,0.0,0.0,-0.819,-0.8525,-0.8825,-0.8825,-0.8924,-0.9126,-0.9327,-0.9525,-0.9628,-0.9628,-0.9628,-0.9628,-0.9628,-0.9628,-0.9628,-0.9628,-0.9628,-0.9628,-0.9628,-0.9628,-0.9628,-0.9628,-0.9628,-0.9782,-0.9991,-0.9991,-1.0084,-1.0249,-0.9828,-1.0028,-1.0413,-0.9278,-0.887,-0.898,-0.8334,-0.8038,-0.8052,-0.8167,-0.8211,-0.8241,-0.8818,-0.881,-0.8625,-0.9033,-0.8989,-0.8659,-0.8103,-0.7926,-0.7594,-0.6907,-0.6692,-0.6594,-0.6472,-0.6239,-0.6139,-0.6139,-0.5739,-0.5441,-0.5441,-0.5238,-0.4935,-0.4834,-0.4834,-0.4834,-0.4834,-0.4834,-0.4828,-0.4906,-0.4868,-0.4946,-0.5165,-0.5021,-0.5005,-0.538,-0.5517,-0.567,-0.5991,-0.5988,-0.6163,-0.652,-0.7051,-0.7457,-0.7486,-0.8097,-0.8524,-0.8926,-0.9244,-0.9694,-1.0212,-1.012,-1.0294,-1.0809,-1.0809,-1.1241,-1.1849,-1.21,-1.2448,0.0,0.0,0.0,0.0,0.0,0.0,0.0,0.0,0.0,0.0,0.0,0.0,0.0,0.0,0.0,-0.9136,-0.901,-0.8825,-0.8825,-0.9229,-0.9426,-0.8924,-0.9327,-0.9628,-0.9628,-0.9628,-0.9628,-0.9628,-0.9628,-0.9628,-0.9628,-0.9628,-0.9628,-0.9628,-0.9628,-0.9628,-0.9628,-0.9628,-0.9622,-0.9493,-0.9493,-0.9591,-0.9859,-0.9366,-0.9385,-0.9859,-0.9078,-0.8538,-0.8062,-0.8045,-0.8038,-0.8038,-0.8048,-0.8052,-0.8072,-0.8235,-0.8292,-0.8333,-0.8621,-0.851,-0.8294,-0.7963,-0.7741,-0.7364,-0.6804,-0.6624,-0.6594,-0.6472,-0.6437,-0.6337,-0.6337,-0.6139,-0.5942,-0.5942,-0.5739,-0.5434,-0.4935,-0.4834,-0.4834,-0.4834,-0.4834,-0.4908,-0.5018,-0.5174,-0.5271,-0.5375,-0.5607,-0.5878,-0.5847,-0.6087,-0.6403,-0.6719,-0.6877,-0.7051,-0.7051,-0.7757,-0.8028,-0.7775,-0.8472,-0.9003,-0.9275,-0.9699,-1.0299,-1.0895,-1.1154,-1.1241,-1.1235,-1.1499,-1.1929,-1.2363,-1.2534,-1.2875,0.0,0.0,0.0,0.0,0.0,0.0,0.0,0.0,0.0,0.0,0.0,0.0,0.0,0.0,0.0,-0.8258,-0.8404,-0.8512,-0.8699,-0.8898,-0.8968,-0.9158,-0.9352,-0.9453,-0.9453,-0.9453,-0.9453,-0.9453,-0.9559,-0.9628,-0.9628,-0.9628,-0.9628,-0.9628,-0.9628,-0.9628,-0.9628,-0.9628,-0.9614,-0.9782,-0.9473,-0.9412,-0.9571,-0.9094,-0.8948,-0.8899,-0.8678,-0.8492,-0.8379,-0.8079,-0.8137,-0.8237,-0.8038,-0.8137,-0.8254,-0.8313,-0.8272,-0.8299,-0.8496,-0.8458,-0.8355,-0.8033,-0.7762,-0.7363,-0.6958,-0.6669,-0.6491,-0.6448,-0.6237,-0.6139,-0.6139,-0.5939,-0.5737,-0.5737,-0.5636,-0.5536,-0.5336,-0.5336,-0.5336,-0.5336,-0.5336,-0.5325,-0.5388,-0.5413,-0.549,-0.5739,-0.5922,-0.6048,-0.6118,-0.6382,-0.6582,-0.6802,-0.6966,-0.7228,-0.7496,-0.7937,-0.8288,-0.8468,-0.8995,-0.9432,-0.9777,-1.0467,-1.0982,-1.1154,-1.1843,-1.21,-1.202,-1.2186,-1.2534,-1.2881,-1.3392,-1.3659,0.0,0.0,0.0,0.0,0.0,0.0,0.0,0.0,0.0,0.0,0.0,0.0,0.0,0.0,0.0,-0.7978,-0.8229,-0.843,-0.8524,-0.8623,-0.8791,-0.9168,-0.9168,-0.9168,-0.9267,-0.9271,-0.9291,-0.9352,-0.947,-0.9563,-0.9624,-0.9628,-0.9628,-0.9628,-0.9628,-0.96,-0.9539,-0.9596,-0.9553,-0.951,-0.9157,-0.9088,-0.909,-0.8678,-0.8531,-0.8432,-0.8333,-0.8296,-0.8487,-0.8082,-0.8137,-0.8237,-0.8038,-0.8137,-0.8247,-0.8254,-0.8194,-0.8214,-0.8253,-0.82,-0.8095,-0.7786,-0.7516,-0.7129,-0.6881,-0.6606,-0.6437,-0.6437,-0.6237,-0.6139,-0.6139,-0.6039,-0.5837,-0.5837,-0.581,-0.5795,-0.5829,-0.5734,-0.5636,-0.5636,-0.5636,-0.5636,-0.5737,-0.5708,-0.5854,-0.616,-0.6195,-0.63,-0.6725,-0.6901,-0.7095,-0.7231,-0.7441,-0.7785,-0.8036,-0.8432,-0.8798,-0.9262,-0.9689,-1.012,-1.0381,-1.1068,-1.1585,-1.1757,-1.2357,-1.279,-1.2881,-1.296,-1.3137,-1.3483,-1.399,-1.425,0.0,0.0,0.0,0.0,0.0,0.0,0.0,0.0,0.0,0.0,0.0,0.0,0.0,0.0,0.0,-0.8263,-0.8574,-0.859,-0.8314,-0.8509,-0.8699,-0.8699,-0.8699,-0.8796,-0.9088,-0.9088,-0.9161,-0.9328,-0.9348,-0.9433,-0.9612,-0.962,-0.9616,-0.9612,-0.9612,-0.9527,-0.9348,-0.9527,-0.9241,-0.8594,-0.875,-0.8627,-0.8432,-0.8137,-0.8137,-0.8333,-0.8137,-0.8038,-0.7939,-0.8038,-0.8038,-0.8038,-0.8038,-0.8038,-0.8038,-0.8038,-0.8038,-0.7959,-0.7899,-0.7638,-0.7334,-0.7135,-0.6927,-0.6592,-0.6472,-0.6437,-0.6437,-0.6437,-0.6437,-0.6437,-0.6437,-0.6437,-0.6437,-0.6437,-0.6352,-0.6304,-0.6412,-0.6037,-0.5634,-0.5636,-0.5636,-0.5737,-0.5939,-0.595,-0.6058,-0.6597,-0.6513,-0.6735,-0.7476,-0.757,-0.7705,-0.8022,-0.8509,-0.8647,-0.8664,-0.9165,-0.9643,-1.0052,-1.0381,-1.0809,-1.1322,-1.1585,-1.2015,-1.2705,-1.2705,-1.3045,-1.3737,-1.3737,-1.3822,-1.4088,-1.4321,-1.4657,-0.1753,0.0,0.0,0.0,0.0,0.0,0.0,0.0,0.0,0.0,0.0,0.0,0.0,0.0,0.0,0.0,-0.7625,-0.7983,-0.8078,-0.8376,-0.8623,-0.871,-0.8802,-0.8802,-0.8897,-0.8897,-0.8917,0.0,-0.9206,-0.9376,-0.9429,-0.9429,-0.9372,-0.9246,-0.9045,-0.8926,-0.8875,-0.886,-0.8829,-0.8594,-0.8554,-0.8432,-0.8432,-0.8137,-0.7942,-0.7842,-0.7939,-0.7842,-0.7746,-0.7942,-0.8137,-0.8233,-0.8038,-0.8137,-0.8233,-0.8038,-0.8038,-0.8045,-0.7985,-0.7899,-0.7802,-0.7503,-0.7299,-0.6986,-0.6751,-0.6539,-0.6437,-0.6437,-0.6539,-0.6642,-0.6642,-0.6539,-0.6437,-0.6437,-0.6515,-0.6702,-0.6734,-0.6739,-0.6637,-0.6237,-0.6137,-0.6237,-0.6542,-0.6515,-0.6625,-0.6718,-0.7045,-0.7233,-0.7202,-0.771,-0.8053,-0.819,-0.8759,-0.9194,-0.9349,-0.9652,-1.01,-1.0733,-1.0809,-1.1068,-1.1585,-1.21,-1.2613,-1.2875,-1.3476,-1.3906,-1.423,-1.4075,-1.4075,-1.4321,-1.4748,-1.5249,0.0,0.0,0.0,0.0,0.0,0.0,-0.3156,-0.3231,-0.3398,0.0,0.0,0.0,0.0,0.0,0.0,0.0,-0.6745,-0.7208,-0.7658,-0.7948,-0.8155,-0.8243,-0.8332,-0.8332,-0.8424,-0.8424,-0.8573,-0.8808,-0.9011,-0.9165,-0.9242,-0.9147,-0.9099,-0.8905,-0.8715,-0.8489,-0.8425,-0.8498,-0.8486,-0.8299,-0.8362,-0.8273,-0.8233,-0.8038,-0.7942,-0.7743,-0.7942,-0.7942,-0.7743,-0.7942,-0.8137,-0.8237,-0.8038,-0.8137,-0.8237,-0.8038,-0.8038,-0.7939,-0.7842,-0.7842,-0.7743,-0.7344,-0.7141,-0.6942,-0.6742,-0.6639,-0.6539,-0.6539,-0.6642,-0.6742,-0.6642,-0.6639,-0.6539,-0.6539,-0.6799,-0.6973,-0.693,-0.7096,-0.7069,-0.6828,-0.6736,-0.6739,-0.6845,-0.6952,-0.7033,-0.739,-0.7512,-0.757,-0.788,-0.8324,-0.8661,-0.8852,-0.95,-1.0008,-1.0018,-1.0248,-1.0613,-1.1226,-1.1386,-1.1585,-1.202,-1.2619,-1.3052,-1.313,-1.3652,-1.4075,-1.4398,-1.4496,-1.4587,-1.4824,-1.5166,-1.5582,0.0,0.0,0.0,0.0,0.0,0.0,-0.3435,-0.3206,-0.307,-0.3633,0.0,0.0,0.0,0.0,0.0,-0.5212,-0.5792,-0.6446,-0.7097,-0.7384,-0.7576,-0.7576,-0.7573,-0.7661,-0.7928,-0.8029,-0.8253,-0.8649,-0.8709,-0.8802,-0.906,-0.8776,-0.8672,-0.8652,-0.8377,-0.8221,-0.808,-0.8236,-0.8128,-0.7851,-0.8013,-0.807,-0.8014,-0.8014,-0.7925,-0.7942,-0.7939,-0.7939,-0.7942,-0.7939,-0.8038,-0.8038,-0.8038,-0.8038,-0.8038,-0.8038,-0.8038,-0.7942,-0.7746,-0.7646,-0.7547,-0.7045,-0.6845,-0.6842,-0.6537,-0.6639,-0.6845,-0.6842,-0.6842,-0.6842,-0.6539,-0.6639,-0.6842,-0.6842,-0.7048,-0.7189,-0.7211,-0.7242,-0.7189,-0.7313,-0.7238,-0.7141,-0.7147,-0.7237,-0.7567,-0.8218,-0.7897,-0.802,-0.8959,-0.9177,-0.9389,-0.9962,-1.0513,-1.0805,-1.0805,-1.1014,-1.1314,-1.1752,-1.2057,-1.2261,-1.2496,-1.3095,-1.3515,-1.3483,-1.3737,-1.4068,-1.458,-1.4922,-1.5257,-1.5431,-1.5658,-1.5733,0.0,0.0,0.0,0.0,0.0,0.0,-0.3253,-0.3109,-0.3086,0.0,0.0,0.0,0.0,0.0,0.0,-0.4487,-0.4918,-0.5634,-0.6595,-0.7163,-0.7412,-0.7412,-0.7575,-0.7658,-0.7499,-0.7954,-0.8235,-0.8135,-0.8399,-0.8568,-0.8607,-0.8333,-0.8178,-0.8042,-0.7771,-0.767,-0.7642,-0.7615,-0.7597,-0.7506,-0.7664,-0.7716,-0.7855,-0.7855,-0.7828,-0.7646,-0.7942,-0.7842,-0.7646,-0.7942,-0.8038,-0.8038,-0.8038,-0.8038,-0.8038,-0.8038,-0.8038,-0.8038,-0.7939,-0.7942,-0.7842,-0.7547,-0.7447,-0.7344,-0.7138,-0.6942,-0.6842,-0.7039,-0.7138,-0.7138,-0.7344,-0.7241,-0.7138,-0.7138,-0.7322,-0.7512,-0.7537,-0.772,-0.7806,-0.7832,-0.7537,-0.7338,-0.7743,-0.7793,-0.8017,-0.8494,-0.846,-0.8644,-0.9084,-0.9464,-0.9889,-1.0416,-1.09,-1.1291,-1.1532,-1.1833,-1.2204,-1.253,-1.3027,-1.326,-1.3299,-1.3729,-1.3978,-1.3919,-1.4489,-1.4915,-1.5257,-1.5257,-1.5347,-1.5431,-1.5756,-1.6004,0.0,0.0,0.0,-0.3953,0.0,0.0,0.0,-0.33,-0.3116,-0.332,0.0,0.0,0.0,0.0,0.0,-0.4107,-0.45,-0.4967,-0.5672,-0.641,-0.6871,-0.6875,-0.6964,-0.7025,-0.7031,-0.7349,-0.7685,-0.7944,-0.8033,-0.8163,-0.8249,-0.7899,-0.7731,-0.7733,-0.7457,-0.7323,-0.7323,-0.7307,-0.7295,-0.7373,-0.7448,-0.76,-0.7811,-0.7811,-0.7798,-0.7842,-0.7939,-0.7942,-0.7842,-0.7939,-0.8038,-0.8038,-0.8038,-0.8038,-0.8038,-0.8038,-0.8038,-0.8038,-0.8038,-0.8038,-0.7939,-0.7646,-0.7646,-0.7547,-0.7238,-0.7241,-0.7244,-0.7344,-0.7441,-0.7441,-0.7441,-0.7441,-0.7441,-0.754,-0.7839,-0.8018,-0.8045,-0.8283,-0.8411,-0.8336,-0.8283,-0.8237,-0.8237,-0.8371,-0.8612,-0.9006,-0.922,-0.9468,-0.9969,-1.0384,-1.07,-1.1129,-1.1698,-1.2073,-1.2242,-1.269,-1.3061,-1.3338,-1.3768,-1.3842,-1.3642,-1.4073,-1.4296,-1.4095,-1.4496,-1.4748,-1.4762,-1.518,-1.5431,-1.5431,-1.5839,-1.617,0.0,0.0,0.0,0.0,0.0,-0.4025,0.0,0.0,0.0,0.0,0.0,0.0,0.0,0.0,0.0,0.0,0.0,0.0,0.0,-0.5425,0.0,-0.5979,-0.6086,-0.6239,-0.6293,-0.6499,-0.69,-0.7735,-0.7546,-0.7539,-0.7796,-0.7385,-0.7232,-0.7432,-0.7208,-0.7112,-0.7139,-0.7139,-0.7204,-0.7326,-0.7326,-0.7468,-0.7634,-0.7756,-0.7851,-0.7898,-0.7928,-0.8038,-0.8038,-0.8038,-0.8038,-0.8038,-0.8038,-0.8038,-0.8038,-0.8038,-0.8038,-0.8038,-0.8038,-0.8038,-0.7942,-0.7743,-0.7646,-0.7643,-0.7341,-0.754,-0.7743,-0.7646,-0.7743,-0.7739,-0.7537,-0.764,-0.7842,-0.8137,-0.8333,-0.8495,-0.8567,-0.8735,-0.8788,-0.8762,-0.8943,-0.9031,-0.873,-0.8916,-0.936,-0.9801,-1.0053,-1.0382,-1.0934,-1.1321,-1.1537,-1.1827,-1.2432,-1.2785,-1.2881,-1.342,-1.3796,-1.3978,-1.4333,-1.4347,-1.3957,-1.4248,-1.4322,-1.4088,-1.4328,-1.4412,-1.4334,-1.5257,-1.5807,-1.6044,-1.6292,-1.6464,0.0,0.0,0.0,0.0,-0.4581,-0.4755,-0.4029,0.0,-0.3818,-0.3635,0.0,0.0,0.0,0.0,0.0,0.0,0.0,0.0,-0.3651,-0.4072,-0.4513,-0.4846,-0.5284,-0.5443,-0.5389,-0.5674,-0.62,-0.7194,-0.6681,-0.6539,-0.6885,-0.6808,-0.6874,-0.7008,-0.6943,-0.7014,-0.7139,-0.7139,-0.7149,-0.7166,-0.7166,-0.7078,-0.7063,-0.747,-0.761,-0.756,-0.7885,-0.8038,-0.8038,-0.8038,-0.8038,-0.8038,-0.8038,-0.8038,-0.8038,-0.8038,-0.8038,-0.8038,-0.8038,-0.8038,-0.8038,-0.7942,-0.7939,-0.7942,-0.7643,-0.7942,-0.8237,-0.8038,-0.8336,-0.8627,-0.8627,-0.8627,-0.8627,-0.8726,-0.8726,-0.8718,-0.8803,-0.8718,-0.873,-0.911,-0.9015,-0.9023,-0.9426,-0.9706,-1.0092,-1.0605,-1.0863,-1.1137,-1.1448,-1.1838,-1.2114,-1.2292,-1.2635,-1.2851,-1.3017,-1.3776,-1.425,-1.425,-1.4988,-1.5091,-1.4636,-1.4328,-1.4122,-1.4088,-1.4173,-1.4503,-1.5264,-1.6162,-1.7203,-1.8383,-1.7233,-1.7052,0.0,0.0,0.0,0.0,0.0,0.0,-0.39,-0.3718,-0.3652,-0.3688,0.0,0.0,0.0,0.0,0.0,0.0,-0.3098,0.0,0.0,0.0,-0.355,0.0,0.0,0.0,-0.5183,-0.5274,-0.5666,-0.6496,-0.6025,-0.5964,-0.6514,-0.6471,-0.6634,-0.6954,-0.6793,-0.682,-0.6966,-0.6969,-0.6969,-0.6969,-0.6969,-0.6959,-0.7015,-0.7165,-0.7269,-0.7308,-0.7657,-0.7831,-0.7909,-0.7909,-0.796,-0.8038,-0.8038,-0.8038,-0.8038,-0.8038,-0.8038,-0.8038,-0.8038,-0.8038,-0.8038,-0.8038,-0.798,-0.7923,-0.8011,-0.8178,-0.8322,-0.8407,-0.8627,-0.8825,-0.8825,-0.8825,-0.8825,-0.9031,-0.913,-0.9296,-0.9389,-0.9547,-0.969,-0.9681,-0.9841,-1.001,-1.0212,-1.0507,-1.0806,-1.0998,-1.1389,-1.1683,-1.1873,-1.2365,-1.2754,-1.2948,-1.3249,-1.3443,-1.3545,-1.431,-1.4694,-1.4598,-1.5261,-1.5464,-1.4989,-1.4663,-1.4328,-1.4088,-1.4088,-1.451,-1.5431,-1.6245,-1.704,-1.7604,-1.7447,-1.7815,-0.4154,0.0,0.0,-0.4062,-0.4016,-0.4079,-0.3833,-0.3696,-0.3673,-0.3822,-0.3741,0.0,0.0,0.0,-0.3081,-0.3096,0.0,-0.2847,0.0,-0.2629,0.0,0.0,0.0,0.0,0.0,-0.4683,-0.4803,-0.5531,-0.515,-0.5189,-0.5942,-0.6022,-0.6288,-0.6866,-0.6612,-0.6522,-0.6792,-0.6704,-0.6704,-0.6704,-0.6704,-0.6668,-0.6772,-0.6901,-0.6971,-0.7063,-0.7389,-0.756,-0.7753,-0.7753,-0.7841,-0.7977,-0.7977,-0.8004,-0.8038,-0.8038,-0.8038,-0.8038,-0.8038,-0.8011,-0.7977,-0.7977,-0.7875,-0.778,-0.8227,-0.8297,-0.8434,-0.8784,-0.8928,-0.9023,-0.9023,-0.9023,-0.9225,-0.9331,-0.9628,-0.9887,-0.9942,-1.021,-1.0467,-1.0316,-1.0697,-1.0993,-1.09,-1.0998,-1.1292,-1.1389,-1.1688,-1.2078,-1.2365,-1.2948,-1.334,-1.3431,-1.3732,-1.3931,-1.3835,-1.4604,-1.4987,-1.5077,-1.5547,-1.5698,-1.5418,-1.5383,-1.5091,-1.4432,-1.5084,-1.5519,-1.5756,-1.6409,-1.6794,-1.7012,-1.7387,-1.7981,-0.4204,-0.4324,-0.446,-0.4022,-0.4139,-0.4308,-0.3908,-0.4021,-0.4116,-0.3993,-0.4106,-0.4079,-0.3834,-0.3475,-0.3131,-0.2948,-0.2912,0.0,0.0,0.0,0.0,0.0,0.0,0.0,0.0,-0.367,-0.3639,-0.4329,-0.3997,-0.4114,-0.4998,-0.5234,-0.5722,-0.6464,-0.6217,-0.6254,-0.6792,-0.6523,-0.6428,-0.6428,-0.6428,-0.6346,-0.618,-0.6488,-0.6731,-0.6743,-0.706,-0.7406,-0.7607,-0.7607,-0.7689,-0.7818,-0.7818,-0.7909,-0.8038,-0.8038,-0.8038,-0.8038,-0.8038,-0.7943,-0.7818,-0.7818,-0.7723,-0.7634,-0.8072,-0.8404,-0.8627,-0.9087,-0.9331,-0.9529,-0.9529,-0.9727,-0.992,-1.0019,-1.0216,-1.0408,-1.0404,-1.0502,-1.0699,-1.0797,-1.1389,-1.178,-1.1292,-1.1194,-1.1394,-1.1883,-1.1785,-1.1986,-1.2667,-1.3346,-1.3732,-1.3823,-1.3835,-1.3835,-1.3829,-1.4406,-1.5077,-1.5737,-1.5825,-1.5818,-1.5812,-1.672,-1.6592,-1.5369,-1.754,-1.8,-1.6656,-1.6656,-1.7127,-1.7806,-1.7119,-1.7201,-0.427,-0.4389,-0.4459,-0.4025,-0.4027,-0.4122,-0.3773,-0.3796,-0.3884,-0.3758,-0.3937,-0.3946,-0.3607,-0.3329,-0.3118,-0.2871,-0.274,-0.2487,0.0,0.0,0.0,0.0,0.0,0.0,0.0,0.0,-0.3297,-0.3807,-0.3652,-0.3844,-0.4521,-0.496,-0.5381,-0.5787,-0.5794,-0.5954,-0.6213,-0.6216,-0.6169,-0.6169,-0.6169,-0.6171,-0.6086,-0.6215,-0.6326,-0.6329,-0.6551,-0.6894,-0.7175,-0.7175,-0.7406,-0.7801,-0.7706,-0.776,-0.7899,-0.8001,-0.8038,-0.8038,-0.8237,-0.8199,-0.8255,-0.8448,-0.8272,-0.8204,-0.8672,-0.8794,-0.8764,-0.9347,-0.9441,-0.9571,-0.9792,-0.9828,-0.9959,-1.0186,-1.0511,-1.0703,-1.0703,-1.09,-1.0998,-1.1096,-1.1492,-1.1785,-1.1785,-1.1688,-1.1683,-1.1492,-1.198,-1.2473,-1.2764,-1.334,-1.3925,-1.4112,-1.4112,-1.4208,-1.4112,-1.4304,-1.4873,-1.573,-1.5832,-1.5832,-1.5832,-1.7419,-1.8049,-1.7683,-1.7502,-1.7927,-1.9083,-1.7435,-1.681,-1.7127,-1.722,-1.7714,-0.4281,-0.4384,-0.4393,-0.4143,-0.4091,-0.4025,-0.3778,-0.3789,-0.384,-0.3718,-0.3798,-0.3867,-0.3661,-0.3338,-0.3092,-0.2932,-0.2669,-0.2349,0.0,-0.1943,0.0,0.0,0.0,0.0,0.0,-0.2783,-0.2876,-0.3319,-0.3245,-0.3459,-0.4064,-0.4529,-0.496,-0.5424,-0.5515,-0.5635,-0.5886,-0.5931,-0.5997,-0.5997,-0.5997,-0.5997,-0.5997,-0.6083,-0.6171,-0.6257,-0.6435,-0.6754,-0.7021,-0.7021,-0.7254,-0.7645,-0.7553,-0.7607,-0.7746,-0.7845,-0.7916,-0.7963,-0.8315,-0.8396,-0.8354,-0.8645,-0.8557,-0.8389,-0.8956,-0.8983,-0.8942,-0.9368,-0.9494,-0.9559,-0.9807,-0.9972,-1.0043,-1.0396,-1.0604,-1.0798,-1.0798,-1.0993,-1.1109,-1.1277,-1.159,-1.1883,-1.2073,-1.2268,-1.2268,-1.1883,-1.2078,-1.237,-1.2764,-1.3284,-1.3809,-1.428,-1.4183,-1.4165,-1.4286,-1.4962,-1.5629,-1.6298,-1.6298,-1.648,-1.6857,-1.8079,-1.9012,-1.9379,-1.821,-1.8234,-1.9622,-1.7801,-1.6902,-1.6738,-1.7057,-1.7722]},{"header":{"parameterUnit":"m.s-1","parameterCategory":1,"la1":30.6,"la2":29.2853,"lo1":-89.7004,"lo2":-87.6739,"dy":0.0162,"dx":0.0183,"nx":112,"ny":82,"refTime":"2023-08-23T12:00:00:Z","depth":0,"parameterNumber":3,"parameterNumberName":"V-component_of_WINDS"},"data":[0.0,0.0,0.0,0.0,0.0,0.0,0.0,0.0,0.0,0.0,0.0,0.0,0.0,0.0,0.0,0.0,0.0,0.0,0.0,0.0,0.0,0.0,0.0,0.0,0.0,0.0,0.0,0.0,0.0,0.0,0.0,0.0,0.0,0.0,0.0,0.0,0.0,0.0,0.0,0.0,0.0,0.0,0.0,0.0,0.0,0.0,0.0,0.0,0.0,0.0,0.0,0.0,0.0,0.0,0.0,0.0,0.0,0.0,0.0,0.0,0.0,0.0,0.0,0.0,0.0,0.0,0.0,0.0,0.0,0.0,0.0,0.0,0.0,0.0,0.0,0.0,0.0,0.0,0.0,0.0,0.0,0.0,0.0,0.0,0.0,0.0,0.0,0.0,0.0,0.0,-1.8272,-1.898,-2.0991,-2.2253,-2.2219,-2.2717,-2.1392,-1.7546,0.0,0.0,0.0,0.0,0.0,0.0,0.0,0.0,0.0,0.0,0.0,0.0,0.0,0.0,0.0,0.0,0.0,0.0,0.0,0.0,0.0,0.0,0.0,0.0,0.0,0.0,0.0,0.0,0.0,0.0,0.0,0.0,0.0,0.0,0.0,0.0,0.0,0.0,0.0,0.0,0.0,0.0,0.0,0.0,0.0,0.0,0.0,0.0,0.0,0.0,0.0,0.0,0.0,0.0,0.0,0.0,0.0,0.0,0.0,0.0,0.0,0.0,0.0,0.0,0.0,0.0,0.0,0.0,0.0,0.0,0.0,0.0,0.0,0.0,0.0,0.0,0.0,0.0,0.0,0.0,0.0,0.0,0.0,0.0,0.0,0.0,0.0,0.0,0.0,0.0,0.0,0.0,0.0,0.0,0.0,0.0,0.0,0.0,0.0,0.0,0.0,0.0,0.0,0.0,-1.7881,-2.2001,-2.3393,-2.4024,-2.4006,-2.3488,-2.2006,-1.9277,0.0,0.0,0.0,0.0,0.0,0.0,0.0,0.0,0.0,0.0,0.0,0.0,0.0,0.0,0.0,0.0,0.0,0.0,0.0,0.0,0.0,0.0,0.0,0.0,0.0,0.0,0.0,0.0,0.0,0.0,0.0,0.0,0.0,0.0,0.0,0.0,0.0,0.0,0.0,0.0,0.0,0.0,0.0,0.0,0.0,0.0,0.0,0.0,0.0,0.0,0.0,0.0,0.0,0.0,0.0,0.0,0.0,0.0,0.0,0.0,0.0,0.0,0.0,0.0,0.0,0.0,0.0,0.0,0.0,0.0,0.0,0.0,0.0,0.0,0.0,0.0,0.0,0.0,0.0,0.0,0.0,0.0,0.0,0.0,0.0,0.0,0.0,0.0,0.0,0.0,0.0,0.0,0.0,0.0,0.0,0.0,0.0,0.0,0.0,0.0,0.0,0.0,0.0,-1.7472,-1.9448,-2.3477,-2.4241,-2.4447,-2.4412,-2.4061,-2.2615,-1.968,-1.7488,0.0,0.0,0.0,0.0,0.0,0.0,0.0,0.0,0.0,0.0,0.0,0.0,0.0,0.0,0.0,0.0,0.0,0.0,0.0,0.0,0.0,0.0,0.0,0.0,0.0,0.0,0.0,0.0,0.0,0.0,0.0,0.0,0.0,0.0,0.0,0.0,0.0,0.0,0.0,0.0,0.0,0.0,0.0,0.0,0.0,0.0,0.0,0.0,0.0,0.0,0.0,0.0,0.0,0.0,0.0,0.0,0.0,0.0,0.0,0.0,0.0,0.0,0.0,0.0,0.0,0.0,0.0,0.0,0.0,0.0,0.0,0.0,0.0,0.0,0.0,0.0,0.0,0.0,0.0,0.0,0.0,0.0,0.0,0.0,0.0,0.0,0.0,0.0,0.0,0.0,0.0,0.0,0.0,0.0,0.0,0.0,0.0,0.0,0.0,0.0,0.0,0.0,-1.9735,-2.131,-2.4213,-2.4532,-2.4517,-2.4429,-2.3707,-2.2203,-1.9671,-1.6299,0.0,0.0,0.0,0.0,0.0,0.0,0.0,0.0,0.0,0.0,0.0,0.0,0.0,0.0,0.0,0.0,0.0,0.0,0.0,0.0,0.0,0.0,0.0,0.0,0.0,0.0,0.0,0.0,0.0,0.0,0.0,0.0,0.0,0.0,0.0,0.0,0.0,0.0,0.0,0.0,0.0,0.0,0.0,0.0,0.0,0.0,0.0,0.0,0.0,0.0,0.0,0.0,0.0,0.0,0.0,0.0,0.0,0.0,0.0,0.0,0.0,0.0,0.0,0.0,0.0,0.0,0.0,0.0,0.0,0.0,0.0,0.0,0.0,0.0,0.0,0.0,0.0,0.0,0.0,0.0,0.0,0.0,0.0,0.0,0.0,0.0,0.0,0.0,0.0,0.0,0.0,0.0,0.0,0.0,0.0,0.0,0.0,0.0,0.0,0.0,0.0,0.0,-2.0036,-2.26,-2.4393,-2.465,-2.4615,-2.4495,-2.1682,-1.9833,-1.9609,-1.3691,0.0,0.0,0.0,0.0,0.0,0.0,0.0,0.0,0.0,0.0,0.0,0.0,0.0,0.0,0.0,0.0,0.0,0.0,0.0,0.0,0.0,0.0,0.0,0.0,0.0,0.0,0.0,0.0,0.0,0.0,0.0,0.0,0.0,0.0,0.0,0.0,0.0,0.0,0.0,0.0,0.0,0.0,0.0,0.0,0.0,0.0,0.0,0.0,0.0,0.0,0.0,0.0,0.0,0.0,0.0,0.0,0.0,0.0,0.0,0.0,0.0,0.0,0.0,0.0,0.0,0.0,0.0,0.0,0.0,0.0,0.0,0.0,0.0,0.0,0.0,0.0,0.0,0.0,0.0,0.0,0.0,0.0,0.0,0.0,0.0,0.0,0.0,0.0,0.0,0.0,0.0,0.0,0.0,0.0,0.0,0.0,0.0,0.0,0.0,0.0,0.0,0.0,-1.9226,-2.1629,0.0,-2.4599,-2.4547,-2.4515,-2.3363,-2.1574,-1.9013,0.0,0.0,0.0,0.0,0.0,0.0,0.0,0.0,0.0,0.0,0.0,0.0,0.0,0.0,0.0,0.0,0.0,0.0,0.0,0.0,0.0,0.0,0.0,0.0,0.0,0.0,0.0,0.0,0.0,0.0,0.0,0.0,0.0,0.0,0.0,0.0,0.0,0.0,0.0,0.0,0.0,0.0,0.0,0.0,0.0,0.0,0.0,0.0,0.0,0.0,0.0,0.0,0.0,0.0,0.0,0.0,0.0,0.0,0.0,0.0,0.0,0.0,0.0,0.0,0.0,0.0,0.0,0.0,0.0,0.0,0.0,0.0,0.0,0.0,0.0,0.0,0.0,0.0,0.0,0.0,0.0,0.0,0.0,0.0,0.0,0.0,0.0,0.0,0.0,0.0,0.0,0.0,0.0,0.0,0.0,0.0,0.0,0.0,0.0,0.0,0.0,0.0,-1.6945,-1.9145,-2.1521,0.0,-2.4564,-2.4513,-2.45,-2.3808,-2.1958,-1.8609,0.0,0.0,0.0,0.0,0.0,0.0,0.0,0.0,0.0,0.0,0.0,0.0,0.0,0.0,0.0,0.0,0.0,0.0,0.0,0.0,0.0,0.0,0.0,0.0,0.0,0.0,0.0,0.0,0.0,0.0,0.0,0.0,0.0,0.0,0.0,0.0,0.0,0.0,0.0,0.0,0.0,0.0,0.0,0.0,0.0,0.0,0.0,0.0,0.0,0.0,0.0,0.0,0.0,0.0,0.0,0.0,0.0,0.0,0.0,0.0,0.0,0.0,0.0,0.0,0.0,0.0,0.0,0.0,0.0,0.0,0.0,0.0,0.0,0.0,0.0,0.0,0.0,0.0,0.0,0.0,0.0,0.0,0.0,0.0,0.0,0.0,0.0,0.0,0.0,0.0,0.0,0.0,0.0,0.0,0.0,0.0,0.0,0.0,0.0,0.0,0.0,0.0,-1.7096,-2.0118,-2.2734,-2.4412,-2.4599,-2.4566,-2.45,-2.2372,-2.03,0.0,0.0,0.0,0.0,0.0,0.0,0.0,0.0,0.0,0.0,0.0,0.0,0.0,0.0,0.0,0.0,0.0,0.0,0.0,0.0,0.0,0.0,0.0,0.0,0.0,0.0,0.0,0.0,0.0,0.0,0.0,0.0,0.0,0.0,0.0,0.0,0.0,0.0,0.0,0.0,0.0,0.0,0.0,0.0,0.0,0.0,0.0,0.0,0.0,0.0,0.0,0.0,0.0,0.0,0.0,0.0,0.0,0.0,0.0,0.0,0.0,0.0,0.0,0.0,0.0,0.0,0.0,0.0,0.0,0.0,0.0,0.0,0.0,0.0,0.0,0.0,0.0,0.0,0.0,0.0,0.0,0.0,0.0,0.0,0.0,0.0,0.0,0.0,0.0,0.0,0.0,0.0,0.0,0.0,0.0,0.0,0.0,0.0,0.0,0.0,0.0,0.0,0.0,-1.7135,-2.0137,-2.2753,-2.4412,-2.4564,-2.4513,-2.45,-2.3945,-2.2121,-1.8615,0.0,0.0,0.0,0.0,0.0,0.0,0.0,0.0,0.0,0.0,0.0,0.0,0.0,0.0,0.0,0.0,0.0,0.0,0.0,0.0,0.0,0.0,0.0,0.0,0.0,0.0,0.0,0.0,0.0,0.0,0.0,0.0,0.0,0.0,0.0,0.0,0.0,0.0,0.0,0.0,0.0,0.0,0.0,0.0,0.0,0.0,0.0,0.0,0.0,0.0,0.0,0.0,0.0,0.0,0.0,0.0,0.0,0.0,0.0,0.0,0.0,0.0,0.0,0.0,0.0,0.0,0.0,0.0,0.0,0.0,0.0,0.0,0.0,0.0,0.0,0.0,0.0,0.0,0.0,0.0,0.0,0.0,0.0,0.0,0.0,0.0,0.0,0.0,0.0,0.0,0.0,0.0,0.0,0.0,0.0,0.0,0.0,0.0,0.0,0.0,0.0,0.0,-1.7614,-2.0637,-2.3142,-2.4449,-2.4564,-2.453,-2.4532,-2.465,-2.3053,-1.9163,0.0,0.0,0.0,0.0,0.0,0.0,0.0,0.0,0.0,0.0,0.0,0.0,0.0,0.0,0.0,0.0,0.0,0.0,0.0,0.0,0.0,0.0,0.0,0.0,0.0,0.0,0.0,0.0,0.0,0.0,0.0,0.0,0.0,0.0,0.0,0.0,0.0,0.0,0.0,0.0,0.0,0.0,0.0,0.0,0.0,0.0,0.0,0.0,0.0,0.0,0.0,0.0,0.0,0.0,0.0,0.0,0.0,0.0,0.0,0.0,0.0,0.0,0.0,0.0,0.0,0.0,0.0,0.0,0.0,0.0,0.0,0.0,0.0,0.0,0.0,0.0,0.0,0.0,0.0,0.0,0.0,0.0,0.0,0.0,0.0,0.0,0.0,0.0,0.0,0.0,0.0,0.0,0.0,0.0,0.0,0.0,0.0,0.0,0.0,0.0,0.0,0.0,-1.8298,-2.1437,-2.3827,-2.4634,-2.4802,-2.4802,-2.4711,-2.4773,-2.3382,-2.0017,0.0,0.0,0.0,0.0,0.0,0.0,0.0,0.0,0.0,0.0,0.0,0.0,0.0,0.0,0.0,0.0,0.0,0.0,0.0,0.0,0.0,0.0,0.0,0.0,0.0,0.0,0.0,0.0,0.0,0.0,0.0,0.0,0.0,0.0,0.0,0.0,0.0,0.0,0.0,0.0,0.0,0.0,0.0,0.0,0.0,0.0,0.0,0.0,0.0,0.0,0.0,0.0,0.0,0.0,0.0,0.0,0.0,0.0,0.0,0.0,-2.1059,-1.9559,0.0,0.0,0.0,0.0,0.0,0.0,0.0,0.0,0.0,0.0,0.0,0.0,0.0,0.0,0.0,0.0,0.0,0.0,0.0,0.0,0.0,0.0,0.0,0.0,0.0,0.0,0.0,0.0,0.0,0.0,0.0,0.0,0.0,0.0,0.0,0.0,0.0,0.0,0.0,0.0,-1.8369,-2.1962,-2.4671,-2.5527,-2.6182,-2.6294,-2.5589,-2.5649,-2.4287,-2.0945,-1.9049,0.0,0.0,0.0,0.0,0.0,0.0,0.0,0.0,0.0,0.0,0.0,0.0,0.0,0.0,0.0,0.0,0.0,0.0,0.0,0.0,0.0,0.0,0.0,0.0,0.0,0.0,0.0,0.0,0.0,0.0,0.0,0.0,0.0,0.0,0.0,0.0,0.0,0.0,0.0,0.0,0.0,0.0,0.0,0.0,0.0,0.0,0.0,0.0,0.0,0.0,0.0,0.0,0.0,0.0,0.0,0.0,0.0,0.0,0.0,-2.6015,-2.4677,0.0,0.0,0.0,0.0,0.0,0.0,0.0,0.0,0.0,0.0,0.0,0.0,0.0,0.0,0.0,0.0,0.0,0.0,0.0,0.0,0.0,0.0,0.0,0.0,0.0,0.0,0.0,0.0,0.0,0.0,0.0,0.0,0.0,0.0,0.0,0.0,0.0,0.0,0.0,0.0,-2.0107,-2.3247,-2.5581,-2.6386,-2.6906,-2.6831,-2.5955,-2.5963,-2.4904,-2.2361,-2.0308,0.0,0.0,0.0,0.0,0.0,0.0,0.0,0.0,0.0,0.0,0.0,0.0,0.0,0.0,0.0,0.0,0.0,0.0,0.0,0.0,0.0,0.0,0.0,0.0,0.0,0.0,0.0,0.0,0.0,0.0,0.0,0.0,0.0,0.0,0.0,0.0,0.0,0.0,0.0,0.0,0.0,0.0,0.0,0.0,0.0,0.0,0.0,0.0,0.0,0.0,0.0,0.0,0.0,-3.0458,-3.1036,-3.1618,-3.2439,-3.3299,-3.4021,-3.1137,-3.0333,-3.0833,-2.7852,0.0,0.0,0.0,0.0,0.0,0.0,0.0,0.0,0.0,0.0,0.0,0.0,0.0,0.0,0.0,0.0,0.0,0.0,0.0,0.0,0.0,0.0,-2.6077,-2.601,-2.7085,-2.6986,-2.2773,0.0,0.0,0.0,0.0,0.0,0.0,0.0,0.0,0.0,0.0,0.0,-2.2214,-2.47,-2.651,-2.7264,-2.7593,-2.7344,-2.6317,-2.6236,-2.5446,-2.3614,-2.1572,-1.9619,0.0,0.0,0.0,0.0,0.0,0.0,0.0,0.0,0.0,0.0,0.0,0.0,0.0,0.0,0.0,0.0,0.0,0.0,0.0,0.0,0.0,0.0,0.0,0.0,0.0,0.0,0.0,0.0,0.0,0.0,0.0,0.0,-1.9085,-2.1748,0.0,0.0,0.0,0.0,0.0,0.0,0.0,0.0,0.0,0.0,0.0,0.0,0.0,-2.7825,-2.8685,-3.1796,-3.3075,-3.2536,-3.5445,-3.651,-3.5905,-3.6776,-3.7656,-3.846,-3.8003,0.0,-3.3609,-3.2403,0.0,0.0,0.0,0.0,0.0,0.0,0.0,0.0,0.0,0.0,0.0,0.0,0.0,0.0,0.0,0.0,0.0,0.0,0.0,0.0,0.0,0.0,-3.0379,-3.0362,-3.0497,-3.0459,-2.9832,-2.6361,-2.281,-2.0903,-1.9982,-1.8676,0.0,0.0,0.0,0.0,0.0,0.0,-2.3102,-2.5578,-2.7424,-2.8233,-2.9019,-2.8829,-2.7269,-2.7132,-2.6098,-2.3652,-2.3201,-2.1948,-1.9582,-1.8603,0.0,0.0,0.0,0.0,0.0,0.0,0.0,0.0,0.0,0.0,0.0,0.0,0.0,0.0,0.0,0.0,0.0,0.0,0.0,0.0,0.0,0.0,0.0,0.0,0.0,0.0,0.0,0.0,0.0,-1.868,-2.2512,-2.4111,-2.556,-2.5927,0.0,0.0,0.0,0.0,0.0,0.0,0.0,0.0,0.0,-3.2218,-3.4064,-3.5457,-3.6344,-3.8238,-3.9028,-3.87,-4.0154,-4.0673,-4.0308,-4.0696,-4.1062,-4.1424,-4.1396,-4.0534,-3.8935,-3.6166,-3.409,-3.2519,0.0,0.0,0.0,0.0,-3.1078,-3.0944,-3.2707,-3.3566,-3.3601,-3.1779,0.0,0.0,0.0,0.0,0.0,0.0,0.0,-2.8389,-2.9336,-3.072,-3.2008,-3.2501,-3.2596,-3.2632,-3.2615,-3.0525,-2.7865,-2.5264,-2.4428,-2.307,-1.9606,-1.9016,0.0,0.0,0.0,-2.2916,-2.5378,-2.7024,-2.8271,-2.9099,-2.9511,-2.9077,-2.7389,-2.7288,-2.6422,-2.4294,-2.3761,-2.2816,-2.126,-2.0035,-1.8237,0.0,0.0,0.0,0.0,0.0,0.0,0.0,0.0,0.0,0.0,0.0,0.0,0.0,0.0,0.0,0.0,0.0,0.0,0.0,0.0,0.0,0.0,0.0,0.0,0.0,0.0,0.0,0.0,-2.2142,-2.5639,-2.7151,-2.9398,-3.0158,0.0,0.0,0.0,0.0,0.0,0.0,-3.1376,-3.4077,-3.6317,-3.795,-3.988,-4.132,-4.2175,-4.2787,-4.3096,-4.3079,-4.3102,-4.3102,-4.3079,-4.3066,-4.3085,-4.3063,-4.2998,-4.2981,-4.2731,-3.958,-3.7755,-3.6857,-3.555,-3.4891,-3.4837,-3.6014,-3.6073,-3.5825,-3.7677,-3.8307,-3.7983,-3.6098,-3.4494,-3.281,-3.0052,0.0,0.0,0.0,0.0,-3.0945,-3.216,-3.2918,-3.3486,-3.3903,-3.4054,-3.4072,-3.4017,-3.3542,-3.2193,-2.9061,-2.8233,-2.6948,-2.3417,-2.2628,0.0,-2.2464,-2.351,-2.512,-2.7323,-2.8135,-2.8797,-2.9607,-2.97,-2.9004,-2.7336,-2.7255,-2.6556,-2.482,-2.4151,-2.339,-2.2373,-2.1235,-1.9709,-1.7766,0.0,0.0,0.0,0.0,0.0,0.0,0.0,0.0,0.0,0.0,0.0,0.0,0.0,0.0,0.0,0.0,0.0,0.0,0.0,0.0,0.0,0.0,0.0,0.0,0.0,0.0,0.0,0.0,0.0,-3.2228,-3.4135,0.0,0.0,0.0,0.0,-3.2501,-3.3371,-3.4956,-3.742,-3.8503,-3.9815,-4.1489,-4.1662,-4.2126,-4.294,-4.3049,-4.3069,-4.2998,-4.3069,-4.3069,-4.3017,-4.3017,-4.2963,-4.2908,-4.2908,-4.2908,-4.2889,-4.2678,-4.2065,-4.128,-4.1113,-4.0578,-3.9833,-3.9852,-3.9831,-3.9812,-3.9945,-3.9983,-3.9964,-3.9831,-3.7604,-3.48,-3.3868,-3.2953,0.0,0.0,-3.4659,-3.5913,-3.5951,-3.5969,-3.5799,-3.5022,-3.4832,-3.4832,-3.4832,-3.4813,-3.4036,-3.1497,-3.0392,-2.9289,-2.7494,0.0,-2.5925,-2.5868,-2.5918,-2.6585,-2.8229,-2.8476,-2.8815,-2.9605,-2.9699,-2.9004,-2.7336,-2.7255,-2.6556,-2.482,-2.4712,-2.4021,-2.2469,-2.2381,-2.1202,-1.8676,-1.7005,0.0,0.0,0.0,0.0,0.0,0.0,0.0,0.0,0.0,0.0,0.0,0.0,0.0,0.0,0.0,0.0,0.0,0.0,0.0,0.0,0.0,0.0,0.0,0.0,0.0,0.0,0.0,0.0,-3.5098,-3.7382,0.0,-3.7165,-3.7275,-3.7332,-3.7074,-3.8306,-3.973,-4.1197,-4.2066,-4.3047,-4.4201,-4.4186,-4.4339,-4.4664,-4.4647,-4.4647,-4.4684,-4.4647,-4.4629,-4.4611,-4.4556,-4.4537,-4.4518,-4.4499,-4.4499,-4.4499,-4.4459,-4.3637,-4.243,-4.2374,-4.2125,-4.1857,-4.2309,-4.2153,-4.1791,-4.2345,-4.1812,-4.0686,-3.9602,-3.8441,-3.7338,-3.652,-3.5663,-3.5037,-3.5322,-3.5836,-3.6179,-3.559,-3.5837,-3.6027,-3.5116,-3.4908,-3.4908,-3.4908,-3.4908,-3.4643,-3.3752,-3.2936,-3.1514,-2.8745,-2.8442,-2.8203,-2.7093,-2.7415,-2.814,-2.9206,-2.9357,-2.9416,-2.9663,-2.9701,-2.9231,-2.8068,-2.7558,-2.6575,-2.487,-2.4341,-2.3326,-2.1639,-2.1673,-2.1045,-1.9572,-1.8514,-1.6437,0.0,0.0,0.0,0.0,0.0,0.0,0.0,0.0,0.0,0.0,0.0,0.0,0.0,0.0,0.0,0.0,0.0,0.0,0.0,0.0,0.0,0.0,0.0,0.0,0.0,0.0,-3.5155,-3.7762,-4.0269,-4.1335,-4.0215,-4.1155,-4.1617,-4.103,-4.2027,-4.3008,-4.3857,-4.4397,-4.4937,-4.5512,-4.5495,-4.5476,-4.5533,-4.5476,-4.5495,-4.5531,-4.5495,-4.5476,-4.5457,-4.5419,-4.538,-4.5361,-4.5379,-4.5378,-4.5359,-4.5317,-4.4669,-4.3675,-4.3595,-4.3554,-4.3454,-4.3368,-4.2981,-4.2525,-4.255,-4.1787,-4.0644,-3.9542,-3.899,-3.8686,-3.8175,-3.7414,-3.6749,-3.673,-3.6711,-3.6502,-3.5666,-3.5875,-3.6046,-3.5116,-3.4927,-3.4927,-3.4889,-3.4908,-3.4908,-3.4908,-3.4282,-3.2917,-3.0395,-3.043,-3.0335,-2.8903,-2.9412,-3.0056,-3.022,-3.024,-3.011,-2.9757,-2.9701,-2.9362,-2.8499,-2.7744,-2.6707,-2.5329,-2.4549,-2.3498,-2.2042,-2.181,-2.1333,-2.0458,-1.9439,-1.7638,-1.5068,0.0,0.0,0.0,0.0,0.0,0.0,0.0,0.0,0.0,0.0,0.0,0.0,0.0,0.0,0.0,0.0,0.0,0.0,0.0,0.0,0.0,0.0,0.0,-3.3049,-3.5322,-3.7868,-4.0438,-4.289,-4.3722,-4.2019,-4.3378,-4.4395,-4.44,-4.4381,-4.4726,-4.5495,-4.5477,-4.5438,-4.5438,-4.5458,-4.5477,-4.5475,-4.5477,-4.5477,-4.5477,-4.5477,-4.5477,-4.5477,-4.5475,-4.5416,-4.5335,-4.5335,-4.5316,-4.5297,-4.5297,-4.5275,-4.5192,-4.5125,-4.5057,-4.4801,-4.3099,-4.2469,-4.2223,-4.0555,-3.9946,-3.9949,-3.9908,-3.9402,-3.8838,-3.88,-3.8232,-3.7605,-3.7566,-3.7509,-3.728,-3.6464,-3.6274,-3.6065,-3.5116,-3.4964,-3.5002,-3.4927,-3.4927,-3.4946,-3.4908,-3.4319,-3.354,-3.2596,-3.2552,-3.2336,-3.1379,-3.1963,0.0,-3.1218,-3.1104,-3.0784,-2.9883,-2.9735,-2.9397,-2.8623,-2.7778,-2.6968,-2.6148,-2.539,-2.4593,-2.3727,-2.2992,-2.2201,-2.1363,-1.9755,-1.8512,-1.7685,0.0,0.0,0.0,0.0,0.0,0.0,0.0,0.0,0.0,0.0,0.0,0.0,0.0,0.0,0.0,0.0,0.0,0.0,0.0,0.0,0.0,0.0,-3.6353,-3.6579,-3.935,-4.203,-4.3917,-4.5302,-4.5936,-4.5437,-4.5802,-4.6302,-4.6935,-4.6398,-4.6148,-4.6359,-4.634,-4.634,-4.634,-4.6913,-4.7237,-4.7297,-4.7237,-4.7238,-4.7298,-4.7238,-4.7218,-4.7218,-4.7155,-4.6808,-4.6175,-4.6175,-4.581,-4.5213,-4.5213,-4.517,-4.5061,-4.5148,-4.5103,-4.4934,-4.4455,-4.3923,-4.3259,-4.2109,-4.1355,-4.081,-4.0119,-3.9759,-3.9496,-3.889,-3.8133,-3.7337,-3.6806,-3.6635,-3.6445,-3.5627,-3.5855,-3.6064,-3.5116,-3.5438,-3.576,-3.504,-3.5439,-3.5704,-3.5022,-3.4756,-3.4339,-3.3486,-3.3372,-3.3105,-3.2269,-3.2343,-3.2174,-3.1288,-3.1174,-3.0818,-2.9902,-2.9771,-2.9695,-2.9521,-2.8199,-2.7025,-2.6218,-2.4877,-2.4024,-2.3777,-2.302,-2.2511,-2.2324,-2.068,-1.9722,0.0,0.0,0.0,0.0,0.0,0.0,0.0,0.0,0.0,0.0,0.0,0.0,0.0,0.0,0.0,0.0,0.0,0.0,0.0,0.0,0.0,0.0,-3.8166,-4.0726,-4.1091,-4.2876,-4.4741,-4.6359,-4.6993,-4.73,-4.73,-4.7607,-4.7836,-4.7931,-4.7509,-4.7221,-4.72,-4.6835,-4.6604,-4.6604,-4.708,-4.7329,-4.7369,-4.7712,-4.7884,-4.7966,-4.7884,-4.7862,-4.7884,-4.784,-4.7532,-4.7054,-4.7013,-4.6511,-4.5745,-4.5703,-4.5426,-4.501,0.0,0.0,0.0,0.0,-4.3919,-4.3084,-4.2185,-4.162,-4.1111,-4.0195,-3.9889,-3.9816,-3.9342,-3.8603,-3.7847,-3.7452,-3.7053,-3.6653,-3.6235,-3.6463,-3.6673,-3.6083,-3.616,-3.6177,-3.5552,-3.5609,-3.559,-3.5022,-3.4908,0.0,-3.4282,-3.4225,-3.3977,-3.3158,-3.3382,-3.3306,-3.24,-3.1982,-3.1436,-3.05,-3.005,-2.9859,-2.9926,-2.8698,0.0,0.0,0.0,-2.5241,-2.4898,-2.4091,0.0,0.0,0.0,-2.2642,-2.3351,-2.2393,0.0,0.0,-2.0657,-2.0263,0.0,0.0,0.0,0.0,0.0,0.0,0.0,0.0,0.0,0.0,0.0,0.0,0.0,0.0,0.0,0.0,-4.2112,-4.4958,-4.5918,-4.6031,-4.6492,-4.7818,-4.8068,-4.8144,-4.8123,-4.8814,-4.8987,-4.825,-4.8139,-4.8043,-4.7903,0.0,0.0,0.0,0.0,-4.694,-4.694,-4.7704,-4.8108,-4.8171,-4.8108,-4.8108,-4.8171,-4.8086,-4.8006,-4.793,-4.7842,-4.7362,-4.6599,-4.6458,-4.5836,-4.4991,-4.4896,-4.4811,-4.4668,-4.3853,-4.3019,-4.2166,-4.1465,0.0,0.0,-4.0135,-3.9889,-3.987,-3.9797,-3.9267,-3.8681,-3.8646,-3.8038,-3.743,-3.747,-3.749,-3.7433,-3.7298,-3.6825,-3.6347,-3.6103,-3.559,-3.5115,-3.4946,-3.4908,-3.4908,-3.4908,-3.4945,-3.4754,-3.4029,-3.4651,-3.4859,-3.3913,-3.317,-3.2338,-3.1307,-3.0497,0.0,-3.0007,-2.92,-2.8723,-2.8793,-2.8141,-2.7388,-2.6581,-2.5888,-2.5843,-2.6522,-2.5857,-2.6232,-2.7713,-2.7769,-2.7862,-2.7865,-2.4015,-2.3429,0.0,0.0,0.0,0.0,0.0,0.0,0.0,0.0,0.0,0.0,0.0,0.0,0.0,0.0,0.0,-4.34,-4.586,-4.7779,-4.925,-4.8888,-4.8353,-4.7966,-4.8544,-4.8947,-4.8884,-4.9037,-4.9362,-4.9896,-4.9264,-4.8553,-4.7879,-4.8296,-4.8277,-4.757,-4.8869,-4.9576,-4.9576,-4.9729,-4.9824,-4.9847,-4.9824,0.0,-4.9759,-4.9735,-4.9391,-4.8757,-4.871,-4.8191,-4.7334,-4.6616,-4.5765,-4.4862,-4.4199,-4.3976,-4.3904,-4.3004,-4.2128,-4.1408,-4.1256,-4.0745,-4.0116,-3.9946,-3.9889,-3.9797,-3.9134,-3.8812,0.0,-3.7925,-3.7583,-3.743,-3.747,-3.7034,-3.6539,-3.6521,-3.65,-3.6247,-3.5419,-3.5647,-3.5817,-3.5059,-3.4908,-3.4908,-3.4908,-3.4945,-3.4944,-3.4792,-3.4961,-3.477,-3.3845,-3.3634,-3.2952,-3.1293,-3.1027,-3.0682,-3.0064,-2.92,-2.8723,-2.8793,-2.8689,-2.8292,-2.7478,-2.7918,-2.7931,-2.7465,-2.7355,-2.7466,-2.7777,-2.7838,-2.8236,-2.8893,-2.7311,-2.6869,0.0,0.0,0.0,0.0,0.0,0.0,0.0,0.0,0.0,0.0,0.0,-3.5892,0.0,0.0,-4.3395,-4.6282,-4.7799,-4.8717,-4.9092,-4.9535,-4.963,-4.9207,-4.9152,-4.9326,-4.9704,-4.9762,-4.9934,-5.0374,-5.001,-4.9548,-4.9124,-4.9102,-4.8888,-4.8468,-4.9251,-4.9691,-4.9691,-5.0092,-5.0302,-5.0302,-5.0302,-5.0278,-5.0255,-5.0255,-5.0002,-4.9596,-4.9523,-4.8751,-4.7452,-4.6125,-4.5318,-4.4819,-4.4004,-4.3971,-4.4298,-4.3815,-4.3109,-4.2328,-4.1935,-4.1234,-4.0435,-4.0022,-3.9889,-3.9813,-3.9418,-3.9304,-3.921,-3.8795,-3.8681,-3.8681,-3.8722,-3.8156,-3.7547,-3.7547,-3.7013,-3.6341,-3.5759,-3.5683,-3.555,-3.5059,-3.4927,-3.4908,-3.4908,-3.4945,-3.5001,-3.5001,-3.502,-3.4887,-3.4395,-3.3997,-3.3239,-3.1897,-3.1388,-3.0835,-3.0083,-2.9623,-2.944,-2.9499,-2.9527,-2.9369,-2.8957,-2.8924,-2.8918,-2.9002,-2.8605,-2.8828,-2.9697,-2.9329,-2.9583,-3.0371,-2.9547,-2.9396,0.0,0.0,0.0,0.0,0.0,0.0,0.0,0.0,-3.5315,-3.8507,-3.9738,-4.1258,-4.4662,-4.5855,-4.6799,-4.826,-4.9025,-4.9214,-4.8458,-4.9529,-5.039,-5.039,-4.9759,-4.9628,-5.0313,-5.039,-5.039,-5.039,-5.039,-5.0313,-5.016,-4.9618,-4.9251,-4.9098,-4.9251,-4.9328,-4.9328,-4.9977,-5.0302,-5.0302,-5.0278,-5.0278,-5.0278,-5.0278,-5.0255,-5.0207,-5.0133,-4.9201,-4.7625,-4.6228,-4.5445,-4.5085,-4.444,-4.4478,-4.4857,-4.4535,-4.3956,-4.3232,-4.2446,-4.1703,-4.0957,-4.0173,-3.9889,-3.9889,-3.9889,-3.9889,-3.9889,-3.9889,-3.9889,-3.9911,-3.9975,-3.941,-3.8803,-3.8822,-3.7755,-3.6703,-3.6576,-3.5911,-3.5303,-3.5248,-3.5059,-3.4908,-3.4908,-3.4945,-3.4983,-3.4983,-3.5001,-3.5001,-3.4983,-3.4377,-3.36,-3.2711,-3.1861,-3.0989,-3.0067,-3.0049,-3.0128,-3.019,-3.0185,-3.0275,-3.0442,-2.9625,-2.9582,-3.0542,-2.9698,-2.996,-3.1373,-3.0732,-3.0821,-3.1597,-3.1006,-3.102,-2.8338,-2.786,0.0,-3.3178,-3.4026,-3.5926,0.0,0.0,-4.4778,-4.7432,-4.8067,-4.8259,-4.874,-4.8913,-4.924,-5.008,-5.0289,-5.0265,-5.0058,-5.0187,-5.0302,-5.0302,-5.0272,-5.0275,-5.0325,-5.0367,-5.039,-5.0302,-5.0367,-5.0065,-4.9293,-4.9824,-4.9843,-4.9117,-4.9786,-5.0168,-5.0168,-5.0264,-5.0302,-5.0302,-5.0255,-5.0212,-5.0212,-5.0158,-5.0158,-5.0207,-5.0133,-4.9518,-4.856,-4.8344,-4.7397,-4.6051,-4.5956,-4.5501,-4.4724,-4.3227,-4.2574,-4.2337,-4.1594,-4.123,-4.0976,-4.0173,-3.9889,-3.9889,-3.9889,-3.9889,-3.9889,-3.9889,-3.9889,-3.9911,-3.9975,-3.941,-3.8822,-3.8861,-3.8211,-3.7561,-3.7471,-3.6786,-3.614,-3.6084,-3.542,-3.4908,-3.4908,-3.4908,-3.4908,-3.4908,-3.4964,-3.4964,-3.4926,-3.4832,-3.4415,-3.3468,-3.2694,-3.1612,-3.0037,-3.0038,-3.0102,-3.0117,-3.0176,-3.0548,-3.1312,-3.051,-3.0499,-3.1429,-3.0599,-3.0279,-3.0533,-3.0436,-3.0845,-3.1696,-3.1592,-3.1187,-3.3062,0.0,0.0,0.0,-3.9561,-4.1838,-4.5705,-4.6454,-4.6914,-4.8933,-4.9375,-4.9529,-4.9969,-5.0085,-5.018,0.0,-5.0457,-5.0412,-5.0302,-4.9858,-4.9572,-4.9595,-4.9156,-4.9018,-4.9557,-5.0058,-5.0157,-4.9641,-5.0061,-5.0214,-4.987,-5.0153,-5.0149,-4.9805,-5.013,-5.0302,-5.0302,-5.0302,-5.0302,-5.0302,-5.0278,-5.0255,-5.0255,-5.0231,-5.0182,-5.0095,-4.9588,-4.9112,-4.8647,-4.8136,-4.7529,-4.6847,-4.6373,-4.5975,-4.5501,-4.4308,-4.3478,-4.2969,-4.2726,-4.2248,-4.1704,-4.1438,-4.1351,-4.1275,-4.0802,-4.0669,-4.0555,-4.0022,-3.9889,-3.9911,-3.9975,-3.9409,-3.8822,-3.888,-3.827,-3.7641,-3.7661,-3.7319,-3.6844,-3.635,-3.5932,-3.5495,-3.4984,-3.4908,-3.4908,-3.4908,-3.4927,-3.4927,-3.4908,-3.4888,-3.4586,-3.3715,-3.2955,-3.2226,-3.1542,-3.1061,-3.0826,-3.0841,-3.0886,-3.1087,-3.1484,-3.1599,-3.1862,-3.2283,-3.1947,-3.2039,-3.2602,-3.1641,-3.1595,-3.242,-3.146,-3.0816,-3.5165,0.0,0.0,-4.0377,-4.3691,-4.6358,-4.6781,-4.7953,-4.9202,-5.0141,-5.018,-5.0162,-5.0485,-5.0178,-4.9852,-4.9745,-4.9896,-5.0026,-4.9977,-4.9438,-4.9033,-4.9056,-4.8289,-4.7884,-4.8308,-4.9114,-4.9347,-4.8761,-4.9503,-5.0,-5.0046,-5.021,-5.0302,-5.0302,-5.0302,-5.0302,-5.0302,-5.055,-5.055,-5.0302,-5.0508,-5.0508,-5.0302,-5.0302,-5.0231,-5.007,-4.9429,-4.9105,-4.8969,-4.8344,-4.7946,-4.77,-4.7112,-4.6601,-4.6108,-4.5483,-4.4651,-4.3838,-4.3729,-4.3213,-4.2573,-4.2442,-4.2412,-4.2299,-4.1711,-4.1541,-4.1351,-4.0517,-4.0271,-4.0214,-4.0051,-3.958,-3.9182,-3.9242,-3.8785,-3.8328,-3.8366,-3.8099,-3.7679,-3.7051,-3.6689,-3.6234,-3.5381,-3.523,-3.5154,-3.4927,-3.4908,-3.4908,-3.4908,-3.4888,-3.4586,-3.3808,-3.3253,-3.283,-3.2618,-3.201,-3.1683,-3.173,-3.173,-3.1859,-3.2172,-3.2535,-3.2837,-3.3115,-3.291,-3.3152,-3.3833,-3.2391,-3.2249,-3.3287,-3.1375,-3.0749,0.0,0.0,-3.8635,-4.1914,-4.5342,-4.8353,-4.9982,-5.2264,-5.3859,-5.305,-5.2286,-5.15,-5.0736,-4.9218,-4.8065,-4.8065,-4.8675,-4.9146,-4.914,-4.9098,-4.9056,-4.901,-4.8289,-4.7449,0.0,-4.7331,-4.7853,-4.7747,-4.8617,-4.9137,-4.9137,-4.9882,-5.0302,-5.0302,-5.0302,-5.0302,-5.0302,-5.1142,-5.1142,-5.0321,-5.107,-5.1056,-5.0302,-5.0302,-5.0231,-5.0108,-5.007,-4.9993,-4.9841,-4.9822,-4.9349,-4.8647,-4.8628,-4.7624,-4.6203,-4.6165,-4.5565,-4.4663,-4.3942,-4.3634,-4.3434,-4.2654,-4.2412,-4.2412,-4.2375,-4.2375,-4.2204,-4.1389,-4.1162,-4.0972,-4.0203,-4.0038,-4.0078,-4.0138,-4.0139,-4.01,-4.004,-3.9372,-3.8722,-3.8558,-3.7856,-3.7003,-3.619,-3.6058,-3.5795,-3.5022,-3.4908,-3.4908,-3.4908,-3.4908,-3.4623,-3.3881,-3.3767,-3.3443,-3.2676,-3.258,-3.2559,-3.2549,-3.2569,-3.2966,-3.3891,-3.3146,-3.3104,-3.3957,-3.3197,-3.2851,-3.2949,-3.2102,-3.2538,-3.4096,-3.1645,-3.1367,0.0,0.0,-4.1952,-4.5341,-4.7507,-4.91,-5.0293,-5.1193,-5.1689,-5.1401,-5.0232,-4.9005,-4.806,-4.7007,-4.6261,-4.6219,-4.7346,-4.8452,-4.9003,-4.9056,-4.88,-4.8205,-4.7381,0.0,0.0,0.0,0.0,-4.69,-4.8205,-4.901,-4.8982,-4.9816,-5.0278,-5.0255,-5.0278,-5.0278,-5.0236,-5.1089,-5.1089,-5.0231,-5.0541,-5.0541,-5.0212,-5.0212,-5.0163,-5.0031,-5.0031,-4.9978,-4.9898,-4.9898,-4.9728,-4.9386,-4.8268,-4.7851,-4.7643,-4.5956,-4.5496,-4.5609,-4.4781,-4.4448,-4.4361,-4.4132,-4.4061,-4.3966,-4.3417,-4.3265,-4.3095,-4.2242,-4.1639,-4.1209,-4.0927,-4.0475,-4.0117,-4.0137,-4.0098,-4.0057,-4.0036,-3.9766,-3.9342,-3.8707,-3.8388,-3.7955,-3.7062,-3.6496,-3.5874,-3.504,-3.4908,-3.4927,-3.4945,-3.5001,-3.4943,-3.4748,-3.4725,-3.4628,-3.4344,-3.3811,-3.3484,-3.3532,-3.3532,-3.3697,-3.4044,-3.4293,-3.4576,-3.4928,-3.4654,-3.4576,-3.4699,-3.3205,-3.3108,-3.4229,-3.2212,-3.1912,-4.1437,-4.3234,-4.444,-4.7559,-4.8977,-4.9767,-5.0385,-5.0728,-5.0626,-4.975,-4.8215,-4.6567,-4.5032,-4.3598,-4.2948,-4.3827,-4.5375,-4.6959,-4.843,-4.8865,-4.8819,-4.82,-4.7662,-4.7291,0.0,0.0,0.0,-4.6868,-4.8134,-4.8958,-4.8909,-4.9744,-5.0207,-5.0182,-5.0207,-5.0207,-5.0163,-5.1326,-5.1612,-5.1059,-5.0474,-5.0207,-5.0163,-5.0163,-5.0089,-5.0005,-5.0005,-4.9978,-4.9898,-4.9898,-4.9898,-4.9784,-4.8704,-4.8268,-4.806,-4.6752,-4.6222,-4.607,-4.5198,-4.487,-4.4846,-4.4889,-4.4895,-4.48,-4.4289,-4.4137,-4.3947,-4.3095,-4.2511,-4.2025,-4.1459,-4.0931,-4.0459,-4.0194,-4.0077,-4.0036,-4.0036,-3.9954,-3.9738,-3.9123,-3.905,-3.8807,-3.7913,-3.7122,-3.6443,-3.5874,-3.5571,-3.5306,-3.5039,-3.5075,-3.5147,-3.52,-3.5196,-3.5193,-3.5215,-3.4683,-3.4391,-3.4461,-3.4458,-3.4489,-3.4529,-3.5028,-3.5315,-3.5364,-3.5398,-3.5301,-3.5104,-3.3936,-3.3544,-3.3805,-3.2682,-3.2471,-4.2545,-4.4246,-4.608,-4.8544,-4.9729,-5.0325,-5.0333,-5.0903,-5.0707,-4.8173,-4.6218,-4.419,0.0,0.0,-3.8456,-4.0939,-4.2852,-4.4895,-4.7455,-4.8544,-4.9052,0.0,0.0,0.0,0.0,0.0,0.0,-4.7745,0.0,-4.8909,-4.8909,-4.967,-5.0108,-5.0108,-5.0108,-5.0108,-5.0108,-5.1668,-5.2505,-5.2563,-5.0907,-5.0108,-5.0108,-5.0108,-5.0057,-4.9986,-4.9986,-4.9978,-4.9898,-4.9898,-4.9898,-4.9898,-4.9841,-4.8875,-4.7605,-4.8344,-4.7643,-4.6203,-4.5331,-4.5028,-4.5028,-4.499,-4.4971,-4.4952,-4.4914,-4.4895,-4.4743,-4.3985,-4.372,-4.3365,-4.1838,-4.1369,-4.1125,-4.0424,-4.0156,-4.0096,-4.0096,-3.9975,-3.9889,-3.9804,-3.9804,-3.9539,-3.8745,-3.7995,-3.7468,-3.743,-3.6824,-3.6046,-3.5172,-3.5148,-3.52,-3.52,-3.5196,-3.5209,-3.5209,-3.5209,-3.5226,-3.5312,-3.5293,-3.5289,-3.5296,-3.5315,-3.5296,-3.5315,-3.5364,-3.5023,-3.427,-3.4231,-3.384,-3.3133,-3.3075,-3.3099,-4.5736,-4.7302,-4.843,-4.9671,-5.0149,-5.0153,-4.9548,-4.9105,-4.7895,-4.4824,-4.2259,-3.9451,0.0,0.0,0.0,-3.7691,-4.1285,0.0,-4.7455,-4.8544,0.0,-4.8933,0.0,-4.8884,-4.8712,-4.9261,0.0,0.0,-4.9352,-4.8789,-4.8738,-4.9619,-5.0082,-5.0031,-5.0082,-5.0082,-5.0031,-5.0449,-5.1285,-5.2501,-5.0881,-5.0082,-5.0031,-5.0031,-5.0005,-4.9925,-4.9925,-4.9925,-4.9898,-4.9898,-4.9898,-4.9822,-4.9235,-4.9102,-4.914,-4.8098,-4.787,-4.7927,-4.7055,-4.6752,-4.6657,-4.6051,-4.5862,-4.5748,-4.5103,-4.4895,-4.4857,-4.4649,-4.418,-4.3681,-4.327,-4.2227,-4.1277,-4.1127,-4.0492,-3.9933,-3.9889,-3.9848,-3.9804,-3.9735,-3.9823,-3.9624,-3.8892,-3.859,-3.8249,-3.7623,-3.7338,-3.6901,-3.6083,-3.5528,-3.5198,-3.5212,-3.5193,-3.5209,-3.5209,-3.5261,-3.5277,-3.5312,-3.5304,-3.5315,-3.5364,-3.533,-3.536,-3.5443,-3.5407,-3.5339,-3.5239,-3.4533,-3.4437,-3.4847,-3.4186,-3.4238,-4.7761,-4.8984,-4.9729,-5.0187,-5.0034,-4.9369,-4.7826,-4.6505,-4.4457,-4.0403,-3.7498,0.0,0.0,0.0,0.0,0.0,0.0,0.0,-4.629,-4.8086,-4.9075,0.0,-4.9581,0.0,-4.9838,-5.0551,-5.1206,0.0,-5.0892,-5.0218,-4.9822,-5.0301,-5.0404,-4.9952,-5.0005,-5.0366,-5.1052,-5.0312,-5.0787,-5.2437,-5.0802,-5.0005,-4.9952,-4.9952,-4.9952,-4.9898,-4.9898,-4.9898,-4.9898,-4.9898,-4.9898,-4.9841,-4.9386,-4.9273,-4.9292,-4.8704,-4.8572,-4.8666,-4.8534,-4.8268,-4.7776,-4.6632,-4.5962,-4.5539,-4.5071,-4.4919,-4.4895,-4.4895,-4.4621,-4.4231,-4.3897,-4.2857,-4.1907,-4.1966,-4.095,-4.0068,-4.0385,-4.0113,-3.9826,-3.98,-3.9845,-3.9778,-3.9407,-3.9332,-3.9181,-3.8765,-3.8366,-3.7947,-3.7509,-3.6441,-3.5598,-3.5231,-3.5209,-3.5209,-3.5209,-3.5261,-3.5293,-3.5289,-3.53,-3.533,-3.5398,-3.535,-3.5345,-3.5449,-3.5407,-3.5262,-3.4995,-3.4841,-3.4648,-3.4404,-3.4655,-3.4841,-4.8697,-4.9519,-5.0149,-5.0149,-4.9614,-4.8414,-4.5799,-4.3694,-4.0845,-3.5691,0.0,-3.0032,-2.7491,-2.7956,-2.9808,-3.3127,0.0,-4.117,-4.4628,-4.7207,-4.8808,-4.8986,-5.0348,-5.1205,-5.1125,-5.1925,-5.2362,-5.2267,-5.2551,-5.2286,-5.1263,-5.1206,-5.0808,-4.9917,-4.9898,-5.0694,-5.2381,-5.0732,-5.0732,-5.2381,-5.0694,-4.9898,-4.9898,-4.9898,-4.9898,-4.9898,-4.9898,-4.9898,-4.9898,-4.9898,-4.9898,-4.9898,-4.9898,-4.9462,-4.8932,-4.9633,-4.947,-4.8977,-4.9652,-4.9318,-4.8313,-4.6903,-4.5816,-4.5047,-4.5005,-4.4962,-4.4895,-4.4895,-4.4943,-4.4839,-4.4159,-4.3333,-4.2711,-4.2826,-4.1431,-4.0285,-4.1117,-4.0539,-3.9889,-3.9889,-3.9911,-3.9933,-3.9996,-3.9922,-3.9924,-4.0098,-3.9414,-3.8899,-3.8918,-3.745,-3.619,-3.5592,-3.5439,-3.542,-3.5515,-3.5586,-3.5576,-3.5473,-3.5454,-3.5431,-3.5398,-3.5445,-3.5445,-3.5412,-3.5528,-3.5177,-3.4372,-3.5122,-3.4764,-3.3364,-3.4841,-3.5136,-4.7777,-4.8659,-4.9308,-4.9308,-4.9194,-4.8239,-4.4991,-4.1858,0.0,0.0,0.0,-2.6517,-2.3957,-2.5906,0.0,-3.1427,0.0,0.0,0.0,0.0,-4.7471,0.0,0.0,0.0,0.0,0.0,0.0,0.0,0.0,-5.3518,-5.1319,-5.1206,-5.0808,-4.9917,-4.9898,-5.0694,-5.2381,-5.0732,-5.0732,-5.2381,-5.0694,-4.9898,-4.9898,-4.9898,-4.9898,-4.9898,-4.9898,-4.9898,-4.9898,-4.9898,-4.9898,-4.9898,-4.9898,-4.9803,-4.9709,-4.9841,-4.9857,-4.9789,-4.9868,-4.8946,-4.7644,-4.7308,-4.6664,-4.5843,-4.5122,-4.4895,-4.4895,-4.4895,-4.4943,-4.4995,-4.4909,-4.3751,-4.2802,-4.3526,-4.1765,-4.0157,-4.0965,-4.0431,-3.9826,-3.9889,-3.9994,-4.0057,-4.0077,-3.9527,-3.9376,-4.0158,-3.9433,-3.8861,-3.8974,-3.7523,-3.6682,-3.7215,-3.668,-3.6547,-3.7215,-3.7326,-3.7053,-3.6342,-3.6285,-3.6029,-3.5417,-3.6029,-3.6082,-3.5493,-3.6138,-3.608,-3.5276,-3.5418,-3.5348,-3.5072,-3.5412,-3.5507,-4.7503,-4.8407,-4.8984,-4.8544,-4.8086,-4.65,-4.18,0.0,0.0,0.0,-2.5256,-2.3288,-2.1607,0.0,0.0,0.0,0.0,0.0,0.0,0.0,0.0,0.0,0.0,0.0,0.0,0.0,0.0,0.0,0.0,-5.3821,-5.1338,-5.077,-5.0361,-4.9952,-4.9925,-5.0721,-5.2437,-5.1214,-5.1214,-5.2437,-5.1613,-5.0978,-5.058,-5.1016,-5.1206,-5.1206,-5.1206,-5.0959,-5.058,-5.058,-5.0315,-4.9898,-4.9898,-4.9898,-4.9898,-4.9898,-4.966,-4.9383,-4.9773,-4.8852,-4.7574,-4.7953,-4.6923,-4.5469,-4.51,-4.4962,-4.4919,-4.4967,-4.5033,-4.5038,-4.5057,-4.417,-4.3469,-4.4281,-4.3145,-4.1749,-4.1294,-4.0855,-4.0419,-4.007,-4.0057,-4.0098,-4.0138,-3.9834,-3.9738,-4.027,-3.9946,-3.966,-3.9733,-3.8623,-3.7838,-3.7747,-3.7439,-3.7379,-3.7778,-3.7833,-3.7504,-3.6658,-3.6569,-3.6396,-3.6055,-3.5956,-3.5971,-3.6085,-3.6046,-3.5844,-3.5495,-3.5502,-3.5528,-3.5565,-3.5604,-3.5604,-4.6679,-4.7697,-4.8411,-4.7933,-4.7016,-4.48,-3.924,-3.5095,0.0,0.0,-2.2409,-2.0958,-2.048,0.0,0.0,0.0,0.0,0.0,0.0,0.0,0.0,0.0,0.0,0.0,0.0,0.0,0.0,0.0,0.0,-5.3518,-5.1566,-5.0808,-5.038,-5.0263,-5.0388,-5.1109,-5.2465,-5.1802,-5.183,-5.2484,-5.2428,-5.2077,-5.149,-5.2115,-5.24,-5.24,-5.24,-5.1945,-5.1206,-5.1233,-5.0703,-4.9906,-4.9906,-4.9906,-4.9906,-4.9906,-4.9508,-4.9072,-4.9724,-4.8991,-4.7903,-4.8555,-4.7119,-4.5228,-4.5323,-4.5143,-4.4943,-4.508,-4.5125,-4.5103,-4.5057,-4.4456,-4.4005,-4.4368,-4.3942,-4.3046,-4.1611,-4.1133,-4.0791,-4.021,-4.0098,-4.0157,-4.0196,-4.0215,-4.0289,-4.0379,-4.0398,-4.0396,-4.0396,-3.9819,-3.9131,-3.8443,-3.8095,-3.7977,-3.815,-3.8016,-3.7571,-3.6757,-3.6638,-3.6527,-3.6381,-3.5875,-3.5837,-3.6358,-3.5931,-3.5641,-3.5515,-3.5528,-3.5553,-3.5601,-3.5596,-3.5604,-4.409,-4.5526,-4.692,-4.7627,-4.6596,-4.4265,-3.989,0.0,0.0,-2.495,-2.1951,-2.0442,-2.1158,-2.1541,-2.2764,0.0,0.0,0.0,0.0,0.0,0.0,0.0,0.0,0.0,0.0,0.0,0.0,0.0,0.0,-5.2532,-5.2305,-5.221,-5.185,-5.1111,-5.183,-5.2313,-5.24,-5.238,-5.238,-5.24,-5.24,-5.2362,-5.2305,-5.2381,-5.24,-5.24,-5.2456,-5.2001,-5.1206,-5.1349,-5.0817,-5.0005,-5.0005,-5.0005,-5.0005,-5.0005,-4.9948,-4.9891,-5.0019,-4.9512,-4.877,-4.8846,-4.7661,-4.6168,-4.6187,-4.5618,-4.501,-4.508,-4.5148,-4.517,-4.5103,-4.4519,-4.37,-4.2905,-4.2674,-4.237,-4.1497,-4.0722,-4.0172,-4.0096,-4.0138,-4.0196,-4.0196,-4.0289,-4.0398,-4.0398,-4.0398,-4.0396,-4.0389,-4.0386,-4.0345,-4.0261,-3.8834,-3.8211,-3.892,-3.8326,-3.7555,-3.6757,-3.6635,-3.6305,-3.5628,-3.6234,-3.6267,-3.5605,-3.6317,-3.6311,-3.5591,-3.5577,-3.5601,-3.5601,-3.5601,-3.5601,-4.2827,-4.4836,-4.6481,-4.6328,-4.5029,-4.2545,-3.7808,0.0,0.0,-2.4052,-2.1512,-2.0212,-2.0556,-2.1063,-2.1999,-2.3823,0.0,0.0,0.0,0.0,0.0,0.0,0.0,0.0,0.0,0.0,0.0,0.0,0.0,-5.3519,-5.2494,-5.2428,-5.2068,-5.1342,-5.2075,-5.2493,-5.252,-5.2547,-5.252,-5.2456,-5.2987,-5.3205,-5.3196,-5.3688,-5.3945,-5.3936,-5.3443,-5.276,-5.1972,-5.1513,-5.0783,-4.9933,-4.9959,-5.0005,-5.0005,-4.9933,-4.9682,-4.941,-4.9886,-4.9575,-4.8938,-4.8914,-4.809,-4.7048,-4.6572,-4.5788,-4.508,-4.5192,-4.5213,-4.5192,-4.517,-4.49,-4.4535,-4.4148,-4.3691,-4.3126,-4.2368,-4.157,-4.0845,-4.0367,-4.0308,-4.0325,-4.0379,-4.0411,-4.046,-4.0511,-4.0508,-4.0519,-4.0515,-4.0534,-4.0569,-4.0564,-3.9469,-3.8866,-3.9192,-3.8462,-3.7632,-3.6796,-3.669,-3.6555,-3.6285,-3.6078,-3.6073,-3.6273,-3.6164,-3.5919,-3.5608,-3.5601,-3.5612,-3.5673,-3.5673,-3.5643,-4.113,-4.3461,-4.5337,-4.4991,-4.3311,-4.0558,0.0,0.0,0.0,-2.3452,-2.1282,-2.0088,-2.0088,-2.0595,-2.1359,-2.2429,-2.3842,-2.609,0.0,0.0,0.0,0.0,0.0,0.0,0.0,0.0,0.0,0.0,-5.4743,-5.4287,-5.2588,-5.294,-5.2759,-5.1756,-5.249,-5.2794,-5.2574,-5.2601,-5.2547,-5.2484,-5.3385,-5.3908,-5.4067,-5.4636,-5.4931,-5.4933,-5.4107,-5.3253,-5.2436,-5.1646,-5.0783,-4.9978,-5.0005,-5.0005,-5.0031,-4.9978,-4.967,-4.9327,-4.9898,-4.9624,-4.9005,-4.8982,-4.8243,-4.7236,-4.6663,-4.5856,-4.5148,-4.5275,-4.5235,-4.5192,-4.5192,-4.5148,-4.5026,-4.4801,-4.416,-4.3363,-4.2603,-4.1819,-4.1072,-4.0513,-4.0413,-4.0447,-4.0499,-4.0508,-4.0554,-4.0583,-4.0593,-4.0621,-4.0621,-4.0621,-4.0621,-4.0621,-3.9851,-3.9225,-3.8975,-3.8383,-3.7574,-3.6485,-3.6612,-3.665,-3.6427,-3.6074,-3.6068,-3.6434,-3.6382,-3.6214,-3.5979,-3.5979,-3.601,-3.6052,-3.5789,-3.5643,-3.8573,-4.0902,-4.3025,-4.3806,-4.1552,-3.845,0.0,0.0,-2.6759,-2.3388,-2.1321,-2.0088,-2.0088,-2.0108,-2.0671,-2.2333,-2.3346,-2.539,-2.9612,0.0,0.0,0.0,0.0,0.0,0.0,0.0,0.0,0.0,-5.4161,0.0,-5.2588,-5.4153,-5.4286,-5.2531,-5.3411,-5.3449,-5.2512,-5.2574,-5.252,-5.2419,-5.3357,-5.4192,-5.4901,-5.4901,-5.4901,-5.4863,-5.4116,-5.329,-5.2436,-5.1699,-5.0869,-5.0082,-5.0031,-5.0057,-5.0108,-5.0108,-5.0089,-5.0114,-5.0255,-4.972,-4.9005,-4.9075,-4.7933,-4.6519,-4.65,-4.5884,-4.5213,-4.5297,-4.5235,-4.5192,-4.5192,-4.5148,-4.4916,-4.4102,-4.3365,-4.2603,-4.1781,-4.0994,-4.0398,-4.0398,-4.0444,-4.0489,-4.0489,-4.0564,-4.0588,-4.0588,-4.0588,-4.0621,-4.0687,-4.0635,-4.0621,-4.07,-3.992,-3.9044,-3.8176,-3.8092,-3.7365,-3.5631,-3.6331,-3.6408,-3.5541,-3.6331,-3.6426,-3.562,-3.7237,-3.7674,-3.6884,-3.6887,-3.6887,-3.6864,-3.5999,-3.5601,-3.3481,-3.5267,-3.6697,-3.6356,-3.5076,-3.3253,-3.0696,0.0,-2.5191,-2.2383,-2.0948,-2.0164,-2.0164,-2.0164,-2.1091,-2.393,-2.4618,-2.5848,0.0,0.0,0.0,0.0,0.0,0.0,0.0,0.0,0.0,0.0,-5.4512,-5.4398,-5.2703,-5.4207,-5.4332,-5.2612,-5.3438,-5.3503,-5.2627,-5.2101,-5.2049,-5.2484,-5.2805,-5.3651,-5.4901,-5.4901,-5.4628,-5.4097,-5.3271,-5.2463,-5.168,-5.0901,-5.0361,-5.0057,-5.0114,-5.0089,-5.0031,-5.0082,-5.0133,-5.0106,-4.9601,-4.9262,-4.8884,-4.7704,-4.6959,-4.6405,-4.5851,-4.5507,-4.5275,-4.5297,-4.5317,-4.5317,-4.5275,-4.5298,-4.5091,-4.4228,-4.3484,-4.2697,-4.1852,-4.1042,-4.0476,-4.0527,-4.0558,-4.0554,-4.0564,-4.0621,-4.0668,-4.0668,-4.0707,-4.0752,-4.0778,-4.0752,-4.0752,-4.0778,-4.0514,-3.9966,-3.8998,-3.8425,-3.7616,-3.6453,-3.6646,-3.646,-3.5659,-3.5902,-3.5933,-3.5673,-3.6184,-3.6319,-3.6071,-3.6621,-3.7201,-3.7754,-3.6331,-3.5963,0.0,-3.1259,-3.2469,-3.1904,-3.0925,0.0,0.0,0.0,-2.3637,-2.1397,-2.0286,-1.9713,-1.9713,-1.9704,-2.0594,-2.3318,-2.4025,-2.5313,0.0,0.0,0.0,0.0,0.0,0.0,0.0,0.0,0.0,0.0,-5.4089,-5.3994,-5.2342,-5.3499,-5.3613,-5.2234,-5.3015,-5.3053,-5.2222,-5.1402,-5.1478,-5.2493,-5.2547,-5.3385,-5.4931,-5.4901,-5.4646,-5.4183,-5.3005,-5.2235,0.0,-5.0634,-5.0114,-5.0057,-5.0089,-5.0089,-5.0082,-5.0108,-5.0158,-5.0178,-4.9659,-4.909,-4.843,-4.7341,-4.6557,-4.5946,-4.5449,-4.5297,-4.5297,-4.5297,-4.5338,-4.5338,-4.5317,-4.536,-4.5208,-4.4346,-4.3559,-4.2768,-4.192,-4.1107,-4.0539,-4.0588,-4.0617,-4.0631,-4.064,-4.0681,-4.0739,-4.0739,-4.0769,-4.0792,-4.0788,-4.08,-4.0808,-4.0796,-4.0803,-4.0533,-3.9879,-3.9345,-3.8549,-3.7398,-3.7617,-3.7437,-3.6667,-3.664,-3.6632,-3.6632,-3.664,-3.6814,-3.7135,-3.7638,-3.7986,-3.8179,-3.7135,-3.6748,0.0,0.0,0.0,0.0,0.0,0.0,0.0,0.0,0.0,-2.0356,-1.9372,-1.8899,-1.9131,-1.9026,-1.9572,-2.1617,-2.2573,-2.4473,0.0,0.0,0.0,0.0,0.0,0.0,0.0,0.0,0.0,-5.1585,-5.3124,-5.3353,-5.1604,-5.2398,-5.2436,-5.1427,-5.2247,-5.2279,-5.1408,-5.0545,-5.09,-5.2417,-5.2474,-5.3347,-5.4924,-5.4836,-5.4836,-5.4829,-5.3138,-5.2417,-5.2311,-5.0748,-5.0108,-5.0108,-5.0057,-5.0089,-5.0207,-5.0133,-5.0182,-5.0302,-5.0225,-4.9156,-4.7799,-4.7665,-4.6577,-4.5317,-4.5317,-4.5297,-4.5297,-4.5297,-4.5317,-4.5317,-4.5317,-4.5359,-4.5227,-4.4403,-4.3652,-4.2862,-4.2008,-4.1212,-4.0684,-4.0607,-4.066,-4.07,-4.07,-4.0764,-4.08,-4.08,-4.0804,-4.0807,-4.0807,-4.0804,-4.08,-4.08,-4.0796,-4.0771,-4.0713,-4.0654,-3.994,-3.8382,-3.8981,-3.9039,-3.8228,-3.8194,-3.8199,-3.8199,-3.8201,-3.8639,-3.9507,-3.9449,-3.905,-3.8392,-3.8199,-3.7735,-2.0355,0.0,-2.1417,-2.0728,-2.0776,0.0,0.0,0.0,0.0,0.0,0.0,0.0,0.0,-2.0211,-2.0728,-2.6305,-2.7332,-2.8466,0.0,0.0,0.0,0.0,0.0,0.0,0.0,0.0,0.0,-5.1634,-5.3118,-5.3302,-5.1672,-5.2946,-5.273,-5.0569,-5.1973,-5.2379,-5.1553,-5.0596,-5.0615,-5.168,-5.2235,-5.3034,-5.4002,-5.3992,-5.4002,-5.3993,-5.2303,-5.1635,-5.1643,-5.0621,-5.0182,-5.0163,-5.0231,-5.0182,-5.0133,-5.0231,-5.0255,-5.014,-4.9583,-4.8726,-4.7673,-4.6375,-4.5705,-4.5378,-4.5378,-4.5338,-4.5297,-4.5297,-4.5339,-4.538,-4.5379,-4.5496,-4.5393,-4.4491,-4.4215,-4.374,-4.2198,-4.1731,-4.1417,-4.0808,-4.0694,-4.0732,-4.0776,-4.0792,-4.0796,-4.0796,-4.0837,-4.0867,-4.0807,-4.0837,-4.0856,-4.0815,-4.0812,-4.08,-4.0773,-4.072,-4.0223,-3.9174,-3.9297,-3.9039,-3.8226,-3.8187,-3.8199,-3.8199,-3.8206,-3.8632,-3.9507,-3.8837,-3.9088,-4.0133,-3.8141,-3.7812,-1.7524,-1.8533,-1.9334,-1.8865,-1.9437,-1.9962,0.0,0.0,0.0,0.0,0.0,0.0,0.0,0.0,0.0,0.0,-2.7912,0.0,0.0,0.0,0.0,0.0,0.0,0.0,0.0,0.0,0.0,-5.1066,-5.2163,-5.2335,-5.1085,-5.182,-5.1667,-5.0293,-5.1157,-5.1448,-5.0961,-5.0411,-5.0577,-5.1453,-5.1813,-5.2433,-5.3242,-5.3214,-5.3242,-5.3229,-5.1954,-5.1427,-5.1377,-5.0574,-5.0231,-5.0188,-5.0255,-5.0231,-5.0207,-5.0255,-5.0255,-5.0202,-4.9813,-4.8941,-4.766,-4.5936,-4.5419,-4.5398,-4.5398,-4.5359,-4.5338,-4.5338,-4.536,-4.54,-4.54,-4.5533,-4.5524,-4.5026,-4.4691,-4.4118,-4.2787,-4.2203,-4.171,-4.0849,-4.0713,-4.0769,-4.0792,-4.0826,-4.0848,-4.0848,-4.0888,-4.0898,-4.0849,-4.0888,-4.0897,-4.0848,-4.0815,-4.0804,-4.0807,-4.0761,-4.0532,-4.0075,-4.0055,-3.9862,-3.9417,-3.9004,-3.8617,-3.8218,-3.8992,-3.9437,-3.9507,-3.9437,-3.9881,-4.0771,-3.934,-3.896,-1.6586,-1.8446,-2.0174,-1.9658,-2.0326,-2.11,0.0,0.0,0.0,0.0,0.0,0.0,0.0,0.0,0.0,0.0,0.0,0.0,0.0,0.0,0.0,0.0,0.0,0.0,0.0,0.0,-5.1238,-5.0378,-5.1123,-5.1219,-5.0359,-5.0436,-5.0436,-5.0302,-5.0436,-5.0412,-5.0231,-5.0207,-5.0569,-5.1294,-5.137,-5.1789,-5.2488,-5.2456,-5.2513,-5.2647,-5.1713,-5.132,-5.137,-5.0617,-5.0255,-5.0231,-5.0231,-5.0255,-5.0302,-5.0255,-5.0255,-5.0287,-5.0106,-4.9156,-4.7721,-4.5974,-4.5495,-4.5571,-4.5437,-4.5495,-4.5551,-4.5437,-4.5419,-4.5419,-4.5419,-4.5513,-4.5622,-4.562,-4.515,-4.4461,-4.3607,-4.2772,-4.1931,-4.1081,-4.0846,-4.0792,-4.0807,-4.0858,-4.0907,-4.0907,-4.0888,-4.0907,-4.0907,-4.0908,-4.0907,-4.0907,-4.0848,-4.0818,-4.0818,-4.0818,-4.0826,-4.0812,-4.08,-4.0808,-4.079,-3.9964,-3.9151,-3.8411,-3.9707,-4.0106,-3.9507,-4.0242,-4.0674,-4.079,-4.0655,-4.0236,-1.792,-1.9811,-2.0528,-1.7677,-1.8136,-1.9303,-1.9298,0.0,0.0,0.0,0.0,0.0,0.0,0.0,0.0,0.0,0.0,0.0,0.0,0.0,0.0,0.0,0.0,0.0,0.0,-5.1085,-5.1238,-5.0378,-5.1123,-5.1219,-5.0359,-5.1009,-5.1066,-5.0321,-5.1028,-5.1047,-5.0278,-5.0231,-5.0264,-5.0397,-5.1085,-5.1478,-5.1592,-5.1592,-5.198,-5.2609,-5.1009,-5.0792,-5.1495,-5.0574,-5.0236,-5.0278,-5.0278,-5.0302,-5.0302,-5.0278,-5.0325,-5.0202,-4.8853,-4.8241,-4.7799,-4.6052,-4.5937,-4.6358,-4.563,-4.5878,-4.6299,-4.5668,-4.5476,-4.5476,-4.5495,-4.5586,-4.5673,-4.5684,-4.5654,-4.5375,-4.4554,-4.3717,-4.286,-4.2034,-4.1296,-4.0826,-4.0877,-4.0878,-4.0898,-4.0898,-4.0907,-4.0907,-4.0907,-4.0907,-4.0898,-4.0898,-4.0898,-4.0888,-4.0878,-4.0868,-4.0877,-4.0867,-4.0823,-4.0808,-4.079,-3.9971,-3.9441,-3.9298,-3.8849,-3.8907,-3.9491,-3.9623,-4.0075,-4.0771,-4.0036,-3.9985,-1.6651,-1.8406,-1.9781,-1.8682,-2.0709,-2.3014,-2.3015,0.0,0.0,0.0,0.0,0.0,0.0,0.0,0.0,0.0,0.0,0.0,0.0,0.0,0.0,0.0,0.0,0.0,0.0,-5.0665,-5.0741,-5.034,-5.0665,-5.0722,-5.0321,-5.0684,-5.0699,-5.0255,-5.066,-5.0679,-5.0255,-5.0255,-5.0236,-5.0255,-5.0631,-5.0798,-5.0798,-5.0798,-5.1032,-5.1362,-5.0574,-5.0484,-5.0875,-5.0431,-5.0278,-5.0302,-5.0302,-5.0302,-5.0302,-5.0325,-5.0412,-5.0265,-4.9083,-4.8682,-4.8529,-4.7222,-4.6741,-4.6587,-4.6225,-4.6358,-4.6492,-4.5763,-4.5859,-4.6224,-4.6259,-4.6331,-4.6417,-4.6445,-4.6124,-4.5592,-4.4775,-4.4285,-4.377,-4.2974,-4.2125,-4.1567,-4.1597,-4.1228,-4.0954,-4.0943,-4.0943,-4.0943,-4.0943,-4.0943,-4.0943,-4.0954,-4.0956,-4.0946,-4.0907,-4.0898,-4.0908,-4.0908,-4.0837,-4.061,-4.0176,-3.9766,-3.9309,-3.8806,-3.8872,-3.9093,-3.9499,-3.9971,-4.0404,-4.0746,-4.034,-4.0333,-1.6067,-1.7554,-1.9358,-1.9973,0.0,-2.5627,-2.6814,0.0,0.0,0.0,0.0,0.0,0.0,0.0,0.0,0.0,0.0,0.0,0.0,0.0,0.0,0.0,0.0,0.0,-5.0302,-5.0302,-5.0302,-5.0302,-5.0302,-5.0302,-5.0302,-5.0302,-5.0278,-5.0231,-5.0278,-5.0278,-5.0212,-5.0278,-5.0302,-5.0302,-5.0302,-5.0302,-5.0302,-5.0302,-5.0302,-5.0302,-5.0302,-5.0302,-5.0302,-5.0302,-5.0302,-5.0302,-5.0302,-5.0302,-5.0325,-5.0412,-5.0478,-5.0406,-4.9543,-4.9257,-4.9143,-4.7986,-4.7314,-4.6855,-4.6512,-4.657,-4.6609,-4.6067,-4.6509,-4.7087,-4.6928,-4.694,-4.7012,-4.7075,-4.6424,-4.564,-4.5034,-4.4757,-4.4446,-4.3823,-4.305,-4.2441,-4.2247,-4.1702,-4.1232,-4.1027,-4.1007,-4.1007,-4.0996,-4.0988,-4.1007,-4.0991,-4.101,-4.0974,-4.0907,-4.0907,-4.0907,-4.0907,-4.0849,-4.0449,-3.9606,-3.9392,-3.8944,-3.8214,-3.8659,-3.9093,-3.9495,-4.0152,-4.0533,-4.0687,-4.0687,-4.0646,-1.8212,-1.935,-2.0114,-2.0173,-2.1033,0.0,-2.7752,-2.7666,0.0,0.0,0.0,0.0,0.0,0.0,0.0,0.0,0.0,0.0,0.0,0.0,0.0,0.0,0.0,-5.0302,-5.0302,-5.0302,-5.0302,-5.0302,-5.0302,-5.0302,-5.0302,-5.0302,-5.0302,-5.0302,-5.0302,-5.0302,-5.0302,-5.0302,-5.0302,-5.0302,-5.0302,-5.0302,-5.0302,-5.0302,-5.0302,-5.0302,-5.0302,-5.0302,-5.0302,-5.0302,-5.0302,-5.0302,-5.0302,-5.0325,-5.0412,-5.0478,-5.054,-5.0488,-4.9603,-4.9336,-4.9106,-4.7337,-4.728,-4.7607,-4.6071,-4.6148,-4.68,-4.6812,-4.7426,-4.7908,-4.7099,-4.6906,-4.694,-4.7066,-4.6419,-4.5808,-4.5815,-4.5227,-4.4684,-4.4622,-4.3956,-4.3141,-4.2335,-4.2196,-4.1921,-4.1127,-4.101,-4.0999,-4.0996,-4.0999,-4.0999,-4.0988,-4.0999,-4.0974,-4.0907,-4.0907,-4.0907,-4.0907,-4.0898,-4.0469,-3.9553,-3.8797,-3.8322,-3.8194,-3.7475,-3.7889,-3.9514,-3.9496,-3.9876,-4.0621,-4.0621,-4.0593,-1.6654,-1.8337,-2.0205,-2.019,0.0,0.0,0.0,0.0,0.0,0.0,0.0,0.0,0.0,0.0,0.0,0.0,0.0,0.0,0.0,0.0,0.0,0.0,-5.0302,-5.0302,-5.0302,-5.0302,-5.0302,-5.0302,-5.0302,-5.0302,-5.0302,-5.0302,-5.0278,-5.0255,-5.0278,-5.0278,-5.0255,-5.0278,-5.0302,-5.0302,-5.0302,-5.0302,-5.0302,-5.0302,-5.0302,-5.0302,-5.0302,-5.0302,-5.0302,-5.0302,-5.0302,-5.0302,-5.0302,-5.0325,-5.0412,-5.0478,-5.0542,-5.0545,-5.0219,-5.0123,-5.0028,-4.9294,-4.8584,-4.7875,-4.7261,-4.73,-4.7511,-4.7024,-4.8274,-4.9563,-4.8767,-4.8202,-4.7863,-4.7903,-4.6861,-4.588,-4.5886,-4.5697,-4.5514,-4.5506,-4.4423,-4.3403,-4.3121,-4.2183,-4.1388,-4.1116,-4.1057,-4.1064,-4.1071,-4.1064,-4.1057,-4.0999,-4.1007,-4.0974,-4.0907,-4.0907,-4.0878,-4.0839,-4.0877,-4.0509,-3.9596,-3.9265,-3.8817,-3.8214,-3.8407,-3.8829,-3.9438,-3.9947,-4.0345,-4.0598,-4.0598,-4.0573,-1.631,-1.7821,-1.9884,0.0,0.0,0.0,0.0,0.0,0.0,0.0,0.0,0.0,0.0,0.0,0.0,0.0,0.0,0.0,0.0,0.0,0.0,-5.0302,-5.0302,-5.0206,-4.9939,-4.992,-4.9805,-4.9538,-4.9767,-4.992,-4.992,-5.0168,-5.0278,-5.0212,-5.0278,-5.0278,-5.0212,-5.0255,-5.0278,-5.0302,-5.0278,-5.0278,-5.0302,-5.0302,-5.0302,-5.0302,-5.0302,-5.0168,-4.9939,-5.0206,-5.0302,-5.0325,-5.0325,-5.039,-5.0457,-5.05,-5.0562,-5.0623,-5.0582,-5.0603,-5.0585,-5.0235,-4.918,-4.7972,-4.7741,-4.7664,-4.7663,-4.7405,-4.8808,-5.0293,-5.0069,-4.9208,-4.8406,-4.843,-4.7152,-4.5929,-4.5941,-4.5972,-4.5994,-4.5994,-4.4861,-4.384,-4.3605,-4.2366,-4.1324,-4.1098,-4.1078,-4.1175,-4.1435,-4.1234,-4.1052,-4.0999,-4.0996,-4.0963,-4.0907,-4.0898,-4.0878,-4.0818,-4.0848,-4.0479,-3.9606,-3.9566,-3.9262,-3.8609,-3.9201,-3.9591,-3.9779,-4.0378,-4.0626,-4.0573,-4.0577,-4.0546,-1.7917,-1.8335,0.0,0.0,0.0,0.0,0.0,0.0,0.0,0.0,0.0,0.0,0.0,0.0,0.0,0.0,0.0,0.0,0.0,0.0,0.0,-5.0283,-5.0283,-4.9958,-4.9156,-4.9079,-4.8735,-4.7876,-4.8602,-4.9098,-4.9098,-4.9862,-5.0302,-5.0302,-5.0302,-5.0302,-5.0302,-5.0236,-5.0236,-5.0302,-5.0212,-5.0255,-5.0302,-5.0302,-5.0302,-5.0302,-5.0302,-4.9843,-4.9156,-4.9958,-5.0325,-5.0412,-5.0412,-5.0478,-5.0603,-5.0521,-5.0584,-5.0683,-5.0542,-5.0603,-5.0548,-4.9624,-4.876,-4.7952,-4.7159,-4.6906,-4.7114,-4.8044,-4.8929,-4.9814,-5.0677,-4.9668,-4.8406,-4.8476,-4.7229,-4.6003,-4.5997,-4.5997,-4.5997,-4.5997,-4.5337,-4.4501,-4.3646,-4.2833,-4.1999,-4.1142,-4.1011,-4.1322,-4.2195,-4.1544,-4.1015,-4.1015,-4.1015,-4.098,-4.0907,-4.0898,-4.0907,-4.0897,-4.0837,-4.0408,-3.9542,-3.9503,-3.9511,-3.9507,-3.9507,-3.9876,-4.0588,-4.0588,-4.0559,-4.0489,-4.0499,-4.0502,-1.633,0.0,0.0,0.0,0.0,0.0,0.0,0.0,0.0,0.0,0.0,0.0,0.0,0.0,0.0,0.0,0.0,0.0,0.0,0.0,-4.8862,-4.9408,-4.8907,-4.8449,-4.822,-4.82,-4.8086,-4.7818,-4.8602,-4.9098,-4.9098,-4.9862,-5.0302,-5.0302,-5.0302,-5.0278,-5.0231,-5.0255,-5.0255,-5.0231,-5.0255,-5.0278,-5.0302,-5.0302,-5.0302,-5.0302,-5.0302,-5.0191,-5.0046,-5.032,-5.0438,-5.0478,-5.0478,-5.0521,-5.0603,-5.0521,-5.0584,-5.0702,-5.0603,-5.0623,-5.0644,-5.0375,-4.9702,-4.8856,-4.8064,-4.7812,-4.7887,-4.8218,-4.8929,-4.9814,-5.0677,-4.9679,-4.8476,-4.849,-4.7222,-4.6005,-4.5997,-4.5997,-4.5997,-4.5997,-4.488,-4.3878,-4.3605,-4.2852,-4.2213,-4.1955,-4.1902,-4.2018,-4.2273,-4.2069,-4.1918,-4.1914,-4.1863,-4.1596,-4.0956,-4.0907,-4.0886,-4.0823,-4.0812,-4.0676,-4.0432,-4.0413,-4.0421,-4.0404,-4.0359,-4.043,-4.0588,-4.0564,-4.0523,-4.0499,-4.0449,-4.0379,-1.7317,0.0,0.0,0.0,0.0,0.0,0.0,0.0,0.0,0.0,0.0,0.0,0.0,0.0,0.0,0.0,0.0,-4.7069,-4.7832,-4.8235,-4.8482,-4.8586,-4.843,-4.8048,-4.736,-4.7283,-4.715,-4.6825,-4.7589,-4.8067,-4.8067,-4.9175,-4.9652,-4.9328,-4.9958,-5.0126,-4.9778,-5.0083,-5.0255,-5.0255,-5.0278,-5.0302,-5.0325,-5.0302,-5.0302,-5.0283,-4.9958,-4.9851,-4.9918,-4.9939,-5.0193,-5.0542,-5.0542,-5.0582,-5.0623,-5.0521,-5.0584,-5.0702,-5.0603,-5.0623,-5.0702,-5.0702,-5.0106,-4.9259,-4.8486,-4.8234,-4.8191,-4.7905,-4.8458,-4.9231,-4.978,-4.8952,-4.8076,-4.8425,-4.7214,-4.5997,-4.5997,-4.5997,-4.5997,-4.5997,-4.4948,-4.4083,-4.4091,-4.3097,-4.2303,-4.2298,-4.2583,-4.2809,-4.279,-4.3086,-4.3019,-4.2327,-4.2224,-4.1859,-4.0966,-4.0877,-4.0992,-4.1308,-4.1323,-4.1311,-4.1287,-4.097,-4.0784,-4.0759,-4.0733,-4.0654,-4.0564,-4.0519,-4.0476,-4.0449,-4.0362,-4.0289,0.0,0.0,0.0,0.0,0.0,0.0,0.0,0.0,0.0,0.0,0.0,0.0,0.0,0.0,0.0,0.0,-4.6685,-4.6973,-4.7778,-4.8388,-4.8496,-4.778,-4.8315,-4.8124,-4.6538,-4.6385,-4.6099,-4.5354,-4.6042,-4.65,-4.65,-4.8086,-4.8621,-4.7837,-4.9289,-4.9767,-4.9098,-4.9759,-5.0178,-5.0302,-5.0302,-5.0325,-5.039,-5.0325,-5.0302,-5.0264,-4.9465,-4.9149,-4.9215,-4.9154,-4.9676,-5.0488,-5.0584,-5.0643,-5.0683,-5.0542,-5.0584,-5.0683,-5.0542,-5.0603,-5.0683,-5.0702,-5.0163,-4.9375,-4.8636,-4.8362,-4.8144,-4.7429,-4.7734,-4.8309,-4.8377,-4.7798,-4.7398,-4.8193,-4.7156,-4.5997,-4.5997,-4.5997,-4.5997,-4.5997,-4.5278,-4.4705,-4.4793,-4.3469,-4.2435,-4.251,-4.3199,-4.3689,-4.3635,-4.4247,-4.4081,-4.2499,-4.2256,-4.1839,-4.0956,-4.0839,-4.1136,-4.192,-4.1981,-4.1944,-4.1879,-4.1261,-4.0836,-4.0687,-4.0687,-4.0612,-4.0489,-4.0473,-4.0444,-4.0379,-4.0233,-4.0177,0.0,0.0,0.0,0.0,0.0,0.0,0.0,0.0,0.0,0.0,0.0,0.0,0.0,0.0,0.0,0.0,-4.5856,-4.6127,-4.6935,-4.657,-4.6357,-4.6813,-4.6407,-4.5965,-4.5583,-4.5564,-4.5488,-4.5297,-4.6042,-4.65,-4.65,-4.7513,-4.799,-4.7818,-4.8162,-4.856,-4.9029,-4.9247,-4.9648,-5.0212,-5.0278,-5.0302,-5.0325,-5.0348,-5.0348,-5.0264,-4.9494,-4.9194,-4.9215,-4.9297,-4.9452,-4.9721,-5.0394,-5.0702,-5.0683,-5.0542,-5.0584,-5.0683,-5.0542,-5.0603,-5.0702,-5.0702,-5.0567,-5.0277,-4.9536,-4.8836,-4.8272,-4.8145,-4.7753,-4.754,-4.8232,-4.7791,-4.7243,-4.7437,-4.6709,-4.5997,-4.5997,-4.5997,-4.5997,-4.5997,-4.4793,-4.3996,-4.4684,-4.3936,-4.348,-4.4169,-4.4422,-4.4539,-4.4528,-4.4093,-4.3646,-4.3257,-4.2617,-4.1829,-4.0906,-4.0815,-4.0889,-4.1083,-4.1023,-4.0997,-4.0971,-4.1467,-4.139,-4.0636,-4.0569,-4.0504,-4.0422,-4.0323,-4.0252,-4.0233,-4.0118,-3.9998,0.0,0.0,0.0,0.0,0.0,0.0,0.0,0.0,0.0,0.0,0.0,0.0,0.0,0.0,0.0,0.0,-4.5568,-4.5686,-4.609,-4.6071,-4.6013,-4.599,-4.5929,-4.5717,-4.5335,-4.5297,-4.5297,-4.5297,-4.5679,-4.5927,-4.5927,-4.6729,-4.6997,-4.6615,-4.7379,-4.7796,-4.7812,-4.8235,-4.8865,-4.9663,-4.9713,-4.9947,-5.0329,-4.9947,-4.9755,-4.9679,-4.8922,-4.86,-4.8624,-4.8702,-4.876,-4.8856,-4.974,-5.0067,-5.0125,-5.0389,-5.0584,-5.0683,-5.0542,-5.0603,-5.0702,-5.0702,-5.0701,-5.0488,-4.9321,-4.8659,-4.8153,-4.7371,-4.6825,-4.6588,-4.7085,-4.6894,-4.6584,-4.6628,-4.6313,-4.5997,-4.5997,-4.5997,-4.5997,-4.5997,-4.5288,-4.4842,-4.5298,-4.4326,-4.3801,-4.4676,-4.4093,-4.386,-4.4696,-4.4035,-4.3335,-4.2928,-4.248,-4.1828,-4.0884,-4.0761,-4.1105,-4.1938,-4.1544,-4.1445,-4.1837,-4.1875,-4.148,-4.0558,-4.0489,-4.0389,-4.0304,-4.0233,-4.0177,-4.0099,-3.9996,-3.9911,0.0,0.0,0.0,0.0,0.0,0.0,0.0,0.0,0.0,0.0,0.0,0.0,0.0,0.0,0.0,0.0,-4.5513,-4.5495,-4.5419,-4.6033,-4.6185,-4.5415,-4.5891,-4.6023,-4.5354,-4.5297,-4.5297,-4.5297,-4.5297,-4.5297,-4.5297,-4.5927,-4.5984,-4.5316,-4.6653,-4.7092,-4.6519,-4.7226,-4.8009,-4.8869,-4.9029,-4.9548,-5.0352,-4.9331,-4.8971,-4.9054,-4.8097,-4.7719,-4.7799,-4.7799,-4.7837,-4.799,-4.8836,-4.9183,-4.926,-5.0005,-5.0372,-5.0491,-5.0525,-5.0603,-5.0702,-5.072,-5.072,-5.0449,-4.8971,-4.8443,-4.7998,-4.6457,-4.5916,-4.5814,-4.586,-4.588,-4.5917,-4.596,-4.5994,-4.5997,-4.5997,-4.5997,-4.5997,-4.5997,-4.6007,-4.5929,-4.5608,-4.4676,-4.4093,-4.4511,-4.3481,-4.3102,-4.4384,-4.3791,-4.2985,-4.2255,-4.2031,-4.1632,-4.0854,-4.0718,-4.13,-4.275,-4.2102,-4.1952,-4.2621,-4.1934,-4.1187,-4.046,-4.0389,-4.0304,-4.0158,-4.0158,-4.008,-3.9975,-3.987,-3.9781,0.0,0.0,0.0,0.0,0.0,0.0,0.0,0.0,0.0,0.0,0.0,0.0,0.0,0.0,0.0,-4.5323,-4.5476,-4.5495,-4.5495,-4.5554,-4.5514,-4.54,-4.5435,-4.5411,-4.5297,-4.5297,-4.5297,-4.5297,-4.5297,-4.5297,-4.5297,-4.5392,-4.5411,-4.5297,-4.5507,-4.5908,-4.65,-4.6615,-4.7111,-4.799,-4.8735,-4.9541,-5.0245,-4.8697,-4.8376,-4.9015,-4.7507,-4.6896,-4.6954,-4.7011,-4.7049,-4.7144,-4.7971,-4.8279,-4.8356,-4.9163,-4.9509,-4.9683,-5.0334,-5.0643,-5.0702,-5.0776,-5.0793,-5.0636,-4.9772,-4.8976,-4.8179,-4.7192,-4.638,-4.58,-4.5814,-4.5867,-4.5886,-4.5917,-4.5964,-4.5997,-4.5997,-4.5997,-4.5997,-4.5997,-4.6056,-4.5619,-4.4093,-4.489,-4.5269,-4.3889,-4.4072,-4.4178,-4.3654,-4.2837,-4.2252,-4.2141,-4.1388,-4.0854,-4.0725,-4.0642,-4.0731,-4.1029,-4.0829,-4.0735,-4.085,-4.0571,-4.0367,-4.0234,-4.0234,-4.0158,-4.0038,-3.9975,-3.9892,-3.9826,-3.9647,-3.9551,0.0,0.0,0.0,0.0,0.0,0.0,0.0,0.0,0.0,0.0,0.0,0.0,0.0,0.0,0.0,-4.4707,-4.515,-4.5438,-4.5438,-4.5419,-4.54,-4.5341,-4.5319,-4.5297,-4.5297,-4.5297,-4.5297,-4.5297,-4.5297,-4.5297,-4.5297,-4.5297,-4.5297,-4.5297,-4.5297,-4.5468,-4.5812,-4.5831,-4.65,-4.7799,-4.82,-4.8812,-4.9576,-4.7857,-4.807,-4.9641,-4.7085,-4.6551,-4.7415,-4.653,-4.6163,-4.6259,-4.7105,-4.7432,-4.7568,-4.8836,-4.9336,-4.9529,-5.0316,-5.0643,-5.0702,-5.0794,-5.0465,-4.9942,-4.9193,-4.8353,-4.7482,-4.6612,-4.6123,-4.586,-4.586,-4.5912,-4.596,-4.596,-4.5994,-4.5997,-4.5997,-4.5997,-4.5997,-4.5997,-4.6026,-4.5803,-4.5025,-4.5152,-4.5269,-4.4946,-4.4111,-4.3479,-4.3408,-4.2202,-4.1354,-4.1318,-4.0958,-4.0681,-4.0642,-4.0574,-4.0761,-4.1277,-4.0726,-4.0586,-4.1031,-4.0463,-4.0099,-4.0036,-4.0078,-3.9998,-3.9848,-3.9804,-3.9717,-3.9575,-3.9452,-3.935,0.0,0.0,0.0,0.0,0.0,0.0,0.0,0.0,0.0,0.0,0.0,0.0,0.0,0.0,0.0,-4.4189,-4.4901,-4.54,-4.54,-4.5381,-4.5361,-4.5339,-4.5298,-4.5297,-4.5297,-4.5297,-4.5297,-4.5297,-4.5297,-4.5297,-4.5297,-4.5297,-4.5297,-4.5297,-4.5297,-4.5297,-4.5297,-4.5297,-4.6023,-4.7515,-4.7515,-4.7955,-4.8739,-4.725,-4.7687,-4.9522,-4.6645,-4.6167,-4.73,-4.6088,-4.5586,-4.5663,-4.6317,-4.6567,-4.674,-4.8164,-4.8721,-4.8913,-4.9951,-5.0336,-5.0394,-5.0447,-5.004,-4.9341,-4.8377,-4.7618,-4.6922,-4.6051,-4.5847,-4.586,-4.586,-4.5912,-4.5968,-4.5968,-4.5972,-4.5986,-4.5997,-4.5997,-4.5997,-4.5997,-4.5997,-4.5938,-4.5714,-4.5364,-4.516,-4.5332,-4.407,-4.3089,-4.3044,-4.1904,-4.0996,-4.0694,-4.0675,-4.0629,-4.0593,-4.0504,-4.0729,-4.1399,-4.0706,-4.0539,-4.1112,-4.0441,-3.9994,-3.9845,-3.9848,-3.9804,-3.9647,-3.9647,-3.9526,-3.9369,-3.9272,-3.9183,0.0,0.0,0.0,0.0,0.0,0.0,0.0,0.0,0.0,0.0,0.0,0.0,0.0,0.0,0.0,-4.3923,-4.4786,-4.54,-4.54,-4.536,-4.5319,-4.5381,-4.5339,-4.5297,-4.5297,-4.5297,-4.5297,-4.5297,-4.5297,-4.5297,-4.5297,-4.5297,-4.5297,-4.5297,-4.5297,-4.5297,-4.5297,-4.5297,-4.5757,-4.6661,-4.6661,-4.714,-4.7922,-4.7085,-4.7181,-4.7922,-4.6167,-4.5515,-4.572,-4.5624,-4.5586,-4.5586,-4.5643,-4.5663,-4.5778,-4.6701,-4.7028,-4.7259,-4.8894,-4.9528,-4.9565,-4.9579,-4.9575,-4.9277,-4.7661,-4.7134,-4.6922,-4.6051,-4.58,-4.5814,-4.5814,-4.586,-4.5906,-4.5906,-4.5912,-4.591,-4.5986,-4.5997,-4.5997,-4.5997,-4.5997,-4.5733,-4.4916,-4.5409,-4.5378,-4.3773,-4.4078,-4.3905,-4.2273,-4.1983,-4.16,-4.0699,-4.0554,-4.0504,-4.0504,-4.0375,-4.0362,-4.0471,-4.0291,-4.0195,-4.0174,-4.0013,-3.9823,-3.9623,-3.9551,-3.9526,-3.9508,-3.9452,-3.9324,-3.921,-3.9156,-3.9045,0.0,0.0,0.0,0.0,0.0,0.0,0.0,0.0,0.0,0.0,0.0,0.0,0.0,0.0,0.0,-4.2486,-4.3234,-4.379,-4.3733,-4.4231,-4.4576,-4.4517,-4.4476,-4.4475,-4.4475,-4.4475,-4.4475,-4.4475,-4.4972,-4.5297,-4.5297,-4.5297,-4.5297,-4.5297,-4.5297,-4.5297,-4.5297,-4.5297,-4.5719,-4.6522,-4.6047,-4.6259,-4.7044,-4.6243,-4.6033,-4.6321,-4.5707,-4.5821,-4.6338,-4.5817,-4.5568,-4.555,-4.5586,-4.5568,-4.5646,-4.6549,-4.6913,-4.7067,-4.8182,-4.8586,-4.8623,-4.8658,-4.8326,-4.7835,-4.7264,-4.6714,-4.6187,-4.5877,-4.5827,-4.586,-4.586,-4.5887,-4.5893,-4.5893,-4.5905,-4.5917,-4.5941,-4.5941,-4.5941,-4.5941,-4.5941,-4.5844,-4.5522,-4.5735,-4.553,-4.4337,-4.4234,-4.3724,-4.2195,-4.1465,-4.0979,-4.0646,-4.0539,-4.0473,-4.0444,-4.036,-4.0289,-4.0272,-4.0157,-4.0057,-3.9954,-3.9758,-3.9599,-3.9551,-3.935,-3.9272,-3.9317,-3.9245,-3.9156,-3.9064,-3.8892,-3.884,0.0,0.0,0.0,0.0,0.0,0.0,0.0,0.0,0.0,0.0,0.0,0.0,0.0,0.0,0.0,-4.1526,-4.2333,-4.287,-4.2852,-4.335,-4.3695,-4.3597,-4.3597,-4.3597,-4.3596,-4.3615,-4.3711,-4.3997,-4.4551,-4.4991,-4.5277,-4.5297,-4.5297,-4.5297,-4.5297,-4.5163,-4.4876,-4.5144,-4.5432,-4.5721,-4.5514,-4.5687,-4.6224,-4.5707,-4.5476,-4.5495,-4.5513,-4.5877,-4.6358,-4.5836,-4.5568,-4.555,-4.5586,-4.5568,-4.5608,-4.6222,-4.6471,-4.6586,-4.7412,-4.7719,-4.7736,-4.7808,-4.7455,-4.7001,-4.6742,-4.6269,-4.58,-4.58,-4.5827,-4.586,-4.586,-4.5874,-4.588,-4.588,-4.5667,-4.5551,-4.5822,-4.5873,-4.5905,-4.5905,-4.5905,-4.5905,-4.5893,-4.566,-4.5228,-4.4537,-4.4078,-4.3452,-4.2459,-4.1797,-4.1289,-4.1008,-4.1149,-4.1006,-4.04,-4.0539,-4.0521,-4.0117,-3.9975,-3.9848,-3.9781,-3.9575,-3.9427,-3.9376,-3.9192,-3.9073,-3.9064,-3.9017,-3.8979,-3.8881,-3.8701,-3.8627,0.0,0.0,0.0,0.0,0.0,0.0,0.0,0.0,0.0,0.0,0.0,0.0,0.0,0.0,0.0,-4.1072,-4.2144,-4.2699,-4.2774,-4.2775,-4.2757,-4.2757,-4.2757,-4.2757,-4.2756,-4.2756,-4.31,-4.3883,-4.3978,-4.438,-4.522,-4.5258,-4.5239,-4.522,-4.522,-4.4819,-4.3978,-4.4819,-4.4919,-4.4211,-4.5017,-4.5438,-4.5495,-4.5568,-4.5568,-4.5513,-4.5568,-4.5586,-4.5603,-4.5586,-4.5586,-4.5586,-4.5586,-4.5586,-4.5586,-4.5586,-4.5586,-4.5719,-4.6581,-4.6901,-4.697,-4.704,-4.7051,-4.6902,-4.6051,-4.58,-4.58,-4.58,-4.58,-4.58,-4.58,-4.58,-4.58,-4.58,-4.52,-4.4852,-4.5626,-4.5854,-4.5886,-4.5905,-4.5905,-4.5893,-4.5887,-4.5196,-4.4511,-4.4139,-4.3578,-4.313,-4.2948,-4.2931,-4.261,-4.1756,-4.2297,-4.203,-4.033,-4.092,-4.095,-3.9946,-3.9781,-3.9647,-3.9483,-3.9427,-3.9298,-3.9101,-3.9101,-3.8989,-3.8792,-3.8792,-3.8762,-3.8707,-3.8559,-3.8433,-1.1389,0.0,0.0,0.0,0.0,0.0,0.0,0.0,0.0,0.0,0.0,0.0,0.0,0.0,0.0,0.0,-3.9227,-4.0132,-4.0152,-4.1168,-4.1915,-4.1877,-4.1858,-4.1858,-4.1858,-4.1858,-4.1953,0.0,-4.331,-4.4112,-4.436,-4.436,-4.4093,-4.3501,-4.3483,-4.3388,-4.3139,-4.4039,-4.4384,-4.4211,-4.5054,-4.5495,-4.5495,-4.5568,-4.5622,-4.564,-4.5603,-4.564,-4.5676,-4.5622,-4.5568,-4.5531,-4.5586,-4.5568,-4.5531,-4.5586,-4.5586,-4.5624,-4.5873,-4.5967,-4.6003,-4.6073,-4.6086,-4.6055,-4.5853,-4.5805,-4.58,-4.58,-4.5805,-4.581,-4.581,-4.5805,-4.58,-4.58,-4.5631,-4.5525,-4.5737,-4.5776,-4.5771,-4.5827,-4.5841,-4.5827,-4.5824,-4.5631,-4.5003,-4.3646,-4.3258,-4.2653,-4.137,-4.1099,-4.0954,-4.0708,-4.0769,-4.0633,-4.0096,-4.0205,-4.0135,-3.9708,-3.9647,-3.9575,-3.9427,-3.9272,-3.911,-3.9045,-3.8862,-3.8732,-3.8572,-3.867,-3.867,-3.8559,-3.8419,-3.8223,0.0,0.0,0.0,0.0,0.0,0.0,-1.965,-1.9836,-2.0304,0.0,0.0,0.0,0.0,0.0,0.0,0.0,-3.5955,-3.7517,-3.8942,-3.9959,-4.0535,-4.0517,-4.0499,-4.0499,-4.05,-4.05,-4.0768,-4.1437,-4.2393,-4.3119,-4.3482,-4.3502,-4.3272,-4.2814,-4.2833,-4.2679,-4.2354,-4.3215,-4.3655,-4.3711,-4.4574,-4.5186,-4.5531,-4.5586,-4.5622,-4.5657,-4.5622,-4.5622,-4.5657,-4.5622,-4.5568,-4.555,-4.5586,-4.5568,-4.555,-4.5586,-4.5586,-4.5603,-4.564,-4.564,-4.5657,-4.5722,-4.5735,-4.5765,-4.5795,-4.5791,-4.5805,-4.5805,-4.581,-4.5795,-4.581,-4.5791,-4.5805,-4.5805,-4.5491,-4.5306,-4.5688,-4.5445,-4.5272,-4.5684,-4.5757,-4.5776,-4.58,-4.5171,-4.4407,-4.3577,-4.2604,-4.186,-4.1505,-4.1378,-4.1189,-4.0769,-4.1565,-4.1686,-4.0558,-4.0722,-4.0669,-4.0139,-3.9708,-3.9427,-3.9317,-3.9129,-3.9007,-3.896,-3.8822,-3.867,-3.851,-3.8515,-3.8501,-3.8368,-3.8256,-3.8088,0.0,0.0,0.0,0.0,0.0,0.0,-2.2315,-2.0532,-1.8853,-2.262,0.0,0.0,0.0,0.0,0.0,-3.0733,-3.2436,-3.4779,-3.8293,-3.8895,-3.8977,-3.8977,-3.8958,-3.8961,-3.8967,-3.9026,-3.9678,-4.1132,-4.1418,-4.1858,-4.2622,-4.2661,-4.2623,-4.2527,-4.2602,-4.2294,-4.1566,-4.2371,-4.2809,-4.2881,-4.3765,-4.4628,-4.5451,-4.5451,-4.5526,-4.5622,-4.5603,-4.5603,-4.5622,-4.5603,-4.5586,-4.5586,-4.5586,-4.5586,-4.5586,-4.5586,-4.5586,-4.5622,-4.5676,-4.5693,-4.5709,-4.577,-4.58,-4.5781,-4.5786,-4.5791,-4.58,-4.5781,-4.5781,-4.5781,-4.5805,-4.5791,-4.5781,-4.5781,-4.5137,-4.4758,-4.5526,-4.5086,-4.4758,-4.553,-4.57,-4.5735,-4.5773,-4.4434,-4.3467,-4.3806,-4.2098,-4.1259,-4.2603,-4.2717,-4.2351,-4.1497,-4.3373,-4.3744,-4.1406,-4.1836,-4.1857,-4.0985,-4.0061,-3.9488,-3.9332,-3.9137,-3.8973,-3.8881,-3.8792,-3.8652,-3.8483,-3.8372,-3.8241,-3.8192,-3.8036,-3.7984,0.0,0.0,0.0,0.0,0.0,0.0,-1.9179,-1.8332,-1.7959,0.0,0.0,0.0,0.0,0.0,0.0,-2.6458,-2.8623,-3.1552,-3.5585,-3.7287,-3.8134,-3.8134,-3.8082,-3.8065,-3.8137,-3.8663,-3.9163,-3.9543,-4.0825,-4.1647,-4.1839,-4.1894,-4.1586,-4.0896,-4.0929,-4.0888,-4.0735,-4.1594,-4.2014,-4.203,-4.2915,-4.3758,-4.4547,-4.4547,-4.4968,-4.5693,-4.5622,-4.564,-4.5693,-4.5622,-4.5586,-4.5586,-4.5586,-4.5586,-4.5586,-4.5586,-4.5586,-4.5586,-4.5603,-4.5622,-4.564,-4.5709,-4.5726,-4.5722,-4.5715,-4.5765,-4.5781,-4.5731,-4.5715,-4.5715,-4.5722,-4.5719,-4.5715,-4.5715,-4.5587,-4.5497,-4.5651,-4.5522,-4.5428,-4.5582,-4.5651,-4.5684,-4.5657,-4.5351,-4.4895,-4.4211,-4.3521,-4.2967,-4.2737,-4.2254,-4.1996,-4.217,-4.2532,-4.251,-4.1939,-4.1957,-4.1871,-4.1632,-4.1315,-4.081,-4.0036,-3.9871,-3.9473,-3.8768,-3.8496,-3.8354,-3.8241,-3.8241,-3.8225,-3.8192,-3.8038,-3.7934,0.0,0.0,0.0,-2.3003,0.0,0.0,0.0,-2.026,-1.94,-2.0672,0.0,0.0,0.0,0.0,0.0,-2.4542,-2.6892,-2.9289,-3.1366,-3.4169,-3.6189,-3.6646,-3.6251,-3.614,-3.6596,-3.737,-3.8199,-3.9044,-3.9484,-3.9677,-3.9659,-4.0168,-4.0241,-3.9783,-4.0233,-4.0495,-4.0495,-4.0915,-4.1373,-4.1816,-4.2239,-4.3104,-4.4297,-4.4297,-4.4795,-4.564,-4.5603,-4.5622,-4.564,-4.5603,-4.5586,-4.5586,-4.5586,-4.5586,-4.5586,-4.5586,-4.5586,-4.5586,-4.5586,-4.5586,-4.5603,-4.5693,-4.5693,-4.5709,-4.57,-4.5719,-4.5738,-4.5722,-4.5687,-4.5687,-4.5687,-4.5687,-4.5687,-4.5671,-4.562,-4.547,-4.5049,-4.5244,-4.5379,-4.4976,-4.5244,-4.555,-4.555,-4.5168,-4.4825,-4.4767,-4.3846,-4.3153,-4.318,-4.2841,-4.2522,-4.227,-4.2907,-4.3168,-4.2693,-4.2501,-4.2389,-4.2302,-4.1753,-4.107,-4.0189,-4.0019,-3.9546,-3.8726,-3.8515,-3.8419,-3.8455,-3.8292,-3.8192,-3.8192,-3.8003,-3.7864,0.0,0.0,0.0,0.0,0.0,-2.4377,0.0,0.0,0.0,0.0,0.0,0.0,0.0,0.0,0.0,0.0,0.0,0.0,0.0,-3.0002,0.0,-3.391,-3.3653,-3.3665,-3.437,-3.5067,-3.6343,-3.8448,-3.751,-3.7053,-3.7479,-3.8438,-3.9023,-3.9144,-3.9861,-4.0335,-4.0489,-4.0489,-4.0854,-4.1546,-4.1546,-4.2354,-4.3852,-4.3989,-4.4528,-4.5372,-4.5545,-4.5586,-4.5586,-4.5586,-4.5586,-4.5586,-4.5586,-4.5586,-4.5586,-4.5586,-4.5586,-4.5586,-4.5586,-4.5586,-4.5622,-4.5657,-4.5693,-4.5673,-4.5703,-4.5671,-4.5657,-4.5693,-4.5657,-4.5637,-4.5651,-4.5654,-4.564,-4.5568,-4.5513,-4.5284,-4.4595,-4.494,-4.5208,-4.4557,-4.4959,-4.54,-4.5438,-4.4825,-4.4515,-4.514,-4.3983,-4.3244,-4.3853,-4.3775,-4.3435,-4.2648,-4.3716,-4.4224,-4.3484,-4.3218,-4.31,-4.302,-4.2223,-4.1372,-4.0535,-3.9958,-3.935,-3.8707,-3.8578,-3.8546,-3.8596,-3.8241,-3.8397,-3.8975,-3.8151,-3.7864,0.0,0.0,0.0,0.0,-2.8125,-2.8413,-2.4079,0.0,-2.3124,-2.1155,0.0,0.0,0.0,0.0,0.0,0.0,0.0,0.0,-2.2419,-2.4666,-2.6969,-2.8576,-2.9967,-3.0871,-3.096,-3.0989,-3.2659,-3.6584,-3.4774,-3.4443,-3.6703,-3.7651,-3.8493,-3.9242,-3.9373,-3.9777,-4.0489,-4.0489,-4.0546,-4.0642,-4.0642,-4.1193,-4.2206,-4.2909,-4.3717,-4.4578,-4.5295,-4.5586,-4.5586,-4.5586,-4.5586,-4.5586,-4.5586,-4.5586,-4.5586,-4.5586,-4.5586,-4.5586,-4.5586,-4.5586,-4.5586,-4.5622,-4.5603,-4.5622,-4.5673,-4.5622,-4.555,-4.5586,-4.5532,-4.5438,-4.5438,-4.5438,-4.5438,-4.5419,-4.5419,-4.5381,-4.5285,-4.5381,-4.5438,-4.5284,-4.5323,-4.5361,-4.5319,-4.518,-4.5055,-4.5038,-4.4815,-4.4668,-4.4669,-4.4568,-4.4433,-4.4323,-4.443,-4.4449,-4.4299,-4.4028,-4.3856,-4.3856,-4.3527,-4.2912,-4.1912,-3.9908,-3.8799,-3.8707,-3.8676,-3.8533,-3.8259,-3.7846,-3.9097,-4.1779,-3.8935,-3.8075,0.0,0.0,0.0,0.0,0.0,0.0,-2.4279,-2.3477,-2.3388,-2.3284,0.0,0.0,0.0,0.0,0.0,0.0,-2.0727,0.0,0.0,0.0,-2.2732,0.0,0.0,0.0,-3.0163,-2.991,-3.095,-3.4213,-3.2115,-3.1789,-3.4309,-3.5787,-3.7147,-3.8458,-3.9022,-3.9692,-4.0539,-4.0558,-4.0558,-4.0558,-4.0558,-4.1035,-4.1917,-4.2248,-4.2864,-4.367,-4.3987,-4.4412,-4.4855,-4.4855,-4.5143,-4.5586,-4.5586,-4.5586,-4.5586,-4.5586,-4.5586,-4.5586,-4.5586,-4.5586,-4.5586,-4.5586,-4.5259,-4.4932,-4.5432,-4.5223,-4.4899,-4.536,-4.5438,-4.54,-4.54,-4.54,-4.54,-4.54,-4.538,-4.5186,-4.4648,-4.4914,-4.5104,-4.4586,-4.4851,-4.5154,-4.5129,-4.5061,-4.501,-4.4943,-4.4846,-4.477,-4.47,-4.4587,-4.4477,-4.4421,-4.4373,-4.4314,-4.4304,-4.4042,-4.3915,-4.3947,-4.3701,-4.307,-4.2036,-3.9745,-3.8578,-3.8707,-3.8707,-3.8551,-3.8192,-3.781,-3.8272,-3.9539,-3.8732,-3.8866,-2.7797,0.0,0.0,-2.7179,-2.6869,-2.6504,-2.4546,-2.4014,-2.4215,-2.52,-2.4304,0.0,0.0,0.0,-2.0927,-2.0411,0.0,-1.9638,0.0,-1.7854,0.0,0.0,0.0,0.0,0.0,-2.7613,-2.795,-3.0975,-2.8841,-2.8695,-3.1674,-3.3724,-3.5661,-3.7502,-3.8479,-3.9504,-4.0588,-4.0603,-4.0603,-4.0603,-4.0603,-4.0945,-4.1581,-4.1797,-4.2221,-4.278,-4.3002,-4.3429,-4.397,-4.397,-4.447,-4.524,-4.524,-4.5393,-4.5586,-4.5586,-4.5586,-4.5586,-4.5586,-4.5432,-4.524,-4.524,-4.4662,-4.4124,-4.4937,-4.4765,-4.4421,-4.5189,-4.54,-4.5361,-4.5361,-4.5361,-4.5341,-4.5359,-4.5297,-4.5061,-4.4388,-4.4668,-4.489,-4.4243,-4.4554,-4.4924,-4.4967,-4.4943,-4.487,-4.4846,-4.4789,-4.4685,-4.4587,-4.4421,-4.4325,-4.4277,-4.4226,-4.4184,-4.4214,-4.3966,-4.3837,-4.3786,-4.36,-4.313,-4.2359,-4.0602,-3.9312,-3.8601,-3.9294,-3.9145,-3.8038,-3.7739,-3.7719,-3.7986,-3.8374,-3.9004,-2.9447,-2.9825,-2.9844,-2.7323,-2.7285,-2.72,-2.4673,-2.5387,-2.636,-2.5569,-2.6678,-2.7294,-2.5653,-2.3968,-2.2281,-2.065,-2.0399,0.0,0.0,0.0,0.0,0.0,0.0,0.0,0.0,-2.2535,-2.2342,-2.6583,-2.454,-2.4917,-2.9085,-3.17,-3.4192,-3.6661,-3.7654,-3.8934,-4.0588,-4.0612,-4.0588,-4.0588,-4.0588,-4.064,-4.0745,-4.1547,-4.1904,-4.1981,-4.2761,-4.3099,-4.3143,-4.3143,-4.3605,-4.4335,-4.4335,-4.4855,-4.5586,-4.5586,-4.5586,-4.5586,-4.5586,-4.5047,-4.4335,-4.4335,-4.3797,-4.3297,-4.4091,-4.4268,-4.4384,-4.5169,-4.5359,-4.5317,-4.5317,-4.5275,-4.5213,-4.5192,-4.5148,-4.5084,-4.5065,-4.5042,-4.4995,-4.4972,-4.4846,-4.4745,-4.487,-4.4895,-4.4865,-4.4738,-4.4764,-4.4731,-4.4542,-4.4344,-4.4226,-4.4177,-4.4214,-4.4214,-4.4195,-4.4011,-4.3786,-4.3532,-4.3479,-4.3461,-4.3442,-4.2996,-4.1325,-3.828,-4.0825,-4.0667,-3.7631,-3.7631,-3.802,-3.8848,-3.8002,-3.7964,-2.9911,-3.0743,-3.0753,-2.8191,-2.821,-2.7999,-2.4872,-2.5026,-2.5605,-2.4775,-2.5953,-2.6801,-2.5666,-2.4068,-2.2539,-2.1449,-1.9811,-1.7697,0.0,0.0,0.0,0.0,0.0,0.0,0.0,0.0,-2.206,-2.4036,-2.3388,-2.4268,-2.7383,-3.0458,-3.3041,-3.5053,-3.7109,-3.8685,-3.9791,-4.0384,-4.0668,-4.0668,-4.0668,-4.0687,-4.072,-4.0977,-4.1098,-4.1117,-4.1359,-4.1759,-4.2306,-4.2306,-4.3099,-4.4239,-4.3701,-4.4008,-4.4797,-4.5374,-4.5586,-4.5586,-4.555,-4.5339,-4.509,-4.5035,-4.4094,-4.3212,-4.4614,-4.4212,-4.3561,-4.4937,-4.4897,-4.455,-4.5101,-4.4794,-4.4465,-4.5014,-4.508,-4.5014,-4.5014,-4.4967,-4.4943,-4.4919,-4.484,-4.4764,-4.4764,-4.4789,-4.477,-4.484,-4.4712,-4.4597,-4.4515,-4.4325,-4.4165,-4.4085,-4.4085,-4.4055,-4.4085,-4.4023,-4.3814,-4.3513,-4.3497,-4.3497,-4.3497,-4.2844,-4.2009,-4.0912,-3.9777,-3.9566,-4.0235,-3.848,-3.7755,-3.802,-3.7569,-3.7987,-3.0462,-3.1197,-3.1255,-2.9022,-2.8655,-2.8191,-2.5661,-2.5738,-2.6086,-2.5255,-2.6191,-2.7089,-2.69,-2.4934,-2.3095,-2.2269,-1.9939,-1.7263,0.0,-1.4046,0.0,0.0,0.0,0.0,0.0,-1.9805,-2.0147,-2.1879,-2.1712,-2.2805,-2.5657,-2.9004,-3.1763,-3.3766,-3.6361,-3.8279,-3.9387,-4.0288,-4.0733,-4.0733,-4.0733,-4.0733,-4.0733,-4.07,-4.0687,-4.0654,-4.0626,-4.0911,-4.1401,-4.1401,-4.2213,-4.3355,-4.2835,-4.3143,-4.3932,-4.4489,-4.4893,-4.5163,-4.5417,-4.5303,-4.5072,-4.4997,-4.402,-4.3157,-4.4518,-4.4154,-4.3465,-4.4553,-4.4666,-4.4493,-4.4698,-4.4522,-4.4386,-4.4585,-4.4596,-4.455,-4.455,-4.4502,-4.4554,-4.4814,-4.4815,-4.4738,-4.4667,-4.4613,-4.4613,-4.4738,-4.4685,-4.4605,-4.4515,-4.3791,-4.3465,-4.3949,-4.3652,-4.3596,-4.3968,-4.3763,-4.3529,-4.3304,-4.3304,-4.3214,-4.3069,-4.2591,-4.2205,-4.2037,-3.9501,-3.9102,-4.0908,-3.8614,-3.7521,-3.7594,-3.7429,-3.7789]}]]